[[{"header":{"parameterUnit":"m.s-1","parameterCategory":1,"la1":30.6,"la2":29.2853,"lo1":-89.7004,"lo2":-87.6739,"dy":0.0162,"dx":0.0183,"nx":112,"ny":82,"refTime":"2023-05-06T00:00:00:Z","depth":0,"parameterNumber":2,"parameterNumberName":"U-component_of_WINDS"},"data":[0.0,0.0,0.0,0.0,0.0,0.0,0.0,0.0,0.0,0.0,0.0,0.0,0.0,0.0,0.0,0.0,0.0,0.0,0.0,0.0,0.0,0.0,0.0,0.0,0.0,0.0,0.0,0.0,0.0,0.0,0.0,0.0,0.0,0.0,0.0,0.0,0.0,0.0,0.0,0.0,0.0,0.0,0.0,0.0,0.0,0.0,0.0,0.0,0.0,0.0,0.0,0.0,0.0,0.0,0.0,0.0,0.0,0.0,0.0,0.0,0.0,0.0,0.0,0.0,0.0,0.0,0.0,0.0,0.0,0.0,0.0,0.0,0.0,0.0,0.0,0.0,0.0,0.0,0.0,0.0,0.0,0.0,0.0,0.0,0.0,0.0,0.0,0.0,0.0,0.0,0.0,0.6825,0.6082,0.5595,0.5587,0.5377,0.5291,0.5357,0.0,0.0,0.0,0.0,0.0,0.0,0.0,0.0,0.0,0.0,0.0,0.0,0.0,0.0,0.0,0.0,0.0,0.0,0.0,0.0,0.0,0.0,0.0,0.0,0.0,0.0,0.0,0.0,0.0,0.0,0.0,0.0,0.0,0.0,0.0,0.0,0.0,0.0,0.0,0.0,0.0,0.0,0.0,0.0,0.0,0.0,0.0,0.0,0.0,0.0,0.0,0.0,0.0,0.0,0.0,0.0,0.0,0.0,0.0,0.0,0.0,0.0,0.0,0.0,0.0,0.0,0.0,0.0,0.0,0.0,0.0,0.0,0.0,0.0,0.0,0.0,0.0,0.0,0.0,0.0,0.0,0.0,0.0,0.0,0.0,0.0,0.0,0.0,0.0,0.0,0.0,0.0,0.0,0.0,0.0,0.0,0.0,0.0,0.0,0.0,0.0,0.0,0.0,0.0,0.739,0.6486,0.5908,0.5689,0.5915,0.5689,0.5571,0.5632,0.0,0.0,0.0,0.0,0.0,0.0,0.0,0.0,0.0,0.0,0.0,0.0,0.0,0.0,0.0,0.0,0.0,0.0,0.0,0.0,0.0,0.0,0.0,0.0,0.0,0.0,0.0,0.0,0.0,0.0,0.0,0.0,0.0,0.0,0.0,0.0,0.0,0.0,0.0,0.0,0.0,0.0,0.0,0.0,0.0,0.0,0.0,0.0,0.0,0.0,0.0,0.0,0.0,0.0,0.0,0.0,0.0,0.0,0.0,0.0,0.0,0.0,0.0,0.0,0.0,0.0,0.0,0.0,0.0,0.0,0.0,0.0,0.0,0.0,0.0,0.0,0.0,0.0,0.0,0.0,0.0,0.0,0.0,0.0,0.0,0.0,0.0,0.0,0.0,0.0,0.0,0.0,0.0,0.0,0.0,0.0,0.0,0.0,0.0,0.0,0.0,0.0,0.0,0.7322,0.6988,0.6162,0.5789,0.5633,0.5718,0.5652,0.5633,0.5707,0.5842,0.0,0.0,0.0,0.0,0.0,0.0,0.0,0.0,0.0,0.0,0.0,0.0,0.0,0.0,0.0,0.0,0.0,0.0,0.0,0.0,0.0,0.0,0.0,0.0,0.0,0.0,0.0,0.0,0.0,0.0,0.0,0.0,0.0,0.0,0.0,0.0,0.0,0.0,0.0,0.0,0.0,0.0,0.0,0.0,0.0,0.0,0.0,0.0,0.0,0.0,0.0,0.0,0.0,0.0,0.0,0.0,0.0,0.0,0.0,0.0,0.0,0.0,0.0,0.0,0.0,0.0,0.0,0.0,0.0,0.0,0.0,0.0,0.0,0.0,0.0,0.0,0.0,0.0,0.0,0.0,0.0,0.0,0.0,0.0,0.0,0.0,0.0,0.0,0.0,0.0,0.0,0.0,0.0,0.0,0.0,0.0,0.0,0.0,0.0,0.0,0.0,0.0,0.668,0.6486,0.6048,0.5819,0.5689,0.567,0.5689,0.5715,0.5797,0.5972,0.0,0.0,0.0,0.0,0.0,0.0,0.0,0.0,0.0,0.0,0.0,0.0,0.0,0.0,0.0,0.0,0.0,0.0,0.0,0.0,0.0,0.0,0.0,0.0,0.0,0.0,0.0,0.0,0.0,0.0,0.0,0.0,0.0,0.0,0.0,0.0,0.0,0.0,0.0,0.0,0.0,0.0,0.0,0.0,0.0,0.0,0.0,0.0,0.0,0.0,0.0,0.0,0.0,0.0,0.0,0.0,0.0,0.0,0.0,0.0,0.0,0.0,0.0,0.0,0.0,0.0,0.0,0.0,0.0,0.0,0.0,0.0,0.0,0.0,0.0,0.0,0.0,0.0,0.0,0.0,0.0,0.0,0.0,0.0,0.0,0.0,0.0,0.0,0.0,0.0,0.0,0.0,0.0,0.0,0.0,0.0,0.0,0.0,0.0,0.0,0.0,0.0,0.7025,0.626,0.6272,0.6091,0.6025,0.6129,0.6032,0.6009,0.6063,0.6086,0.0,0.0,0.0,0.0,0.0,0.0,0.0,0.0,0.0,0.0,0.0,0.0,0.0,0.0,0.0,0.0,0.0,0.0,0.0,0.0,0.0,0.0,0.0,0.0,0.0,0.0,0.0,0.0,0.0,0.0,0.0,0.0,0.0,0.0,0.0,0.0,0.0,0.0,0.0,0.0,0.0,0.0,0.0,0.0,0.0,0.0,0.0,0.0,0.0,0.0,0.0,0.0,0.0,0.0,0.0,0.0,0.0,0.0,0.0,0.0,0.0,0.0,0.0,0.0,0.0,0.0,0.0,0.0,0.0,0.0,0.0,0.0,0.0,0.0,0.0,0.0,0.0,0.0,0.0,0.0,0.0,0.0,0.0,0.0,0.0,0.0,0.0,0.0,0.0,0.0,0.0,0.0,0.0,0.0,0.0,0.0,0.0,0.0,0.0,0.0,0.0,0.0,0.6754,0.6478,0.0,0.5922,0.5782,0.5593,0.5461,0.5458,0.5647,0.0,0.0,0.0,0.0,0.0,0.0,0.0,0.0,0.0,0.0,0.0,0.0,0.0,0.0,0.0,0.0,0.0,0.0,0.0,0.0,0.0,0.0,0.0,0.0,0.0,0.0,0.0,0.0,0.0,0.0,0.0,0.0,0.0,0.0,0.0,0.0,0.0,0.0,0.0,0.0,0.0,0.0,0.0,0.0,0.0,0.0,0.0,0.0,0.0,0.0,0.0,0.0,0.0,0.0,0.0,0.0,0.0,0.0,0.0,0.0,0.0,0.0,0.0,0.0,0.0,0.0,0.0,0.0,0.0,0.0,0.0,0.0,0.0,0.0,0.0,0.0,0.0,0.0,0.0,0.0,0.0,0.0,0.0,0.0,0.0,0.0,0.0,0.0,0.0,0.0,0.0,0.0,0.0,0.0,0.0,0.0,0.0,0.0,0.0,0.0,0.0,0.0,0.6241,0.6253,0.6101,0.0,0.548,0.5375,0.5088,0.4962,0.4927,0.5006,0.0,0.0,0.0,0.0,0.0,0.0,0.0,0.0,0.0,0.0,0.0,0.0,0.0,0.0,0.0,0.0,0.0,0.0,0.0,0.0,0.0,0.0,0.0,0.0,0.0,0.0,0.0,0.0,0.0,0.0,0.0,0.0,0.0,0.0,0.0,0.0,0.0,0.0,0.0,0.0,0.0,0.0,0.0,0.0,0.0,0.0,0.0,0.0,0.0,0.0,0.0,0.0,0.0,0.0,0.0,0.0,0.0,0.0,0.0,0.0,0.0,0.0,0.0,0.0,0.0,0.0,0.0,0.0,0.0,0.0,0.0,0.0,0.0,0.0,0.0,0.0,0.0,0.0,0.0,0.0,0.0,0.0,0.0,0.0,0.0,0.0,0.0,0.0,0.0,0.0,0.0,0.0,0.0,0.0,0.0,0.0,0.0,0.0,0.0,0.0,0.0,0.0,0.6237,0.5586,0.5001,0.4729,0.4759,0.4798,0.4786,0.4661,0.4479,0.0,0.0,0.0,0.0,0.0,0.0,0.0,0.0,0.0,0.0,0.0,0.0,0.0,0.0,0.0,0.0,0.0,0.0,0.0,0.0,0.0,0.0,0.0,0.0,0.0,0.0,0.0,0.0,0.0,0.0,0.0,0.0,0.0,0.0,0.0,0.0,0.0,0.0,0.0,0.0,0.0,0.0,0.0,0.0,0.0,0.0,0.0,0.0,0.0,0.0,0.0,0.0,0.0,0.0,0.0,0.0,0.0,0.0,0.0,0.0,0.0,0.0,0.0,0.0,0.0,0.0,0.0,0.0,0.0,0.0,0.0,0.0,0.0,0.0,0.0,0.0,0.0,0.0,0.0,0.0,0.0,0.0,0.0,0.0,0.0,0.0,0.0,0.0,0.0,0.0,0.0,0.0,0.0,0.0,0.0,0.0,0.0,0.0,0.0,0.0,0.0,0.0,0.0,0.5835,0.5544,0.5278,0.5201,0.4799,0.4287,0.3728,0.3715,0.3551,0.3108,0.0,0.0,0.0,0.0,0.0,0.0,0.0,0.0,0.0,0.0,0.0,0.0,0.0,0.0,0.0,0.0,0.0,0.0,0.0,0.0,0.0,0.0,0.0,0.0,0.0,0.0,0.0,0.0,0.0,0.0,0.0,0.0,0.0,0.0,0.0,0.0,0.0,0.0,0.0,0.0,0.0,0.0,0.0,0.0,0.0,0.0,0.0,0.0,0.0,0.0,0.0,0.0,0.0,0.0,0.0,0.0,0.0,0.0,0.0,0.0,0.0,0.0,0.0,0.0,0.0,0.0,0.0,0.0,0.0,0.0,0.0,0.0,0.0,0.0,0.0,0.0,0.0,0.0,0.0,0.0,0.0,0.0,0.0,0.0,0.0,0.0,0.0,0.0,0.0,0.0,0.0,0.0,0.0,0.0,0.0,0.0,0.0,0.0,0.0,0.0,0.0,0.0,0.5037,0.484,0.4691,0.4652,0.4127,0.3653,0.3265,0.3039,0.2831,0.2569,0.0,0.0,0.0,0.0,0.0,0.0,0.0,0.0,0.0,0.0,0.0,0.0,0.0,0.0,0.0,0.0,0.0,0.0,0.0,0.0,0.0,0.0,0.0,0.0,0.0,0.0,0.0,0.0,0.0,0.0,0.0,0.0,0.0,0.0,0.0,0.0,0.0,0.0,0.0,0.0,0.0,0.0,0.0,0.0,0.0,0.0,0.0,0.0,0.0,0.0,0.0,0.0,0.0,0.0,0.0,0.0,0.0,0.0,0.0,0.0,0.0,0.0,0.0,0.0,0.0,0.0,0.0,0.0,0.0,0.0,0.0,0.0,0.0,0.0,0.0,0.0,0.0,0.0,0.0,0.0,0.0,0.0,0.0,0.0,0.0,0.0,0.0,0.0,0.0,0.0,0.0,0.0,0.0,0.0,0.0,0.0,0.0,0.0,0.0,0.0,0.0,0.0,0.4092,0.3861,0.3681,0.3598,0.312,0.2901,0.3114,0.2471,0.2107,0.225,0.0,0.0,0.0,0.0,0.0,0.0,0.0,0.0,0.0,0.0,0.0,0.0,0.0,0.0,0.0,0.0,0.0,0.0,0.0,0.0,0.0,0.0,0.0,0.0,0.0,0.0,0.0,0.0,0.0,0.0,0.0,0.0,0.0,0.0,0.0,0.0,0.0,0.0,0.0,0.0,0.0,0.0,0.0,0.0,0.0,0.0,0.0,0.0,0.0,0.0,0.0,0.0,0.0,0.0,0.0,0.0,0.0,0.0,0.0,0.0,0.2416,0.0,0.0,0.0,0.0,0.0,0.0,0.0,0.0,0.0,0.0,0.0,0.0,0.0,0.0,0.0,0.0,0.0,0.0,0.0,0.0,0.0,0.0,0.0,0.0,0.0,0.0,0.0,0.0,0.0,0.0,0.0,0.0,0.0,0.0,0.0,0.0,0.0,0.0,0.0,0.0,0.0,0.4477,0.4154,0.4004,0.4192,0.301,0.2125,0.1978,0.1386,0.0847,0.0472,0.0254,0.0,0.0,0.0,0.0,0.0,0.0,0.0,0.0,0.0,0.0,0.0,0.0,0.0,0.0,0.0,0.0,0.0,0.0,0.0,0.0,0.0,0.0,0.0,0.0,0.0,0.0,0.0,0.0,0.0,0.0,0.0,0.0,0.0,0.0,0.0,0.0,0.0,0.0,0.0,0.0,0.0,0.0,0.0,0.0,0.0,0.0,0.0,0.0,0.0,0.0,0.0,0.0,0.0,0.0,0.0,0.0,0.0,0.0,0.0,0.0,0.0999,0.0,0.0,0.0,0.0,0.0,0.0,0.0,0.0,0.0,0.0,0.0,0.0,0.0,0.0,0.0,0.0,0.0,0.0,0.0,0.0,0.0,0.0,0.0,0.0,0.0,0.0,0.0,0.0,0.0,0.0,0.0,0.0,0.0,0.0,0.0,0.0,0.0,0.0,0.0,0.0,0.3704,0.3076,0.2672,0.2927,0.2007,0.1378,0.1362,0.0838,0.0314,-0.0162,-0.0531,0.0,0.0,0.0,0.0,0.0,0.0,0.0,0.0,0.0,0.0,0.0,0.0,0.0,0.0,0.0,0.0,0.0,0.0,0.0,0.0,0.0,0.0,0.0,0.0,0.0,0.0,0.0,0.0,0.0,0.0,0.0,0.0,0.0,0.0,0.0,0.0,0.0,0.0,0.0,0.0,0.0,0.0,0.0,0.0,0.0,0.0,0.0,0.0,0.0,0.0,0.0,0.0,0.0,-0.6621,-0.7219,-0.705,-0.7463,-0.8175,-0.9012,-0.7386,-0.5209,-0.2752,-0.1812,0.0,0.0,0.0,0.0,0.0,0.0,0.0,0.0,0.0,0.0,0.0,0.0,0.0,0.0,0.0,0.0,0.0,0.0,0.0,0.0,0.0,0.0,0.0,0.0,0.2289,0.212,0.4349,0.0,0.0,0.0,0.0,0.0,0.0,0.0,0.0,0.0,0.0,0.0,0.2499,0.172,0.1156,0.1392,0.0825,0.0521,0.074,0.0132,-0.0414,-0.0783,-0.1346,-0.1957,0.0,0.0,0.0,0.0,0.0,0.0,0.0,0.0,0.0,0.0,0.0,0.0,0.0,0.0,0.0,0.0,0.0,0.0,0.0,0.0,0.0,0.0,0.0,0.0,0.0,0.0,0.0,0.0,0.0,0.0,0.0,0.0,-0.6907,-0.5867,0.0,0.0,0.0,0.0,0.0,0.0,0.0,0.0,0.0,0.0,0.0,0.0,0.0,-0.7115,-0.8781,-0.934,-0.9515,-0.9331,-1.0961,-1.1678,-1.1591,-1.2843,-1.3998,-1.5065,-1.4729,0.0,-0.7455,-0.4651,0.0,0.0,0.0,0.0,0.0,0.0,0.0,0.0,0.0,0.0,0.0,0.0,0.0,0.0,0.0,0.0,0.0,0.0,0.0,0.0,0.0,0.0,-0.2023,-0.1076,-0.0853,-0.0511,0.0,0.2577,0.3926,0.3799,0.3997,0.0,0.0,0.0,0.0,0.0,0.0,0.0,0.1532,0.1407,0.1392,0.1481,0.0171,-0.066,-0.0554,-0.1741,-0.2577,-0.2803,-0.2752,-0.2868,-0.3266,-0.3311,0.0,0.0,0.0,0.0,0.0,0.0,0.0,0.0,0.0,0.0,0.0,0.0,0.0,0.0,0.0,0.0,0.0,0.0,0.0,0.0,0.0,0.0,0.0,0.0,0.0,0.0,0.0,0.0,0.0,-0.76,-0.76,-0.6637,-0.7044,-0.7011,0.0,0.0,0.0,0.0,0.0,0.0,0.0,0.0,0.0,-0.8579,-1.0109,-1.1574,-1.2941,-1.3969,-1.448,-1.4448,-1.5624,-1.618,-1.6206,-1.7278,-1.8029,-1.8468,-1.803,-1.6586,-1.4295,-1.086,-0.92,-0.8685,0.0,0.0,0.0,0.0,-0.7117,-0.5327,-0.718,-0.7835,-0.7847,-0.7848,0.0,0.0,0.0,0.0,0.0,0.0,0.0,0.0,0.0,0.0,-0.4317,-0.3533,-0.331,-0.3164,-0.276,-0.1977,-0.085,0.0,0.2212,0.2424,0.0503,0.0,0.0,0.0,0.0,-0.1236,-0.079,-0.1115,-0.1408,-0.1366,-0.1905,-0.2172,-0.2005,-0.2688,-0.3316,-0.3801,-0.3834,-0.4159,-0.4838,-0.4945,-0.4966,0.0,0.0,0.0,0.0,0.0,0.0,0.0,0.0,0.0,0.0,0.0,0.0,0.0,0.0,0.0,0.0,0.0,0.0,0.0,0.0,0.0,0.0,0.0,0.0,0.0,0.0,0.0,0.0,-0.8432,-0.8693,-0.7402,-0.7999,-0.821,0.0,0.0,0.0,0.0,0.0,0.0,-0.8776,-0.9922,-1.1304,-1.2951,-1.4623,-1.5765,-1.6357,-1.7718,-1.8298,-1.8167,-1.8781,-1.9228,-1.9467,-2.0088,-2.046,-2.0657,-2.0094,-1.9848,-1.9601,-1.5902,-1.4031,-1.3527,-1.3708,-1.2604,-1.1108,-1.3179,-1.1901,-0.9297,-1.0789,-1.1236,-1.1172,-1.1185,-1.1011,-1.0687,-1.017,0.0,0.0,0.0,0.0,-0.7044,-0.6492,-0.6662,-0.6727,-0.5577,-0.5344,-0.5347,-0.5165,-0.4871,-0.4038,0.0,-0.0403,-0.0021,-0.2176,0.0,0.0,0.0,0.0,-0.3937,-0.3096,-0.3554,-0.3914,-0.3787,-0.3834,-0.3749,-0.3414,-0.3672,-0.4103,-0.4693,-0.479,-0.5163,-0.5961,-0.6081,-0.5962,-0.5638,0.0,0.0,0.0,0.0,0.0,0.0,0.0,0.0,0.0,0.0,0.0,0.0,0.0,0.0,0.0,0.0,0.0,0.0,0.0,0.0,0.0,0.0,0.0,0.0,0.0,0.0,0.0,0.0,0.0,-0.983,-1.0579,0.0,0.0,0.0,0.0,-1.3739,-1.3937,-1.3961,-1.4022,-1.5522,-1.6419,-1.6547,-1.884,-1.9734,-1.9024,-1.9843,-1.9879,-1.9134,-1.9237,-1.9689,-2.0436,-2.047,-2.0943,-2.173,-2.1623,-2.1639,-2.1463,-1.7577,-1.6082,-1.6073,-1.4841,-1.4423,-1.4522,-1.4418,-1.4184,-1.3945,-1.3841,-1.3685,-1.3542,-1.3602,-1.2811,-1.1773,-1.1493,-1.0774,0.0,0.0,-1.1451,-1.1382,-1.0905,-1.0801,-1.0179,-0.7602,-0.698,-0.6715,-0.5692,-0.4082,-0.3263,0.0,-0.4355,-0.4131,-0.5197,0.0,-0.4106,-0.5114,-0.5039,-0.4847,-0.4868,-0.4902,-0.4771,-0.43,-0.5003,-0.5283,-0.4752,-0.5135,-0.5534,-0.5895,-0.5563,-0.5555,-0.5979,-0.5774,-0.5642,-0.5699,-0.5382,0.0,0.0,0.0,0.0,0.0,0.0,0.0,0.0,0.0,0.0,0.0,0.0,0.0,0.0,0.0,0.0,0.0,0.0,0.0,0.0,0.0,0.0,0.0,0.0,0.0,0.0,0.0,0.0,-1.2323,-1.3344,0.0,-1.3298,-1.2717,-1.2733,-1.3622,-1.5282,-1.5948,-1.5276,-1.7831,-1.9008,-1.8359,-1.9261,-1.9666,-1.946,-1.9741,-1.9838,-1.9726,-2.0177,-2.0583,-2.0978,-2.1502,-2.1887,-2.2187,-2.2219,-2.2241,-2.2186,-2.0841,-2.018,-1.9904,-1.8906,-1.8588,-1.8577,-1.7826,-1.7586,-1.762,-1.7458,-1.7412,-1.7408,-1.7362,-1.6833,-1.6007,-1.498,-1.4205,-1.3599,-1.3243,-1.3741,-1.4153,-1.3165,-1.277,-1.2155,-1.021,-0.8953,-0.812,-0.7879,-0.7363,-0.7163,-0.7866,-0.6205,-0.5154,-0.664,-0.7144,-0.7107,-0.6386,-0.6745,-0.7028,-0.6883,-0.6827,-0.6711,-0.6461,-0.6591,-0.6534,-0.6123,-0.6365,-0.6586,-0.6701,-0.6701,-0.6795,-0.7087,-0.7044,-0.7015,-0.6988,-0.686,-0.6814,0.0,0.0,0.0,0.0,0.0,0.0,0.0,0.0,0.0,0.0,0.0,0.0,0.0,0.0,0.0,0.0,0.0,0.0,0.0,0.0,0.0,0.0,0.0,0.0,0.0,0.0,-1.3712,-1.3781,-1.4725,-1.5311,-1.5157,-1.4544,-1.4485,-1.5294,-1.7079,-1.7791,-1.7083,-1.9207,-2.0113,-1.9456,-1.9787,-1.9889,-1.9701,-2.0249,-2.0496,-2.0418,-2.1147,-2.1695,-2.2049,-2.2609,-2.3,-2.3246,-2.329,-2.3327,-2.3351,-2.3378,-2.3284,-2.2929,-2.1789,-2.1349,-2.1246,-2.0519,-2.03,-2.027,-1.9862,-1.9815,-1.9861,-1.9396,-1.9077,-1.8692,-1.7654,-1.7107,-1.6693,-1.5986,-1.637,-1.6663,-1.5337,-1.4431,-1.3484,-1.1901,-1.0284,-0.913,-0.925,-0.935,-0.9454,-0.952,-0.799,-0.7031,-0.8148,-0.8976,-0.9078,-0.7823,-0.8231,-0.8576,-0.8306,-0.8278,-0.8168,-0.7905,-0.7794,-0.7544,-0.7106,-0.7023,-0.7097,-0.7283,-0.7206,-0.7325,-0.768,-0.7533,-0.7414,-0.7369,-0.7369,-0.7445,-0.7608,0.0,0.0,0.0,0.0,0.0,0.0,0.0,0.0,0.0,0.0,0.0,0.0,0.0,0.0,0.0,0.0,0.0,0.0,0.0,0.0,0.0,0.0,0.0,-1.1349,-1.3921,-1.5401,-1.4288,-1.4796,-1.5678,-1.6775,-1.6311,-1.6896,-1.9239,-1.9614,-1.9745,-1.9732,-1.9896,-1.9982,-1.9979,-2.0736,-2.0774,-1.999,-2.1611,-2.2052,-2.1297,-2.2163,-2.2999,-2.3746,-2.3746,-2.417,-2.4915,-2.4934,-2.4993,-2.5044,-2.5044,-2.5094,-2.4969,-2.3144,-2.2438,-2.2413,-2.2187,-2.2055,-2.1879,-2.0892,-2.068,-2.066,-1.9557,-1.9314,-1.9431,-1.9292,-1.9259,-1.9335,-1.949,-1.9419,-1.8982,-1.756,-1.5919,-1.4217,-1.2659,-1.0957,-0.9684,-0.962,-0.9669,-0.9692,-0.9628,-0.983,-0.9969,-0.9835,-0.9871,-0.9815,-0.9549,-0.9458,0.0,-0.906,-0.9136,-0.9016,-0.8481,-0.8549,-0.8347,-0.7691,-0.7157,-0.7107,-0.7694,-0.7123,-0.7057,-0.7694,-0.7105,-0.677,-0.6753,-0.6763,-0.7193,-0.8031,0.0,0.0,0.0,0.0,0.0,0.0,0.0,0.0,0.0,0.0,0.0,0.0,0.0,0.0,0.0,0.0,0.0,0.0,0.0,0.0,0.0,0.0,-1.4931,-1.452,-1.5366,-1.6413,-1.7493,-1.7889,-1.8287,-1.8851,-1.8777,-1.8989,-1.9632,-2.047,-2.0877,-2.0721,-2.145,-2.1805,-2.1714,-2.1941,-2.1983,-2.1869,-2.2854,-2.3332,-2.3304,-2.4094,-2.4591,-2.4867,-2.4867,-2.4971,-2.5239,-2.5852,-2.6132,-2.6162,-2.6162,-2.6173,-2.6011,-2.4197,-2.3484,-2.3385,-2.2609,-2.2319,-2.2243,-2.1859,-2.1826,-2.187,-2.125,-2.0807,-2.0462,-2.0337,-1.9896,-1.9504,-1.9775,-1.972,-1.9531,-1.9265,-1.7016,-1.4691,-1.4194,-1.1847,-0.9702,-0.9743,-0.9794,-0.9855,-0.9887,-1.0022,-1.0098,-0.9967,-1.0033,-1.0038,-0.982,-0.9863,0.0,-0.9474,-0.9599,-0.9539,-0.9091,-0.9079,-0.8943,-0.8506,-0.8287,-0.8248,-0.8422,-0.83,-0.8274,-0.8409,-0.8297,-0.823,-0.8219,-0.8184,-0.8341,0.0,0.0,0.0,0.0,0.0,0.0,0.0,0.0,0.0,0.0,0.0,0.0,0.0,0.0,0.0,0.0,0.0,0.0,0.0,0.0,0.0,0.0,-1.4704,-1.6655,-1.7317,-1.7309,-1.7808,-1.936,-1.9652,-2.0,-2.0606,-2.0752,-2.0816,-2.0816,-2.1456,-2.1814,-2.1687,-2.2295,-2.2612,-2.2517,-2.2528,-2.2563,-2.2649,-2.3427,-2.4094,-2.4611,-2.5405,-2.5992,-2.639,-2.639,-2.639,-2.6428,-2.6928,-2.714,-2.714,-2.714,-2.714,0.0,0.0,0.0,0.0,0.0,-2.3211,-2.3135,-2.2685,-2.2615,-2.2632,-2.2004,-2.1628,-2.1405,-2.1334,-2.1008,-2.0607,-2.0587,-2.044,-2.0255,-2.0124,-1.751,-1.4911,-1.4892,-1.2275,-0.9786,-0.9831,-0.9869,-0.9919,-0.9992,-1.0054,0.0,-1.0091,-1.0166,-1.0145,-0.9896,-1.0001,-0.997,-0.9644,-0.9757,-0.9756,-0.9492,-0.9445,-0.9323,-0.9033,-0.879,0.0,0.0,0.0,-0.8639,-0.8538,-0.8543,0.0,0.0,0.0,-0.863,-0.8922,0.0,0.0,0.0,-0.6219,-0.5657,0.0,0.0,0.0,0.0,0.0,0.0,0.0,0.0,0.0,0.0,0.0,0.0,0.0,0.0,0.0,0.0,-1.5635,-1.7574,-1.9754,-1.956,-1.9488,-2.0336,-2.0561,-2.1016,-2.1931,-2.2131,-2.2209,-2.2235,-2.24,-2.2559,-2.2654,0.0,0.0,0.0,0.0,-2.2977,-2.2967,-2.385,-2.4667,-2.5446,-2.6428,-2.7285,-2.8044,-2.8132,-2.8189,-2.8179,-2.8179,-2.8179,-2.8159,-2.8082,-2.7986,-2.7706,-2.5956,-2.526,-2.5206,-2.4663,-2.4422,-2.4263,-2.3454,0.0,0.0,-2.2347,-2.215,-2.2245,-2.2309,-2.227,-2.2117,-2.1635,-2.1384,-2.1107,-2.0489,-1.7706,-1.505,-1.5023,-1.2407,-0.9919,-0.9919,-0.9912,-0.9938,-1.0001,-1.0016,-1.007,-1.0197,-1.0252,-1.0181,-0.9901,-0.9996,-1.0006,-0.97,-0.9759,-0.9806,-0.9711,0.0,0.0,-0.9305,-0.8895,-0.8819,-0.9174,-0.8807,-0.8512,-0.8392,-0.8341,-0.8294,-0.8294,-0.8294,-0.8481,-0.8805,-0.8127,-0.7636,-0.7322,-0.6477,-0.6048,0.0,0.0,0.0,0.0,0.0,0.0,0.0,0.0,0.0,0.0,0.0,0.0,0.0,0.0,0.0,-1.5348,-1.8,-2.0322,-2.1485,-2.1551,-2.1433,-2.1368,-2.1506,-2.1789,-2.2192,-2.2265,-2.2344,-2.2509,-2.2555,-2.2901,-2.3591,-2.3651,-2.3987,-2.4686,-2.4725,-2.4717,-2.4709,-2.5581,-2.6102,-2.6288,0.0,0.0,-2.8895,-2.965,-2.9978,-2.9929,-2.9929,-2.9929,-2.9871,-2.9159,-2.8486,-2.7794,-2.6734,-2.6301,-2.6192,-2.517,-2.485,-2.4872,-2.4393,-2.4307,-2.4332,-2.3949,-2.3483,-2.3055,-2.3007,-2.2678,0.0,-2.2161,-2.218,-2.2045,-2.1289,-1.8583,-1.5866,-1.5233,-1.2477,-0.999,-0.999,-1.0015,-1.0067,-1.0074,-1.0178,-1.0248,-1.0283,-1.0244,-1.0212,-1.0206,-1.0198,-1.016,-1.0093,-1.0067,-0.9949,-0.9725,-0.9691,-0.9557,-0.9249,-0.913,-0.9099,-0.9126,-0.903,-0.897,-0.8949,-0.8928,-0.8934,-0.8934,-0.8934,-0.8918,-0.8886,-0.8156,-0.7734,-0.7592,-0.6523,-0.5875,0.0,0.0,0.0,0.0,0.0,0.0,0.0,0.0,0.0,0.0,0.0,-1.1881,0.0,0.0,-1.6459,-1.6972,-1.9499,-2.1697,-2.2585,-2.2694,-2.2648,-2.2523,-2.2651,-2.2951,-2.3512,-2.3636,-2.3733,-2.3838,-2.385,-2.4033,-2.4476,-2.4495,-2.4729,-2.5191,-2.5191,-2.5203,-2.5195,-2.5627,-2.6079,-2.6512,-2.7418,-2.8275,-2.907,-2.9536,-2.996,-3.0362,-3.0362,-3.0362,-3.0323,-2.9886,-2.9463,-2.9021,-2.8179,-2.73,-2.6427,-2.5857,-2.5368,-2.4962,-2.476,-2.4689,-2.4676,-2.4528,-2.4234,-2.3899,-2.3945,-2.3735,-2.3436,-2.3101,-2.3019,-2.2861,-2.2061,-1.9633,-1.7112,-1.5937,-1.3377,-1.0973,-1.0174,-1.003,-1.007,-1.0093,-1.015,-1.02,-1.0248,-1.0227,-1.0218,-1.0293,-1.0269,-1.0241,-1.025,-1.0194,-1.0098,-0.9915,-0.9892,-0.98,-0.9565,-0.952,-0.9454,-0.9359,-0.9277,-0.9237,-0.9196,-0.9136,-0.9088,-0.9088,-0.9126,-0.9113,-0.8996,-0.8497,-0.8114,-0.7821,-0.7014,-0.6387,0.0,0.0,0.0,0.0,0.0,0.0,0.0,0.0,-1.253,-1.3878,-1.4282,-1.4491,-1.4754,-1.6744,-1.8419,-1.8656,-2.0682,-2.2542,-2.3393,-2.3556,-2.3587,-2.364,-2.3727,-2.4044,-2.4718,-2.4931,-2.5031,-2.5089,-2.507,-2.5082,-2.5101,-2.5101,-2.5113,-2.518,-2.518,-2.518,-2.5191,-2.5195,-2.5551,-2.6247,-2.6431,-2.7305,-2.8759,-2.8936,-2.9493,-3.0292,-3.0292,-3.0292,-3.0292,-3.0299,-3.0292,-3.0247,-2.9598,-2.8341,-2.6854,-2.6529,-2.5882,-2.5151,-2.4972,-2.4818,-2.4734,-2.4734,-2.4676,-2.4596,-2.4716,-2.4741,-2.4653,-2.4107,-2.3904,-2.3663,-2.2873,-2.0833,-1.8512,-1.6639,-1.4379,-1.2168,-1.0391,-1.0009,-1.0044,-1.009,-1.0106,-1.0135,-1.0183,-1.0191,-1.0229,-1.0273,-1.0293,-1.0308,-1.0274,-1.023,-1.018,-1.0135,-1.0105,-1.0049,-0.9919,-0.983,-0.9747,-0.9635,-0.9506,-0.9421,-0.9348,-0.9226,-0.9167,-0.9149,-0.9204,-0.9212,-0.9133,-0.8846,-0.8509,-0.812,-0.7664,-0.7057,-0.9915,-1.0761,0.0,-1.0777,-1.2086,-1.3408,0.0,0.0,-1.3726,-1.4825,-1.5062,-1.5397,-1.642,-1.8074,-1.9512,-2.0292,-2.1909,-2.3349,-2.4165,-2.4428,-2.4561,-2.4542,-2.4463,-2.4465,-2.4689,-2.4738,-2.4813,-2.5012,-2.5012,-2.5038,-2.5101,-2.5101,-2.5095,-2.5113,-2.5113,-2.5137,-2.5191,-2.5191,-2.5249,-2.5363,-2.6187,-2.7033,-2.786,-2.8709,-2.9536,-3.0292,-3.0292,-3.0292,-3.0292,-3.0292,-3.0292,-3.0292,-3.0209,-2.9564,-2.8523,-2.6981,-2.6333,-2.6098,-2.5221,-2.4888,-2.4874,-2.4874,-2.4874,-2.4861,-2.4874,-2.4929,-2.4962,-2.4879,-2.4822,-2.4574,-2.3833,-2.2186,-1.995,-1.6923,-1.4844,-1.2895,-1.0512,-1.0048,-1.0101,-1.0089,-1.0145,-1.0191,-1.0201,-1.0197,-1.0195,-1.0218,-1.0265,-1.0272,-1.0212,-1.02,-1.0195,-1.018,-1.0133,-1.0049,-0.9919,-0.9773,-0.9735,-0.9768,-0.9657,-0.9567,-0.9577,-0.9448,-0.9367,-0.9367,-0.9384,-0.9356,-0.9284,-0.8943,-0.8734,-0.8618,-0.8138,-0.7459,-1.3141,0.0,0.0,0.0,-1.4876,-1.588,-1.55,-1.6092,-1.7095,-1.836,-1.8771,-1.9001,-1.9499,-2.0599,-2.1562,0.0,-2.3061,-2.4052,-2.4505,-2.4642,-2.4738,-2.4861,-2.4832,-2.4817,-2.4861,-2.4875,-2.4903,-2.5004,-2.5004,-2.5018,-2.5038,-2.5532,-2.5811,-2.5799,-2.6732,-2.7279,-2.7351,-2.7828,-2.807,-2.8116,-2.7987,-2.837,-2.9142,-2.9034,-2.9436,-3.0226,-3.0226,-3.0226,-3.024,-3.0253,-3.0234,-3.0253,-3.0279,-3.001,-2.9445,-2.8377,-2.7328,-2.6397,-2.6029,-2.5512,-2.5031,-2.5031,-2.4949,-2.4902,-2.4902,-2.4929,-2.4942,-2.4942,-2.4929,-2.4839,-2.4524,-2.3499,-2.1739,-1.843,-1.6398,-1.4394,-1.14,-1.0374,-1.0044,-1.009,-1.0097,-1.0109,-1.0144,-1.0144,-1.0169,-1.0181,-1.0227,-1.0248,-1.0252,-1.023,-1.0201,-1.0202,-1.0143,-1.0077,-1.0029,-0.9929,-0.9857,-0.9799,-0.9752,-0.971,-0.9651,-0.9532,-0.9499,-0.9563,-0.9525,-0.9275,-0.8778,-0.9055,-0.887,-0.8234,-0.8401,-0.8175,-1.434,0.0,0.0,-1.6182,-1.7506,-1.8447,-1.8407,-1.8947,-1.9827,-2.1146,-2.159,-2.1817,-2.2073,-2.27,-2.3179,-2.3217,-2.3842,-2.4389,-2.4594,-2.4676,-2.4753,-2.4908,-2.4983,-2.501,-2.501,-2.501,-2.501,-2.501,-2.501,-2.5105,-2.5321,-2.6157,-2.674,-2.6977,-2.8365,-2.9155,-2.9236,-2.9808,-3.0128,-3.0157,-2.9527,-2.9546,-3.0152,-2.9541,-2.9612,-3.0204,-3.0204,-3.0204,-3.0185,-3.0194,-3.0194,-3.0207,-3.0253,-3.018,-2.9994,-2.9558,-2.8408,-2.7,-2.6596,-2.5987,-2.5342,-2.5113,-2.5,-2.4968,-2.4968,-2.4994,-2.5019,-2.5019,-2.4975,-2.4968,-2.4968,-2.4505,-2.3133,-1.952,-1.7795,-1.5918,-1.2114,-1.0793,-1.0302,-1.0133,-1.0068,-1.0044,-1.0087,-1.0098,-1.0112,-1.0186,-1.0207,-1.0219,-1.0273,-1.0234,-1.0209,-1.0191,-1.0145,-1.0101,-1.01,-1.0034,-0.9971,-0.9869,-0.9825,-0.9768,-0.9727,-0.9617,-0.9602,-0.9702,-0.9628,-0.9304,-0.8722,-0.9224,-0.9064,-0.8319,-0.8705,-0.8705,0.0,0.0,-1.576,-1.7046,-1.9133,-2.0831,-2.0648,-2.063,-2.0952,-2.2042,-2.2271,-2.2554,-2.3557,-2.3741,-2.3842,-2.4023,-2.4098,-2.4174,-2.4372,-2.4578,-2.4707,-2.4707,-2.4875,-2.501,0.0,-2.501,-2.501,-2.501,-2.501,-2.5351,-2.6129,-2.7001,-2.785,-2.8696,-2.9532,-3.0003,-3.0053,-3.0091,-3.0091,-3.0106,-3.0079,-3.009,-3.0109,-3.0133,-3.0166,-3.0204,-3.0204,-3.0204,-3.0204,-3.0204,-3.0204,-3.0204,-3.0185,-3.0204,-3.0185,-3.0169,-2.9417,-2.8215,-2.6654,-2.61,-2.593,-2.5148,-2.4987,-2.5084,-2.5084,-2.5182,-2.5293,-2.5293,-2.5182,-2.5084,-2.5084,-2.4968,-2.3821,-1.9601,-1.861,-1.7282,-1.237,-1.1269,-1.1033,-1.0242,-1.0104,-1.0093,-1.0101,-1.0108,-1.0119,-1.0186,-1.0205,-1.0207,-1.019,-1.0193,-1.0209,-1.0191,-1.0139,-1.0093,-1.0104,-1.0044,-1.0003,-1.0001,-0.9875,-0.9794,-0.9794,-0.9733,-0.9702,-0.971,-0.964,-0.9599,-0.9562,-0.9464,-0.9377,-0.935,-0.9167,-0.8951,-1.3622,0.0,-1.7426,-1.9375,-2.0929,-2.1971,-2.1846,-2.2282,-2.2793,-2.3145,-2.2378,-2.1774,-2.2203,-2.2238,-2.2257,-2.241,-2.3267,-2.402,-2.4355,-2.4337,-2.4408,-2.4676,-2.4642,0.0,0.0,0.0,0.0,-2.501,-2.5503,-2.6167,-2.702,-2.8389,-2.9526,-3.0376,-3.1722,-3.2496,-3.2549,-3.3082,-3.3365,-3.3418,-3.2825,-3.1968,-3.0902,-3.0967,-3.0676,-3.0142,-3.0171,-3.0204,-3.0204,-3.0204,-3.0204,-3.0204,-3.0204,-3.0128,-3.0003,-3.0049,-2.9731,-2.9183,-2.8313,-2.763,-2.7048,-2.6782,-2.6339,-2.5893,-2.5893,-2.5547,-2.5171,-2.5171,-2.508,-2.4994,-2.5091,-2.508,-2.4407,-2.1913,-2.0059,-1.807,-1.5284,-1.3322,-1.1856,-1.1047,-1.086,-1.0664,-1.0189,-1.0101,-1.0109,-1.0129,-1.0175,-1.0195,-1.0209,-1.0248,-1.0273,-1.027,-1.0209,-1.0178,-1.0177,-1.0096,-1.0067,-1.0077,-1.0014,-0.9987,-0.9933,-0.9874,-0.985,-0.9894,-0.9781,-0.95,-0.8997,-0.9364,-0.9236,-0.8674,-0.9007,-0.9071,-1.553,-1.7371,-1.904,-2.1039,-2.2186,-2.2855,-2.2797,-2.3235,-2.3584,-2.3279,-2.2224,-2.1274,-2.1097,-2.0572,-2.03,-2.073,-2.1352,-2.2173,-2.3336,-2.3466,-2.3756,-2.4567,-2.4623,0.0,0.0,0.0,0.0,-2.5901,-2.6375,-2.7304,-2.873,-3.0113,-3.125,-3.2065,-3.343,-3.4149,-3.4205,-3.4717,-3.5001,-3.5056,-3.4219,-3.3097,-3.1762,-3.1492,-3.0898,-3.0113,-3.0142,-3.0171,-3.0157,-3.0094,-3.0142,-3.0185,-3.0128,-3.0019,-2.9905,-3.0019,-2.9937,-2.9672,-2.9079,-2.8465,-2.7899,-2.759,-2.7157,-2.6734,-2.6734,-2.6199,-2.5585,-2.5543,-2.526,-2.4987,-2.5031,-2.5024,-2.4617,-2.3004,-2.09,-1.8722,-1.6774,-1.4547,-1.2699,-1.1887,-1.1462,-1.1087,-1.0608,-1.0317,-1.0133,-1.0145,-1.0169,-1.0193,-1.0195,-1.026,-1.029,-1.0292,-1.0244,-1.0201,-1.0195,-1.0166,-1.0128,-1.009,-1.0096,-1.0082,-1.0033,-0.9996,-0.9982,-1.0035,-0.993,-0.9633,-0.9166,-0.9478,-0.9356,-0.8803,-0.9126,-0.9204,-1.7028,-1.8986,-2.0546,-2.1986,-2.2946,-2.3494,-2.3494,-2.3504,-2.328,-2.2443,-2.1648,-2.0861,0.0,0.0,-1.8097,-1.9103,-1.875,-1.9188,-2.1673,-2.2223,-2.2957,0.0,0.0,0.0,0.0,0.0,0.0,-2.7669,0.0,-2.873,-3.1137,-3.2027,-3.2861,-3.3733,-3.4491,-3.4908,-3.4908,-3.4908,-3.4927,-3.5001,-3.4223,-3.3424,-3.2638,-3.1765,-3.0909,-3.016,-3.0132,-3.0094,-3.0094,-2.9953,-3.0019,-3.0171,-2.9988,-2.9905,-2.9921,-3.0094,-3.0049,-2.9777,-2.8936,-2.8655,-2.8539,-2.7708,-2.7494,-2.757,-2.757,-2.7097,-2.6519,-2.6339,-2.5749,-2.5114,-2.4947,-2.4915,-2.453,-2.2996,-2.1233,-1.9275,-1.6992,-1.5057,-1.3512,-1.2718,-1.1875,-1.1299,-1.1302,-1.0683,-1.0205,-1.0203,-1.0195,-1.02,-1.0207,-1.0266,-1.0307,-1.0292,-1.0246,-1.0205,-1.0217,-1.0212,-1.0172,-1.0105,-1.0105,-1.0102,-1.0099,-1.0093,-1.0106,-1.0103,-1.004,-0.9997,-0.9995,-0.9806,-0.9706,-0.9698,-0.9492,-0.9367,-1.895,-2.0598,-2.1971,-2.2946,-2.3356,-2.3494,-2.3494,-2.3035,-2.2257,-2.0902,-1.8609,-1.6478,0.0,0.0,0.0,-1.7311,-1.968,0.0,-2.34,-2.3529,0.0,0.0,0.0,-2.5671,-2.6635,-2.7565,0.0,0.0,-3.0213,-3.0795,-3.2027,-3.2899,-3.3752,-3.4567,-3.4794,-3.4908,-3.4908,-3.4908,-3.4908,-3.4927,-3.4718,-3.4187,-3.339,-3.2571,-3.1751,-3.0953,-3.0354,-3.0102,-3.0102,-3.0064,-3.0079,-3.0142,-3.0109,-3.0034,-2.9924,-2.9972,-2.9855,-2.9643,-2.9419,-2.9485,-2.9599,-2.9387,-2.8924,-2.847,-2.847,-2.7908,-2.7115,-2.6479,-2.6075,-2.5703,-2.5126,-2.5013,-2.4955,-2.4591,-2.2198,-1.983,-1.9249,-1.6705,-1.4295,-1.3547,-1.2262,-1.1296,-1.1302,-1.0652,-1.0131,-1.0186,-1.0202,-1.0217,-1.0277,-1.0245,-1.0236,-1.0287,-1.0273,-1.0272,-1.0262,-1.0276,-1.0248,-1.0172,-1.0222,-1.0191,-1.0102,-1.0155,-1.0144,-1.011,-1.0071,-1.0042,-1.0001,-0.9794,-0.9701,-0.9691,-0.9499,-0.9394,-2.0634,-2.1935,-2.2946,-2.3392,-2.3494,-2.332,-2.2672,-2.1923,-2.0813,-1.8949,-1.6604,0.0,0.0,0.0,0.0,0.0,0.0,0.0,-2.2116,-2.2663,-2.3506,0.0,-2.5465,0.0,-2.779,-2.8857,-3.0171,0.0,-3.1825,-3.2236,-3.343,-3.396,-3.4434,-3.4889,-3.4908,-3.4908,-3.4908,-3.4908,-3.4908,-3.4908,-3.4908,-3.4472,-3.3676,-3.2822,-3.2024,-3.1208,0.0,-3.0072,-3.0038,-2.9988,-3.0019,-3.0079,-3.003,-2.9969,-2.9869,-3.0003,-2.9905,-2.9734,-2.982,-2.9905,-2.9956,-2.9956,-2.9649,-2.93,-2.9394,-2.8798,-2.8017,-2.7518,-2.6783,-2.6043,-2.5598,-2.5232,-2.5,-2.5091,-2.2459,-1.9979,-2.0079,-1.7331,-1.4624,-1.3853,-1.2974,-1.2123,-1.1421,-1.0955,-1.0556,-1.0241,-1.0232,-1.0252,-1.0304,-1.0268,-1.025,-1.0254,-1.0265,-1.0272,-1.0292,-1.0291,-1.0288,-1.0256,-1.028,-1.0275,-1.0191,-1.0217,-1.0205,-1.0144,-1.0141,-1.011,-1.0033,-0.9895,-0.9794,-0.9747,-0.9586,-0.9517,-2.2054,-2.2959,-2.3494,-2.3494,-2.3494,-2.3093,-2.1502,-2.0514,-1.9237,-1.6762,0.0,-1.3664,-1.2746,0.0,-1.3002,-1.4105,0.0,-1.7518,-2.0005,-2.1241,-2.27,-2.4914,-2.5575,-2.6786,-2.9202,-3.0409,-3.1652,-3.3149,-3.2882,-3.3299,-3.4736,-3.4812,-3.4812,-3.4773,-3.4812,-3.4812,-3.4812,-3.4812,-3.4812,-3.4812,-3.4812,-3.4472,-3.379,-3.2769,-3.1955,-3.1307,-3.0324,-2.994,-2.9991,-2.9841,-2.991,-3.0072,-2.9886,-2.9817,-2.9834,-3.0064,-3.0034,-2.9888,-3.0064,-3.0019,-2.9872,-2.9888,-2.9872,-2.9888,-3.0064,-2.9613,-2.9003,-2.8821,-2.7704,-2.6493,-2.6199,-2.5598,-2.504,-2.5032,-2.2398,-1.9945,-2.0068,-1.7358,-1.4695,-1.3996,-1.3777,-1.3209,-1.17,-1.1416,-1.1107,-1.0316,-1.025,-1.0281,-1.0297,-1.0286,-1.0269,-1.0219,-1.0215,-1.0227,-1.0272,-1.0292,-1.0293,-1.0289,-1.0289,-1.0288,-1.0307,-1.0305,-1.0279,-1.0203,-1.0195,-1.017,-1.0105,-1.0059,-0.9952,-0.9832,-0.9771,-0.9695,-2.2876,-2.3318,-2.3494,-2.3494,-2.3494,-2.295,-2.0798,-1.9687,0.0,0.0,0.0,-1.1049,-0.9592,-0.9803,0.0,-1.378,0.0,0.0,0.0,0.0,-2.4034,0.0,0.0,0.0,0.0,0.0,0.0,0.0,0.0,-3.411,-3.439,-3.4409,-3.4325,-3.4152,-3.4255,-3.4321,-3.4321,-3.4321,-3.4321,-3.4321,-3.4321,-3.4357,-3.4384,-3.2617,-3.1953,-3.2086,-3.0226,0.0,-2.9924,-2.977,-2.9841,-3.0022,-3.0038,-2.9937,-2.9801,-2.9851,-2.9786,-2.9662,-2.9698,-2.9681,-2.9681,-2.9855,-2.9805,-2.9662,-2.9698,-2.9708,-2.9577,-2.8825,-2.8536,-2.8101,-2.6696,-2.6282,-2.6027,-2.5321,-2.2467,-1.9941,-2.0078,-1.7358,-1.4865,-1.4717,-1.4141,-1.3372,-1.2388,-1.1702,-1.1034,-1.0236,-1.0163,-1.0222,-1.0222,-1.0219,-1.0238,-1.0271,-1.0227,-1.0191,-1.0227,-1.0226,-1.0226,-1.0228,-1.0211,-1.0233,-1.0293,-1.0293,-1.027,-1.0205,-1.0193,-1.0188,-1.0173,-1.0116,-1.0039,-0.996,-0.9893,-0.9799,-2.3183,-2.3383,-2.3494,-2.3494,-2.3195,-2.2186,-1.9543,0.0,0.0,0.0,-1.1129,-1.0086,-0.9321,0.0,0.0,0.0,0.0,0.0,0.0,0.0,0.0,0.0,0.0,0.0,0.0,0.0,0.0,0.0,0.0,-3.4269,-3.4293,-3.4293,-3.4269,-3.416,-3.4068,-3.4136,-3.4293,-3.416,-3.4136,-3.4197,-3.4197,-3.4046,-3.3713,-3.2333,-3.1598,-3.1335,-2.9899,-2.9415,-2.9589,-2.9513,-2.9551,-2.9644,-2.9662,-2.9625,-2.9551,-2.9696,-2.9715,-2.968,-2.982,-2.9803,-2.9734,-2.9855,-2.9839,-2.977,-2.977,-2.9822,-2.9796,-2.9278,-2.886,-2.8446,-2.7723,-2.6915,-2.6199,-2.5893,-2.2844,-1.9773,-1.8926,-1.6714,-1.4902,-1.4904,-1.4593,-1.4066,-1.3217,-1.2439,-1.1656,-1.0847,-1.0406,-1.0154,-1.0208,-1.0202,-1.0217,-1.0236,-1.023,-1.0197,-1.0201,-1.02,-1.0201,-1.0248,-1.0227,-1.0209,-1.0252,-1.0272,-1.0273,-1.0203,-1.0237,-1.0234,-1.0199,-1.0173,-1.0101,-0.9991,-0.9963,-0.9875,-2.3253,-2.3383,-2.3494,-2.3453,-2.287,-2.1453,-1.8297,-1.6486,0.0,0.0,-1.022,-0.9776,-0.9751,0.0,0.0,0.0,0.0,0.0,0.0,0.0,0.0,0.0,0.0,0.0,0.0,0.0,0.0,0.0,0.0,0.0,-3.4221,-3.4197,-3.4173,-3.4173,-3.3968,-3.4012,-3.4269,-3.4043,-3.4018,-3.4148,-3.4099,-3.3697,-3.2957,-3.1987,-3.1172,-3.0448,-2.9542,-2.9209,-2.9293,-2.9251,-2.9251,-2.9293,-2.9297,-2.9299,-2.9319,-2.9533,-2.9606,-2.9678,-2.9867,-2.9867,-2.9784,-2.9853,-2.9855,-2.9839,-2.9839,-2.9872,-2.9872,-2.9698,-2.9209,-2.8695,-2.8607,-2.7536,-2.6289,-2.5716,-2.2789,-1.9631,-1.788,-1.6145,-1.4919,-1.4892,-1.4904,-1.465,-1.381,-1.3164,-1.2421,-1.1422,-1.0741,-1.0317,-1.0193,-1.018,-1.0188,-1.0205,-1.0193,-1.0131,-0.996,-1.0093,-1.0136,-1.0014,-1.0127,-1.0204,-1.0228,-1.027,-1.0273,-1.0212,-1.0266,-1.0269,-1.0202,-1.0194,-1.015,-1.0034,-1.0034,-0.9952,-2.3071,-2.3383,-2.3471,-2.3336,-2.2802,-2.1286,-1.7414,0.0,0.0,-1.06,-0.9765,-0.9684,-0.962,-0.9177,-0.9492,0.0,0.0,-1.4016,0.0,0.0,0.0,0.0,0.0,0.0,0.0,0.0,0.0,0.0,0.0,0.0,-3.3921,-3.3815,-3.3753,-3.3753,-3.3788,-3.3815,-3.3842,-3.3815,-3.3895,-3.4023,-3.378,-3.3419,-3.2957,-3.1675,-3.0858,-3.0426,-2.9216,0.0,0.0,-2.9097,-2.9141,-2.9293,-2.9293,-2.9316,-2.9299,-2.9339,-2.9379,-2.9418,-2.9457,-2.957,-2.9713,-2.9784,-2.9715,-2.9626,-2.9626,-2.977,-2.9888,-2.9872,-2.9946,-2.9808,-2.8856,-2.808,-2.6759,-2.3667,-2.1491,-1.9621,-1.7889,-1.6189,-1.496,-1.4919,-1.4902,-1.4629,-1.3766,-1.3599,-1.305,-1.1453,-1.1198,-1.0928,-1.0194,-1.0101,-1.0122,-1.0199,-1.0207,-0.9902,-0.9178,-0.9789,-0.9863,-0.9077,-0.9769,-1.0222,-1.0281,-1.0304,-1.0292,-1.0286,-1.0299,-1.0269,-1.0191,-1.0205,-1.0183,-1.0183,-1.0121,-1.0025,-2.1736,-2.1978,-2.1884,-2.2383,-2.0958,-1.8769,-1.6241,0.0,-1.2615,-1.0206,-0.9672,-0.9628,-0.9605,-0.9367,-0.9453,-1.0304,-1.167,0.0,0.0,0.0,0.0,0.0,0.0,0.0,0.0,0.0,0.0,0.0,0.0,0.0,-3.3726,-3.3671,-3.3559,-3.3397,-3.3309,-3.3357,-3.3549,-3.3386,-3.3444,-3.3698,-3.2972,-3.2411,-3.1998,-3.0899,-3.0125,-2.9613,-2.9067,0.0,0.0,-2.8863,-2.8815,-2.8892,-2.8892,-2.8874,-2.8897,-2.9056,-2.9144,-2.9188,-2.9297,-2.9495,-2.9697,-2.9713,-2.982,-2.9891,-2.9805,-2.9839,-2.9872,-2.9751,-2.9769,-2.9761,-2.9472,-2.8551,-2.7224,-2.5352,-2.2446,-1.9898,-1.9221,-1.692,-1.4987,-1.4963,-1.4919,-1.4655,-1.3865,-1.3308,-1.2583,-1.1437,-1.1283,-1.1014,-1.0202,-1.0106,-1.014,-1.0188,-1.0205,-1.0064,-0.9748,-1.0043,-0.9895,-0.9008,-0.974,-0.9995,-0.954,-1.0013,-1.029,-1.0293,-1.0308,-1.0279,-1.0205,-1.0191,-1.0195,-1.0191,-1.0121,-1.007,-2.0021,-2.0517,-2.0657,-2.1283,-1.9388,-1.6976,0.0,0.0,-1.1383,-0.9895,-0.9532,-0.9524,-0.9575,-0.9567,-0.955,-0.9508,-1.0891,-1.2212,0.0,0.0,0.0,0.0,0.0,0.0,0.0,0.0,0.0,0.0,0.0,0.0,-3.3386,-3.3444,-3.3444,-3.3309,-3.3178,-3.3226,-3.3452,-3.3256,-3.3189,-3.324,-3.2441,-3.1692,-3.0974,-3.0214,-2.9527,-2.8925,-2.8868,-2.8863,0.0,-2.8687,-2.8587,-2.8587,-2.8587,-2.8587,-2.8612,-2.8815,-2.8887,-2.891,-2.9038,-2.9275,-2.9494,-2.9495,-2.9643,-2.9872,-2.9855,-2.9905,-2.9921,-2.9786,-2.9716,-2.9677,-2.9618,-2.8779,-2.7782,-2.6963,-2.3373,-2.0194,-2.0432,-1.7221,-1.443,-1.4924,-1.4787,-1.4418,-1.3885,-1.3498,-1.2909,-1.1839,-1.1902,-1.1694,-1.0626,-1.0686,-1.0671,-1.0228,-1.018,-1.0078,-0.9833,-1.0098,-0.9898,-0.9054,-0.9768,-0.9984,-0.941,-0.9977,-1.0291,-1.0293,-1.0291,-1.0284,-1.0236,-1.0206,-1.0193,-1.02,-1.0157,-1.0124,-1.798,-1.925,-2.0264,-2.0152,-1.8589,-1.6666,0.0,0.0,-1.1164,-0.9622,-0.9312,-0.934,-0.9475,-0.9509,-0.9508,-0.95,-0.9567,-1.0422,0.0,0.0,0.0,0.0,0.0,0.0,0.0,0.0,0.0,0.0,0.0,0.0,-3.2916,-3.3117,-3.3309,-3.3605,-3.3587,-3.3587,-3.3605,-3.3605,-3.3268,-3.2621,-3.232,-3.1438,-3.0015,-2.9745,-2.9197,-2.8492,0.0,-2.8543,0.0,-2.8587,-2.8587,-2.8587,-2.8587,-2.8587,-2.8587,-2.8612,-2.8612,-2.8612,-2.8612,-2.8767,-2.9026,-2.8993,-2.9132,-2.9359,-2.9606,-2.9883,-3.0094,-3.0094,-2.9984,-2.9747,-2.9079,-2.8741,-2.8438,-2.7834,-2.3845,-2.0421,-2.1216,-1.6778,-1.3116,-1.4775,-1.4398,-1.3812,-1.3799,-1.4506,-1.4507,-1.2831,-1.3317,-1.3261,-1.1604,-1.2084,-1.1939,-1.0289,-1.0109,-0.978,-0.8974,-0.9712,-0.9865,-0.9056,-0.9808,-1.0301,-1.0293,-1.0293,-1.0293,-1.0291,-1.0307,-1.0305,-1.0305,-1.0227,-1.0201,-1.0209,-1.02,-1.016,-1.5039,-1.5499,-1.5581,-1.6183,-1.4727,-1.2998,-1.2474,-1.11,-0.981,-0.9264,-0.9159,-0.9206,-0.9347,-0.9366,-0.9189,-0.8688,-0.9564,-1.0329,0.0,0.0,0.0,0.0,0.0,0.0,0.0,0.0,0.0,0.0,0.0,0.0,-3.2916,-3.2961,-3.3024,-3.3117,-3.3117,-3.3117,-3.3117,-3.3117,-3.2841,-3.2246,-3.143,-3.0658,-2.999,-2.925,-2.8876,0.0,0.0,-2.8688,-2.8731,-2.8594,-2.8562,-2.8587,-2.8587,-2.8587,-2.8587,-2.8587,-2.8587,-2.8587,-2.8587,-2.8785,-2.9003,-2.8984,-2.9144,-2.9316,-2.9397,-2.9607,-2.9851,-3.0053,-3.0068,-2.9996,-2.9775,-2.9231,-2.8673,-2.8503,-2.5914,-2.2943,-2.0937,-1.8592,-1.6143,-1.3838,-1.3609,-1.343,-1.229,-1.2817,-1.3026,-1.194,-1.2982,-1.3511,-1.2425,-1.2478,-1.2401,-1.1878,-1.0786,-1.0028,-0.9812,-0.9487,-0.9196,-0.8955,-0.975,-0.9994,-0.9429,-0.9938,-1.0253,-1.0292,-1.0308,-1.0305,-1.0305,-1.0278,-1.025,-1.0199,-1.0191,-1.0193,0.0,-1.295,-1.3115,-1.3722,-1.2471,0.0,0.0,-1.0012,-0.9018,-0.9022,-0.9054,-0.9116,-0.9263,-0.9319,-0.9188,-0.8726,-0.952,0.0,0.0,0.0,0.0,0.0,0.0,0.0,0.0,0.0,0.0,0.0,0.0,0.0,-3.2916,-3.2916,-3.2916,-3.2916,-3.2916,-3.2916,-3.2916,-3.2612,-3.212,-3.148,-3.0545,-2.9815,-2.93,-2.8717,-2.8515,0.0,-2.859,-2.859,0.0,-2.8525,-2.8518,-2.8562,-2.8587,-2.8587,-2.8587,-2.8587,-2.8662,-2.8743,-2.8743,-2.8863,-2.9003,-2.9003,-2.9075,-2.9188,-2.9272,-2.9494,-2.9715,-2.9803,-2.9956,-3.0087,-2.9972,-2.9623,-2.9288,-2.9288,-2.7105,-2.4214,-2.1232,-1.8906,-1.6456,-1.3225,-1.2766,-1.2561,-1.1527,-1.2035,-1.2448,-1.1967,-1.3032,-1.3719,-1.3257,-1.3427,-1.3329,-1.2709,-1.1675,-1.1072,-1.1135,-1.0038,-0.9363,-0.9397,-0.9902,-0.9975,-0.9477,-0.9927,-1.0225,-1.0252,-1.0254,-1.0253,-1.0252,-1.0287,-1.0276,-1.0243,-1.0245,-1.0217,0.0,-1.1314,0.0,0.0,0.0,0.0,0.0,-0.9585,0.0,-0.8858,-0.8946,-0.9054,-0.9243,-0.9347,-0.9394,-0.9394,0.0,0.0,0.0,0.0,0.0,0.0,0.0,0.0,0.0,0.0,0.0,0.0,0.0,0.0,-3.2916,-3.2916,-3.288,-3.2813,-3.2827,-3.2827,-3.2827,-3.2063,-3.126,-3.0422,-2.9744,-2.8994,-2.8182,-2.8182,-2.8237,0.0,-2.83,-2.8327,-2.8398,-2.8458,-2.8492,-2.851,-2.8562,-2.8587,-2.8587,-2.8587,-2.8761,-2.898,-2.898,-2.898,-2.9003,-2.9026,-2.9026,-2.9071,-2.923,-2.9474,-2.9644,-2.9456,-2.9734,-3.0007,-2.9767,-2.9888,-3.0087,-3.0087,-2.7709,-2.4752,-2.2195,-1.8484,-1.5075,-1.3229,-1.2155,-1.1532,-1.1415,-1.207,-1.2602,-1.261,-1.3354,-1.3923,-1.3981,-1.47,-1.4612,-1.3036,-1.2762,-1.2728,-1.2767,-1.113,-1.0154,-1.0272,-1.023,-1.0207,-1.0206,-1.0193,-1.0191,-1.0208,-1.0202,-1.0209,-1.0193,-1.0252,-1.0303,-1.0296,-1.0298,-1.0272,-0.7904,0.0,-0.9331,-0.8789,-0.886,-0.9088,0.0,-0.8883,-0.8731,-0.8807,0.0,0.0,-0.9126,-0.9243,0.0,0.0,0.0,0.0,0.0,0.0,0.0,0.0,0.0,0.0,0.0,0.0,0.0,0.0,0.0,-3.2916,-3.2916,-3.2916,-3.263,-3.1992,-3.1974,-3.1974,-3.1974,-3.1778,-3.1011,-2.9672,-2.9494,-2.8994,-2.8182,-2.8182,-2.8209,-2.8209,-2.8209,-2.8246,-2.8327,-2.8353,-2.838,-2.8432,-2.851,-2.8518,-2.8536,-2.8587,-2.8637,-2.8687,-2.8687,-2.8815,-2.9026,-2.9185,-2.923,-2.923,-2.9293,-2.9334,-2.9415,-2.9514,-2.9644,-2.9698,-2.9626,-2.9786,-2.9956,-2.9956,-2.9349,-2.7926,-2.4816,-2.2369,-1.9697,-1.6124,-1.4246,-1.2837,-1.1541,-1.2025,-1.2405,-1.1791,-1.2997,-1.3981,-1.3994,-1.4748,-1.5101,-1.4599,-1.4008,-1.3646,-1.3557,-1.1422,-1.0383,-1.1065,-1.0483,-1.0157,-1.0197,-1.02,-1.019,-1.0191,-1.0191,-1.0203,-1.0209,-1.0215,-1.0249,-1.0303,-1.0298,-1.0295,-0.6328,-0.6804,-0.7401,-0.7353,-0.7675,-0.808,-0.8399,0.0,0.0,0.0,0.0,0.0,0.0,0.0,0.0,0.0,0.0,0.0,0.0,0.0,0.0,0.0,0.0,0.0,0.0,0.0,0.0,0.0,0.0,-3.2621,-3.2621,-3.2302,-3.1945,-3.1564,-3.1227,-3.1092,-3.1153,-3.0814,-3.0404,-2.9904,-2.9565,-2.9351,-2.928,-2.928,-2.928,-2.928,-2.928,-2.9262,-2.9301,-2.9364,-2.941,-2.9466,-2.953,-2.9323,-2.8999,-2.9078,-2.8927,-2.87,-2.8767,-2.8887,-2.9026,-2.9119,-2.9163,-2.9206,-2.9395,-2.9375,-2.9314,-2.9435,-2.9532,-2.9589,-2.9494,-2.9551,-2.9644,-2.9734,-2.9751,-2.8898,-2.5693,-2.3341,-2.063,-1.6489,-1.3995,-1.2306,-1.1489,-1.1699,-1.1997,-1.1992,-1.2772,-1.3494,-1.3899,-1.4367,-1.4787,-1.516,-1.4786,-1.4493,-1.4493,-1.2804,-1.1828,-1.1983,-1.1554,-1.1123,-1.0775,-1.075,-1.0573,-1.0205,-1.0205,-1.0203,-1.0198,-1.0191,-1.0215,-1.025,-1.0248,-1.0264,-0.5284,-0.5668,-0.6395,-0.6993,-0.7221,-0.7474,-0.815,0.0,0.0,0.0,0.0,0.0,0.0,0.0,0.0,0.0,0.0,0.0,0.0,0.0,0.0,0.0,0.0,0.0,0.0,0.0,0.0,0.0,0.0,-3.1967,-3.1967,-3.137,-3.1032,-3.1002,-3.0446,-3.0118,-3.0125,-2.9626,-2.9708,-3.0332,-2.9708,-2.9797,-3.0511,-3.0511,-3.0511,-3.0511,0.0,0.0,-3.0511,-3.0624,-3.0671,-3.0671,-3.0758,-3.0284,-2.9583,-2.9647,-2.929,-2.8761,-2.8915,-2.898,-2.9003,-2.9052,-2.9097,-2.9163,-2.9532,-2.9532,-2.9395,-2.9395,-2.9494,-2.957,-2.9395,-2.9355,-2.9395,-2.957,-2.9589,-2.8838,-2.6216,-2.3606,-2.0646,-1.682,-1.3977,-1.2114,-1.1795,-1.1713,-1.1877,-1.2419,-1.2565,-1.2839,-1.3446,-1.3629,-1.4077,-1.4994,-1.4973,-1.5012,-1.5224,-1.445,-1.3678,-1.3092,-1.282,-1.2357,-1.1628,-1.1606,-1.1272,-1.0586,-1.0595,-1.0598,-1.0608,-1.0599,-1.0596,-1.0605,-1.0605,-1.0621,-0.5221,-0.6048,-0.6864,-0.6463,-0.6836,-0.7486,-0.8224,0.0,0.0,0.0,0.0,0.0,0.0,0.0,0.0,0.0,0.0,0.0,0.0,0.0,0.0,0.0,0.0,0.0,0.0,0.0,0.0,0.0,0.0,-3.0454,-3.0454,-3.0331,-2.9962,-2.929,-2.9289,-2.8977,-2.8397,-2.9062,-2.9458,-2.9583,-2.9458,-2.9797,-3.0511,-3.0511,-3.0511,-3.0511,0.0,-3.0511,-3.0511,-3.0511,-3.0529,-3.0558,-3.0671,-3.0216,-2.951,-2.9583,-2.9134,-2.8492,-2.8737,-2.8897,-2.9071,-2.9395,-2.9513,-2.9551,-2.9769,-2.9839,-2.9822,-2.9822,-2.9698,-2.9589,-2.957,-2.9533,-2.957,-2.9589,-2.9474,-2.9225,-2.8723,-2.6637,-2.4055,-2.1421,-1.8945,-1.6415,-1.372,-1.3353,-1.2997,-1.1782,-1.2214,-1.2463,-1.186,-1.2436,-1.3199,-1.4036,-1.4102,-1.436,-1.4995,-1.5005,-1.4871,-1.4656,-1.3372,-1.2579,-1.2494,-1.2502,-1.2444,-1.2312,-1.2377,-1.2397,-1.2401,-1.2399,-1.2397,-1.2393,-1.2402,-1.2419,-0.5104,-0.5621,-0.6364,-0.7571,-0.8654,-0.9624,0.0,0.0,0.0,0.0,0.0,0.0,0.0,0.0,0.0,0.0,0.0,0.0,0.0,0.0,0.0,0.0,0.0,0.0,0.0,0.0,0.0,0.0,0.0,0.0,-2.9793,-2.941,-2.9042,-2.8753,-2.8395,-2.8117,-2.7836,-2.8351,-2.8891,-2.9405,-2.9797,-3.0404,-3.1171,-3.1599,-3.1796,-3.1796,0.0,-3.1796,-3.1796,-3.1796,-3.1796,-3.1796,-3.1844,-3.1142,-2.9944,-2.9187,-2.8676,-2.8406,-2.8525,-2.8651,-2.8773,-2.9064,-2.9233,-2.9314,-2.9494,-2.9589,-2.9608,-2.9698,-2.9681,-2.9608,-2.9608,-2.9435,-2.9293,-2.9415,-2.9272,-2.9163,-2.9272,-2.7263,-2.4617,-2.1829,-1.9258,-1.6682,-1.4017,-1.3278,-1.2787,-1.2053,-1.1946,-1.1805,-1.1393,-1.1695,-1.2418,-1.3666,-1.3721,-1.4042,-1.4916,-1.4957,-1.4965,-1.5042,-1.3869,-1.3238,-1.3345,-1.2892,-1.2655,-1.2692,-1.2722,-1.2749,-1.2743,-1.2775,-1.2798,-1.2803,-1.2798,-1.2557,-0.508,-0.5691,-0.6689,-0.8776,-0.9796,0.0,0.0,0.0,0.0,0.0,0.0,0.0,0.0,0.0,0.0,0.0,0.0,0.0,0.0,0.0,0.0,0.0,0.0,0.0,0.0,0.0,0.0,0.0,0.0,0.0,-2.8989,-2.8454,-2.8192,-2.8285,-2.7761,-2.7539,-2.7642,-2.7836,-2.8386,-2.9347,-2.9946,-3.0761,-3.1706,-3.2331,-3.2706,-3.2916,-3.2916,-3.2916,-3.2916,-3.2916,-3.2809,-3.263,-3.263,-3.1635,-3.0083,-2.8764,-2.83,-2.8398,-2.8398,-2.8406,-2.8518,-2.8694,-2.8855,-2.8984,-2.9188,-2.9233,-2.9293,-2.9436,-2.9475,-2.9514,-2.9644,-2.9375,-2.9097,-2.9251,-2.9141,-2.9026,-2.9119,-2.7558,-2.5271,-2.2293,-1.9669,-1.7229,-1.499,-1.3698,-1.2908,-1.2708,-1.204,-1.1546,-1.1541,-1.1383,-1.1882,-1.3508,-1.3586,-1.3917,-1.4867,-1.4804,-1.4794,-1.5028,-1.4403,-1.4093,-1.423,-1.358,-1.3253,-1.3311,-1.3303,-1.3311,-1.3314,-1.336,-1.3396,-1.3403,-1.3413,-1.3047,-0.528,-0.7155,-0.9133,-0.9263,-0.8388,0.0,-1.1582,-1.1303,0.0,-1.2091,0.0,0.0,0.0,0.0,0.0,0.0,0.0,0.0,0.0,0.0,0.0,0.0,0.0,0.0,0.0,0.0,0.0,0.0,0.0,0.0,-2.7454,-2.7402,-2.7368,-2.74,-2.7469,-2.7496,-2.7509,-2.7642,-2.8176,-2.9119,-2.9354,-3.0261,-3.1689,-3.176,-3.2188,-3.2916,-3.2916,-3.2916,-3.2916,-3.2916,-3.2456,-3.1778,-3.1778,-3.0832,-2.9387,-2.853,-2.8264,-2.83,-2.83,-2.8353,-2.8458,-2.8646,-2.8724,-2.8772,-2.9042,-2.9107,-2.9126,-2.9129,-2.9148,-2.9256,-2.9751,-2.9589,-2.9272,-2.9293,-2.9141,-2.8934,-2.8694,-2.8492,-2.7641,-2.5179,-2.2884,-2.0609,-1.8269,-1.606,-1.4379,-1.3626,-1.2832,-1.2298,-1.2245,-1.1635,-1.1818,-1.3449,-1.3591,-1.3927,-1.4736,-1.4737,-1.4734,-1.4813,-1.4985,-1.5129,-1.5202,-1.5134,-1.5104,-1.5117,-1.5113,-1.5105,-1.5109,-1.5112,-1.5154,-1.5203,-1.5207,-1.5151,-0.6371,-0.7938,-0.942,-0.9813,-0.953,0.0,0.0,-1.3517,-1.355,-1.4163,-1.4796,0.0,0.0,0.0,0.0,0.0,0.0,0.0,0.0,0.0,0.0,0.0,0.0,0.0,0.0,0.0,0.0,0.0,0.0,0.0,-2.7299,-2.7299,-2.7299,-2.7299,-2.7345,-2.7376,-2.7376,-2.7496,-2.7739,-2.8097,-2.877,-2.9437,-3.0095,-3.0592,-3.1044,-3.1403,-3.1403,-3.1403,-3.1403,-3.1403,-3.1225,-3.0921,-3.0457,-2.9904,-2.9298,-2.8513,-2.8209,-2.8237,-2.8237,-2.8273,-2.8353,-2.8422,-2.8482,-2.8525,-2.8633,-2.8676,-2.8682,-2.8814,-2.8761,-2.8779,-2.9277,-2.9172,-2.8975,-2.9082,-2.885,-2.8644,-2.8712,-2.8637,-2.7838,-2.5461,-2.3151,-2.0822,-1.841,-1.5717,-1.3754,-1.3466,-1.3142,-1.2947,-1.2938,-1.2677,-1.2938,-1.404,-1.423,-1.4381,-1.4651,-1.4728,-1.4766,-1.4804,-1.4865,-1.495,-1.5114,-1.5151,-1.5206,-1.5298,-1.5295,-1.5303,-1.5307,-1.5295,-1.5303,-1.5333,-1.5342,-1.5065,-0.7054,-0.8138,-0.9215,-1.008,0.0,0.0,-1.4131,-1.4707,-1.4984,-1.6133,-1.6725,0.0,0.0,0.0,0.0,0.0,0.0,0.0,0.0,0.0,0.0,0.0,0.0,0.0,0.0,0.0,0.0,0.0,0.0,0.0,0.0,-2.7299,-2.7299,-2.7299,-2.7299,-2.7299,-2.7299,-2.739,-2.7452,-2.7452,-2.8097,-2.8631,-2.9136,-2.9667,-3.013,-3.0511,-3.0511,-3.0511,-3.0511,-3.0511,-3.0368,-3.0083,-2.9333,-2.903,-2.8959,-2.8405,-2.8182,-2.8182,-2.8182,-2.8237,-2.8273,-2.8273,-2.8318,-2.8345,-2.8345,-2.8345,-2.838,-2.8489,-2.8448,-2.8406,-2.8713,-2.8766,-2.8748,-2.8883,-2.8688,-2.8543,-2.8662,-2.8562,-2.798,-2.6387,-2.4169,-2.1894,-1.9721,-1.6787,-1.4581,-1.4068,-1.382,-1.375,-1.3996,-1.4033,-1.4272,-1.4818,-1.4733,-1.4622,-1.4581,-1.466,-1.4747,-1.4738,-1.4699,-1.4776,-1.496,-1.5021,-1.5127,-1.524,-1.5255,-1.5278,-1.5306,-1.5295,-1.5307,-1.5295,-1.5295,-1.5015,-0.7114,-0.7749,0.0,0.0,0.0,0.0,-1.472,-1.4278,-1.4326,-1.7815,0.0,0.0,0.0,0.0,0.0,0.0,0.0,0.0,0.0,0.0,0.0,0.0,0.0,0.0,0.0,0.0,0.0,0.0,0.0,0.0,0.0,-2.7299,-2.7299,-2.7299,-2.7299,-2.7299,-2.7299,-2.7299,-2.7299,-2.7299,-2.7299,-2.7944,-2.9071,-2.9071,-2.9597,-3.0493,-3.0493,-3.0493,-3.0493,-3.0493,-3.0047,-2.9315,-2.853,-2.8182,-2.8182,-2.8182,-2.8182,-2.8182,-2.8182,-2.8182,-2.8182,-2.8182,-2.8182,-2.8182,-2.8182,-2.8182,-2.8182,-2.8182,-2.8182,-2.8182,-2.8182,-2.8456,-2.87,-2.87,-2.87,-2.8646,-2.844,-2.8398,-2.8398,-2.8398,-2.65,-2.4401,-2.2758,-1.9939,-1.7376,-1.5746,-1.4946,-1.4806,-1.5537,-1.5678,-1.5722,-1.5722,-1.4995,-1.4504,-1.4504,-1.4567,-1.46,-1.46,-1.4658,-1.4757,-1.4895,-1.4954,-1.5028,-1.5094,-1.5163,-1.5236,-1.5303,-1.5303,-1.5289,-1.5298,-1.5298,-1.5295,-0.7688,0.0,0.0,0.0,0.0,0.0,0.0,-1.6018,0.0,0.0,0.0,0.0,0.0,0.0,0.0,0.0,0.0,0.0,0.0,0.0,0.0,0.0,0.0,0.0,0.0,0.0,0.0,0.0,0.0,0.0,0.0,-2.7299,-2.7299,-2.7299,-2.7299,-2.7299,-2.7299,-2.7299,-2.7299,-2.7299,-2.7299,-2.7542,-2.7979,-2.7979,-2.8252,-2.8745,-2.8745,-2.8802,-2.8859,-2.8859,-2.8734,-2.852,-2.8271,-2.8182,-2.8182,-2.8182,-2.8182,-2.8182,-2.8182,-2.8182,-2.8182,-2.8182,-2.8182,-2.8182,-2.8182,-2.8182,-2.8182,-2.8182,-2.8182,-2.8182,-2.8182,-2.8273,-2.837,-2.8525,-2.8448,-2.8388,-2.851,-2.8432,-2.8353,-2.838,-2.65,-2.4222,-2.21,-1.9993,-1.7866,-1.5753,-1.6215,-1.6925,-1.7173,-1.7242,-1.7053,-1.6534,-1.5788,-1.5319,-1.5288,-1.4823,-1.4526,-1.4526,-1.456,-1.4627,-1.4757,-1.4865,-1.4942,-1.4965,-1.5069,-1.5139,-1.5152,-1.5255,-1.5308,-1.5289,-1.5289,-1.5298,-0.8238,0.0,0.0,0.0,0.0,0.0,0.0,0.0,0.0,0.0,0.0,0.0,0.0,0.0,0.0,0.0,0.0,0.0,0.0,0.0,0.0,0.0,0.0,0.0,0.0,0.0,0.0,0.0,0.0,0.0,0.0,-2.7299,-2.7299,-2.7299,-2.7299,-2.7299,-2.7299,-2.7299,-2.7299,-2.7299,-2.7299,-2.7345,-2.7421,-2.7465,-2.7647,-2.7911,-2.7968,-2.8071,-2.8182,-2.8182,-2.8182,-2.8182,-2.8182,-2.8182,-2.8182,-2.8182,-2.8182,-2.8182,-2.8182,-2.8182,-2.8182,-2.8182,-2.8182,-2.8182,-2.8182,-2.8182,-2.8182,-2.8182,-2.8182,-2.8182,-2.8182,-2.8182,-2.8237,-2.8353,-2.8291,-2.8237,-2.8424,-2.8345,-2.8291,-2.8318,-2.7197,-2.5566,-2.3504,-2.1301,-1.9219,-1.7446,-1.7496,-1.7851,-1.8258,-1.8039,-1.769,-1.7278,-1.657,-1.6008,-1.5678,-1.5233,-1.4846,-1.4556,-1.4537,-1.4581,-1.465,-1.4757,-1.4831,-1.4849,-1.4965,-1.5033,-1.5059,-1.5133,-1.5204,-1.5264,-1.526,-1.527,-0.8831,0.0,0.0,0.0,0.0,0.0,0.0,0.0,0.0,0.0,0.0,0.0,0.0,0.0,0.0,0.0,0.0,0.0,0.0,0.0,0.0,0.0,0.0,0.0,0.0,0.0,0.0,0.0,0.0,0.0,0.0,-2.7299,-2.7299,-2.7299,-2.7299,-2.7299,-2.7299,-2.7299,-2.7299,-2.7299,-2.7299,-2.7299,-2.7282,-2.7421,-2.7539,-2.7701,-2.7911,-2.8071,-2.8182,-2.8182,-2.8182,-2.8182,-2.8182,-2.8182,-2.8182,-2.8182,-2.8182,-2.8182,-2.8182,-2.8182,-2.8182,-2.8182,-2.8182,-2.8182,-2.8182,-2.8182,-2.8182,-2.8182,-2.8182,-2.8182,-2.8182,-2.8182,-2.8182,-2.8182,-2.8182,-2.8182,-2.8182,-2.8182,-2.8182,-2.8182,-2.8182,-2.7665,-2.5974,-2.3302,-2.1041,-1.9963,-1.861,-1.8002,-1.8806,-1.8318,-1.7918,-1.798,-1.7333,-1.6611,-1.5953,-1.5826,-1.5472,-1.4744,-1.47,-1.4663,-1.46,-1.4658,-1.4718,-1.4775,-1.4859,-1.4911,-1.4965,-1.4985,-1.5061,-1.5178,-1.5176,-1.5224,0.0,-1.1499,0.0,0.0,0.0,0.0,0.0,0.0,0.0,0.0,0.0,0.0,0.0,0.0,0.0,0.0,0.0,0.0,0.0,0.0,0.0,0.0,0.0,0.0,0.0,0.0,0.0,0.0,0.0,0.0,-2.7299,-2.7299,-2.7299,-2.7299,-2.7299,-2.7299,-2.7299,-2.7299,-2.7299,-2.7299,-2.7299,-2.7299,-2.7299,-2.7313,-2.7421,-2.7539,-2.7719,-2.7864,-2.8042,-2.8042,-2.8099,-2.8182,-2.8182,-2.8182,-2.8182,-2.8182,-2.8182,-2.8182,-2.8182,-2.8182,-2.8182,-2.8182,-2.8182,-2.8182,-2.8182,-2.8182,-2.8182,-2.8182,-2.8182,-2.8182,-2.8182,-2.8182,-2.8182,-2.8182,-2.8182,-2.8182,-2.8182,-2.8182,-2.8182,-2.8182,-2.8182,-2.7504,-2.5312,-2.3832,-2.205,-1.943,-1.8752,-1.8628,-1.8877,-1.877,-1.8663,-1.868,-1.7927,-1.7403,-1.7336,-1.6766,-1.6146,-1.5496,-1.5454,-1.5202,-1.4607,-1.4603,-1.4632,-1.4643,-1.4766,-1.4804,-1.4766,-1.4863,-1.4954,-1.5042,-1.5045,-1.5075,0.0,0.0,0.0,0.0,0.0,0.0,0.0,0.0,0.0,0.0,0.0,0.0,0.0,0.0,0.0,0.0,0.0,0.0,0.0,0.0,0.0,0.0,0.0,0.0,0.0,0.0,0.0,0.0,0.0,-2.7299,-2.7299,-2.7299,-2.7299,-2.7299,-2.7299,-2.7299,-2.7299,-2.7299,-2.7299,-2.7299,-2.7299,-2.7299,-2.7282,-2.7376,-2.7513,-2.7736,-2.7806,-2.7893,-2.7996,-2.8071,-2.8099,-2.8099,-2.8182,-2.8182,-2.8182,-2.8182,-2.8182,-2.8182,-2.8182,-2.8182,-2.8182,-2.8182,-2.8182,-2.8182,-2.8182,-2.8182,-2.8182,-2.8182,-2.8182,-2.8182,-2.8182,-2.8182,-2.8182,-2.8182,-2.8182,-2.8182,-2.8182,-2.8182,-2.8182,-2.8182,-2.8182,-2.779,-2.6603,-2.4717,-2.2469,-1.9729,-1.8963,-1.8752,-1.8825,-1.8861,-1.8861,-1.8896,-1.8485,-1.809,-1.773,-1.7381,-1.6881,-1.6169,-1.6187,-1.5892,-1.5159,-1.5122,-1.4961,-1.4611,-1.4668,-1.4708,-1.4698,-1.4776,-1.4839,-1.4911,-1.4936,-1.5,0.0,0.0,0.0,0.0,0.0,0.0,0.0,0.0,0.0,0.0,0.0,0.0,0.0,0.0,0.0,0.0,0.0,0.0,0.0,0.0,0.0,0.0,0.0,0.0,0.0,0.0,0.0,0.0,0.0,-2.725,-2.7299,-2.7299,-2.7299,-2.7299,-2.7299,-2.7299,-2.7299,-2.7299,-2.7299,-2.7299,-2.7299,-2.7313,-2.7345,-2.7452,-2.7647,-2.7911,-2.7911,-2.7957,-2.8014,-2.8126,-2.8126,-2.8042,-2.8126,-2.8154,-2.8154,-2.8154,-2.8154,-2.8154,-2.8182,-2.8182,-2.8182,-2.8182,-2.8182,-2.8182,-2.8182,-2.8182,-2.8182,-2.8182,-2.8182,-2.8182,-2.8182,-2.8182,-2.8182,-2.8182,-2.8182,-2.8182,-2.8182,-2.8182,-2.8182,-2.8182,-2.8182,-2.8093,-2.7825,-2.5572,-2.2967,-2.0474,-1.9475,-1.898,-1.8823,-1.8788,-1.8806,-1.8861,-1.8861,-1.8574,-1.7878,-1.7909,-1.7633,-1.6835,-1.6907,-1.6652,-1.5885,-1.5764,-1.5411,-1.4803,-1.4659,-1.4616,-1.4677,-1.4678,-1.4718,-1.4776,-1.4832,-1.4894,0.0,0.0,0.0,0.0,0.0,0.0,0.0,0.0,0.0,0.0,0.0,0.0,0.0,0.0,0.0,0.0,0.0,0.0,0.0,0.0,0.0,0.0,0.0,0.0,0.0,0.0,0.0,0.0,-2.6858,-2.6973,-2.7282,-2.7299,-2.7299,-2.7299,-2.7299,-2.7299,-2.7299,-2.7299,-2.7299,-2.7299,-2.7299,-2.7376,-2.7465,-2.7496,-2.7526,-2.7557,-2.7557,-2.7736,-2.8014,-2.8014,-2.8099,-2.8154,-2.8071,-2.8042,-2.8042,-2.8042,-2.8042,-2.8042,-2.8154,-2.8182,-2.8182,-2.8182,-2.8182,-2.8182,-2.8182,-2.8182,-2.8182,-2.8182,-2.8182,-2.8182,-2.8182,-2.8182,-2.8182,-2.8182,-2.8182,-2.8182,-2.8182,-2.8182,-2.8182,-2.8182,-2.8182,-2.7754,-2.6371,-2.5765,-2.4438,-2.139,-2.0838,-2.0285,-1.8966,-1.8752,-1.8715,-1.8715,-1.8678,-1.8643,-1.8627,-1.861,-1.8289,-1.7603,-1.7632,-1.7318,-1.6515,-1.5986,-1.5649,-1.5564,-1.4929,-1.4581,-1.4537,-1.46,-1.4614,-1.4627,-1.4703,-1.4764,0.0,0.0,0.0,0.0,0.0,0.0,0.0,0.0,0.0,0.0,0.0,0.0,0.0,0.0,0.0,0.0,0.0,0.0,0.0,0.0,0.0,0.0,0.0,0.0,0.0,0.0,0.0,0.0,-2.659,-2.6624,-2.6792,-2.6792,-2.6842,-2.7023,-2.7023,-2.7105,-2.7299,-2.7299,-2.7299,-2.7299,-2.7299,-2.7313,-2.7407,-2.7407,-2.7544,-2.7766,-2.7766,-2.7853,-2.8014,-2.8071,-2.8042,-2.7922,-2.7968,-2.794,-2.7836,-2.7836,-2.7836,-2.7836,-2.7893,-2.7922,-2.7922,-2.7922,-2.7996,-2.8099,-2.8099,-2.8126,-2.8182,-2.8182,-2.8182,-2.8182,-2.8182,-2.8182,-2.8182,-2.8182,-2.8182,-2.8182,-2.8182,-2.8182,-2.8182,-2.8182,-2.8182,-2.7968,-2.7281,-2.6407,-2.5051,-2.2785,-2.1679,-2.0537,-1.8984,-1.877,-1.8752,-1.8715,-1.866,-1.8659,-1.8696,-1.8733,-1.861,-1.8271,-1.8359,-1.8034,-1.7191,-1.6974,-1.665,-1.621,-1.5147,-1.456,-1.4504,-1.4526,-1.4537,-1.4537,-1.4567,-1.4651,0.0,0.0,0.0,0.0,0.0,0.0,0.0,0.0,0.0,0.0,0.0,0.0,0.0,0.0,0.0,0.0,0.0,0.0,0.0,0.0,0.0,0.0,0.0,0.0,0.0,0.0,0.0,0.0,-2.6227,-2.6279,-2.6383,-2.6418,-2.6505,-2.6774,-2.6808,-2.6973,-2.7299,-2.7299,-2.7299,-2.7299,-2.7299,-2.7299,-2.7299,-2.7299,-2.7513,-2.7882,-2.7882,-2.7882,-2.794,-2.8025,-2.7968,-2.7806,-2.7911,-2.7864,-2.776,-2.773,-2.7701,-2.7701,-2.7701,-2.7701,-2.7701,-2.7701,-2.7806,-2.794,-2.794,-2.7996,-2.8053,-2.8053,-2.8053,-2.8053,-2.8053,-2.8126,-2.8208,-2.8375,-2.8457,-2.8459,-2.8235,-2.8182,-2.8182,-2.8182,-2.8182,-2.8182,-2.8182,-2.721,-2.5747,-2.3802,-2.2504,-2.1039,-1.9093,-1.8664,-1.8592,-1.8735,-1.8574,-1.8502,-1.8642,-1.8733,-1.8752,-1.8715,-1.8824,-1.8574,-1.7914,-1.7802,-1.7471,-1.6859,-1.5686,-1.4983,-1.4774,-1.4584,-1.4492,-1.4488,-1.4488,-1.4563,0.0,0.0,0.0,0.0,0.0,0.0,0.0,0.0,0.0,0.0,0.0,0.0,0.0,0.0,0.0,0.0,0.0,0.0,0.0,0.0,0.0,0.0,0.0,0.0,0.0,0.0,0.0,0.0,-2.5738,-2.5905,-2.6383,-2.6418,-2.6505,-2.6774,-2.6808,-2.6973,-2.7299,-2.7299,-2.7299,-2.7299,-2.7299,-2.7299,-2.7299,-2.7299,-2.7376,-2.7526,-2.7526,-2.76,-2.773,-2.773,-2.7836,-2.7968,-2.7806,-2.7836,-2.7968,-2.776,-2.7701,-2.7701,-2.7701,-2.7701,-2.7701,-2.7701,-2.7701,-2.773,-2.773,-2.773,-2.773,-2.773,-2.773,-2.773,-2.773,-2.7864,-2.8191,-2.8888,-2.92,-2.9137,-2.8342,-2.8182,-2.8182,-2.8182,-2.8182,-2.8182,-2.8182,-2.8128,-2.7049,-2.405,-2.3513,-2.2392,-1.9381,-1.8266,-1.8053,-1.8824,-1.8197,-1.802,-1.8734,-1.8752,-1.8715,-1.8697,-1.8769,-1.877,-1.8662,-1.8037,-1.7659,-1.7538,-1.6781,-1.611,-1.5537,-1.4848,-1.4492,-1.4488,-1.4488,-1.4499,0.0,0.0,0.0,0.0,0.0,0.0,0.0,0.0,0.0,0.0,0.0,0.0,0.0,0.0,0.0,0.0,0.0,0.0,0.0,0.0,0.0,0.0,0.0,0.0,0.0,0.0,0.0,0.0,0.0,-2.553,-2.568,-2.5807,-2.601,-2.6279,-2.6453,-2.6775,-2.7299,-2.7299,-2.7169,-2.6973,-2.7218,-2.7186,-2.6973,-2.7218,-2.7313,-2.7376,-2.7376,-2.7496,-2.7701,-2.7701,-2.7689,-2.7677,-2.76,-2.7557,-2.7544,-2.7483,-2.7434,-2.7434,-2.7434,-2.7764,-2.8164,-2.8164,-2.8557,-2.9054,-2.9054,-2.9117,-2.9193,-2.9193,-2.9193,-2.9193,-2.9193,-2.9224,-2.9343,-2.9607,-2.9739,-2.9717,-2.9417,-2.9515,-2.969,-2.969,-2.9298,-2.8976,-2.8976,-2.8548,-2.7478,-2.5325,-2.4193,-2.2823,-2.0689,-1.92,-1.8485,-1.8789,-1.795,-1.7698,-1.8491,-1.8124,-1.8036,-1.8489,-1.8641,-1.8696,-1.8638,-1.8448,-1.8306,-1.8252,-1.7557,-1.6884,-1.6236,-1.5496,-1.5165,-1.5184,-1.4714,-1.4488,0.0,0.0,0.0,0.0,0.0,0.0,0.0,0.0,0.0,0.0,0.0,0.0,0.0,0.0,0.0,0.0,0.0,0.0,0.0,0.0,0.0,0.0,0.0,0.0,0.0,0.0,0.0,0.0,0.0,0.0,-2.5294,-2.541,-2.5637,-2.599,-2.6243,-2.659,-2.699,-2.7007,-2.6892,-2.6691,-2.6875,-2.6875,-2.6674,-2.6892,-2.7007,-2.7007,-2.7007,-2.7215,-2.7569,-2.7569,-2.7539,-2.7496,-2.7496,-2.7434,-2.7313,-2.7508,-2.7497,-2.7466,-2.7756,-2.8168,-2.8613,-2.8731,-2.9177,-2.9693,-2.9693,-2.9742,-2.9824,-2.9824,-2.9824,-2.9791,-2.9674,-2.9899,-3.0174,-3.0241,-3.0499,-3.0758,-3.0758,-3.0578,-3.0439,-3.0439,-3.006,-2.9779,-2.9779,-2.9333,-2.8352,-2.6496,-2.5392,-2.3894,-2.1488,-1.9964,-1.8999,-1.8695,-1.7783,-1.7528,-1.8296,-1.7974,-1.7887,-1.831,-1.8467,-1.8526,-1.854,-1.8582,-1.8603,-1.8601,-1.8163,-1.7718,-1.7281,-1.6345,-1.576,-1.5559,-1.5093,-1.4733,0.0,0.0,0.0,0.0,0.0,0.0,0.0,0.0,0.0,0.0,0.0,0.0,0.0,0.0,0.0,0.0,0.0,0.0,0.0,0.0,0.0,0.0,0.0,0.0,0.0,0.0,0.0,0.0,-2.4558,-2.4775,-2.5256,-2.5294,-2.5508,-2.5974,-2.6243,-2.6383,-2.6418,-2.6418,-2.6383,-2.6383,-2.6383,-2.6383,-2.6383,-2.6383,-2.6418,-2.6418,-2.6418,-2.6742,-2.725,-2.725,-2.7359,-2.7465,-2.7531,-2.7434,-2.7393,-2.7909,-2.7947,-2.7857,-2.8708,-2.9016,-2.9068,-2.9385,-2.9524,-2.9541,-2.9541,-2.9541,-2.9541,-2.9541,-2.9541,-2.9489,-2.9138,-2.9809,-3.0573,-3.0715,-3.1533,-3.2283,-3.2283,-3.1258,-3.0331,-3.0362,-3.0432,-3.0517,-3.0517,-3.0499,-2.9744,-2.7531,-2.7137,-2.5672,-2.1714,-2.0459,-1.9544,-1.8522,-1.7689,-1.7491,-1.822,-1.8273,-1.8252,-1.8187,-1.8187,-1.8266,-1.8385,-1.8385,-1.8463,-1.8596,-1.8596,-1.86,-1.8585,-1.7265,-1.6266,-1.5583,-1.5577,-1.5203,-0.9882,0.0,0.0,0.0,0.0,0.0,0.0,0.0,0.0,0.0,0.0,0.0,0.0,0.0,0.0,0.0,0.0,0.0,0.0,0.0,0.0,0.0,0.0,0.0,0.0,0.0,0.0,0.0,-2.3802,-2.4155,-2.4775,-2.5123,-2.547,-2.5775,-2.601,-2.6208,-2.6418,-2.6418,-2.6314,-2.6118,-2.6314,-2.6279,-2.6118,-2.6314,-2.6418,-2.6418,-2.6418,-2.6487,-2.664,-2.664,-2.6808,-2.704,-2.7637,-2.7959,-2.8144,-2.8596,-2.8676,-2.8655,-2.8693,-2.9055,-2.953,-2.9606,-2.9998,-3.0437,-3.0437,-3.0437,-3.0514,-3.0721,-3.0796,-3.0834,-3.0999,-3.1227,-3.1436,-3.1472,-3.1537,-3.1582,-3.1582,-3.1403,-3.1324,-3.1686,-3.1364,-3.1026,-3.1026,-3.0645,-3.0153,-2.9515,-2.8138,-2.6305,-2.3869,-2.1918,-2.019,-1.8707,-1.7652,-1.7376,-1.8159,-1.77,-1.7569,-1.8035,-1.8142,-1.8187,-1.817,-1.8328,-1.8385,-1.8368,-1.854,-1.8598,-1.86,-1.7684,-1.7231,-1.714,-1.6092,-1.5203,0.0,0.0,0.0,0.0,0.0,0.0,-1.2439,-1.3723,0.0,0.0,0.0,0.0,0.0,0.0,0.0,0.0,0.0,0.0,0.0,0.0,0.0,0.0,0.0,0.0,0.0,-2.2286,-2.2455,-2.284,-2.2987,-2.3414,-2.4122,-2.4507,-2.4958,-2.553,-2.5659,-2.5828,-2.6046,-2.6082,-2.599,-2.586,-2.5974,-2.5974,-2.5844,-2.5974,-2.6082,-2.6082,-2.6082,-2.6082,-2.6082,-2.6082,-2.6279,-2.6725,-2.7502,-2.7824,-2.796,-2.879,-2.9025,-2.896,-2.9198,-2.958,-2.9969,-3.0129,-3.0453,-3.0804,-3.0804,-3.0804,-3.0828,-3.1044,-3.1083,-3.114,-3.1334,-3.1504,-3.1579,-3.1579,-3.1466,-3.1334,-3.1466,-3.1487,-3.1582,-3.1949,-3.183,-3.1652,-3.1652,-3.1384,-3.1044,-3.0727,-2.9692,-2.7814,-2.4664,-2.3212,-2.1414,-1.865,-1.7786,-1.7597,-1.8065,-1.7637,-1.7365,-1.7446,-1.7821,-1.7924,-1.7659,-1.8028,-1.8243,-1.8211,-1.8307,-1.8385,-1.8426,-1.8123,-1.7879,-1.7692,-1.6552,-1.5618,0.0,0.0,0.0,0.0,0.0,0.0,-1.3418,-1.3987,-1.474,0.0,0.0,0.0,0.0,0.0,0.0,0.0,0.0,0.0,0.0,0.0,0.0,0.0,0.0,0.0,-2.207,-2.207,-2.2101,-2.2178,-2.2255,-2.2624,-2.3421,-2.373,-2.4252,-2.5073,-2.5246,-2.5371,-2.5578,-2.5578,-2.5616,-2.5616,-2.5616,-2.5616,-2.5616,-2.5616,-2.5616,-2.5616,-2.5616,-2.5616,-2.5616,-2.5616,-2.5881,-2.6432,-2.7267,-2.7437,-2.7432,-2.8787,-2.9165,-2.9111,-2.9969,-3.0267,-3.0309,-3.0601,-3.0683,-3.0683,-3.0683,-3.0683,-3.0723,-3.0723,-3.0764,-3.0804,-3.0804,-3.1004,-3.1257,-3.1257,-3.1257,-3.1334,-3.1617,-3.1466,-3.1372,-3.1545,-3.1913,-3.2179,-3.2179,-3.2179,-3.1952,-3.1305,-3.123,-2.9562,-2.4787,-2.4243,-2.2705,-1.854,-1.8034,-1.7971,-1.7885,-1.7827,-1.7523,-1.6868,-1.7439,-1.7594,-1.7116,-1.7671,-1.8035,-1.8107,-1.8027,-1.8086,-1.8208,-1.8469,-1.827,-1.7575,-1.699,-1.6323,0.0,0.0,0.0,0.0,0.0,0.0,-1.1057,-1.1359,-1.1897,0.0,0.0,0.0,0.0,0.0,0.0,0.0,0.0,0.0,0.0,0.0,0.0,0.0,0.0,0.0,-2.0705,-2.0705,-2.0921,-2.146,-2.1993,-2.2385,-2.2547,-2.3266,-2.374,-2.392,-2.4837,-2.5333,-2.5371,-2.554,-2.5616,-2.5616,-2.5616,-2.5616,-2.5616,-2.5616,-2.5616,-2.5616,-2.5616,-2.5616,-2.5616,-2.5616,-2.5787,-2.6214,-2.7519,-2.8146,-2.8465,-2.965,-3.0053,-3.0002,-2.9968,-2.9973,-2.9989,-3.006,-3.0076,-3.0076,-3.0076,-3.0076,-3.0146,-3.0351,-3.0584,-3.0804,-3.0804,-3.0845,-3.0885,-3.0885,-3.0885,-3.0925,-3.0965,-3.1179,-3.1295,-3.1372,-3.1449,-3.1487,-3.1487,-3.1393,-3.1304,-3.1151,-3.0754,-2.9367,-2.6369,-2.465,-2.239,-1.9019,-1.8211,-1.7702,-1.7161,-1.7543,-1.7743,-1.7591,-1.7771,-1.781,-1.7635,-1.7911,-1.8082,-1.8095,-1.8086,-1.8149,-1.829,-1.8547,-1.827,-1.7524,-1.7449,-1.7046,0.0,0.0,0.0,-1.0474,0.0,0.0,0.0,-1.1535,-1.1953,-1.319,0.0,0.0,0.0,0.0,0.0,0.0,0.0,0.0,0.0,0.0,0.0,0.0,0.0,0.0,-2.0304,-2.0304,-2.0443,-2.0782,-2.1121,-2.146,-2.1763,-2.2214,-2.28,-2.3585,-2.4139,-2.4696,-2.5139,-2.5256,-2.5294,-2.5294,-2.5294,-2.5333,-2.5448,-2.5448,-2.5502,-2.5616,-2.5616,-2.5616,-2.5616,-2.5616,-2.5902,-2.6461,-2.7522,-2.8279,-2.8803,-2.9763,-3.0087,-3.0087,-2.9946,-2.9918,-2.9918,-2.9918,-2.9918,-2.9918,-2.9918,-2.9918,-2.9946,-3.0044,-3.0309,-3.0543,-3.0543,-3.0666,-3.0804,-3.0804,-3.0666,-3.0601,-3.0747,-3.0804,-3.0885,-3.1257,-3.1179,-3.1083,-3.1257,-3.124,-3.1123,-3.0965,-3.0784,-2.9736,-2.7222,-2.5847,-2.374,-2.0176,-1.9201,-1.838,-1.7342,-1.7552,-1.758,-1.7209,-1.7657,-1.7752,-1.7318,-1.7749,-1.7975,-1.7905,-1.7992,-1.8057,-1.8057,-1.8293,-1.8276,-1.8036,-1.8074,-1.7719,0.0,0.0,0.0,0.0,0.0,-1.0726,0.0,0.0,0.0,-1.3435,0.0,0.0,0.0,0.0,0.0,0.0,0.0,0.0,0.0,0.0,0.0,0.0,0.0,0.0,-1.9916,-1.9919,-2.0061,-2.0289,-2.0058,-2.0258,-2.1075,-2.1245,-2.1914,-2.3305,-2.3499,-2.4022,-2.491,-2.4966,-2.5005,-2.5005,-2.5005,-2.51,-2.5256,-2.5256,-2.5333,-2.5486,-2.5486,-2.5502,-2.554,-2.554,-2.6079,-2.6944,-2.7494,-2.8158,-2.8871,-2.9643,-2.9918,-2.9918,-2.9918,-2.9918,-2.9918,-2.9918,-2.9918,-2.9918,-2.9918,-2.9918,-2.9918,-2.9918,-3.006,-3.0225,-3.0225,-3.0435,-3.0642,-3.0642,-3.0477,-3.0377,-3.0642,-3.0543,-3.0543,-3.1083,-3.1004,-3.0885,-3.1179,-3.1123,-3.1004,-3.0683,-3.0764,-3.0078,-2.7855,-2.6931,-2.5011,-2.1126,-2.008,-1.8985,-1.7282,-1.7467,-1.7412,-1.6812,-1.7495,-1.7628,-1.6999,-1.7582,-1.7839,-1.771,-1.7878,-1.7917,-1.7833,-1.7997,-1.8208,-1.852,-1.8526,-1.8229,0.0,0.0,0.0,0.0,-1.0548,0.0,0.0,0.0,-1.0838,-1.0921,0.0,0.0,0.0,0.0,0.0,0.0,0.0,0.0,0.0,0.0,0.0,0.0,0.0,0.0,0.0,-1.8532,-1.909,-2.0212,-1.9244,-1.9152,-2.035,-2.0998,-2.1661,-2.2416,-2.3211,-2.3943,-2.463,-2.4886,-2.5005,-2.5005,-2.5005,-2.5005,-2.5045,-2.5045,-2.506,-2.5045,-2.5045,-2.5162,-2.5333,-2.5333,-2.6237,-2.7591,-2.7672,-2.8158,-2.8871,-2.9643,-2.9918,-2.9918,-2.9918,-2.9918,-2.9918,-2.9918,-2.9918,-2.9918,-2.9918,-2.9918,-2.9918,-2.9918,-2.9902,-2.9946,-2.9946,-2.9989,-2.9989,-2.9989,-3.0156,-3.0293,-3.0335,-3.0543,-3.0764,-3.0828,-3.0845,-3.0788,-3.0845,-3.0625,-3.0309,-3.0017,-3.0033,-2.9707,-2.8744,-2.6932,-2.4346,-2.0738,-1.9869,-1.8425,-1.5697,-1.6731,-1.7476,-1.7392,-1.7545,-1.7647,-1.7592,-1.7849,-1.79,-1.771,-1.7772,-1.7856,-1.7983,-1.7944,-1.8018,-1.8246,-1.8249,-1.8318,0.0,0.0,0.0,0.0,0.0,0.0,-1.0694,0.0,-1.0498,0.0,0.0,0.0,0.0,0.0,0.0,0.0,-1.1586,0.0,0.0,0.0,0.0,0.0,0.0,0.0,0.0,0.0,-1.868,-1.9924,-1.9009,-1.8951,-2.0227,-2.0582,-2.1044,-2.1686,-2.2439,-2.3157,-2.3838,-2.4362,-2.4589,-2.4589,-2.4589,-2.463,-2.4766,-2.4766,-2.4831,-2.5005,-2.5005,-2.506,-2.5139,-2.5139,-2.5974,-2.7301,-2.7301,-2.8174,-2.9497,-2.9805,-2.9918,-2.9918,-2.9918,-2.9918,-2.9918,-2.9918,-2.9918,-2.9918,-2.9918,-2.9918,-2.9918,-2.9918,-2.9918,-2.9918,-2.9918,-2.9918,-2.9918,-2.9918,-2.9989,-3.0087,-3.0087,-3.0172,-3.0326,-3.046,-3.0502,-3.0502,-3.0502,-3.0377,-3.0182,-2.9946,-2.9918,-2.9643,-2.8871,-2.764,-2.5778,-2.3025,-2.1466,-1.9764,-1.7747,-1.7509,-1.7432,-1.7432,-1.7502,-1.7595,-1.7687,-1.7681,-1.7726,-1.7878,-1.7794,-1.7772,-1.7878,-1.7856,-1.7922,-1.8035,-1.8138,-1.8304,-1.1723,0.0,0.0,0.0,0.0,0.0,0.0,0.0,0.0,0.0,0.0,0.0,0.0,0.0,0.0,-1.0382,0.0,-1.1668,0.0,0.0,0.0,0.0,0.0,0.0,0.0,0.0,-1.7499,-1.8986,0.0,-1.8532,-2.0093,-2.027,-2.0613,-2.1291,-2.1932,-2.2609,-2.3286,-2.3963,-2.4302,-2.4302,-2.4302,-2.4385,-2.4508,-2.4508,-2.463,-2.4806,-2.4806,-2.4846,-2.4886,-2.4886,-2.5731,-2.6988,-2.6988,-2.8092,-2.9681,-2.9681,-2.9726,-2.977,-2.977,-2.9814,-2.9918,-2.9918,-2.9918,-2.9918,-2.9918,-2.9918,-2.9918,-2.9918,-2.9918,-2.9918,-2.9918,-2.9918,-2.9918,-2.9918,-2.9918,-2.9918,-2.9918,-2.9918,-2.9946,-3.0156,-3.0199,-3.0199,-3.0199,-3.0267,-3.0182,-2.9946,-2.974,-2.9432,-2.8854,-2.7996,-2.6604,-2.445,-2.2573,-2.0766,-1.9126,-1.7995,-1.737,-1.7329,-1.7384,-1.7479,-1.7589,-1.7479,-1.7566,-1.7833,-1.7749,-1.771,-1.7772,-1.7789,-1.7816,-1.7905,-1.8048,-1.8197,0.0,0.0,0.0,-1.1,0.0,0.0,0.0,0.0,-1.0656,0.0,0.0,0.0,0.0,0.0,-1.0337,-0.9809,-1.02,0.0,0.0,0.0,0.0,0.0,0.0,0.0,0.0,0.0,0.0,0.0,-1.6803,-1.7453,-1.9688,-2.0115,-2.0613,-2.1291,-2.1932,-2.2609,-2.3286,-2.3963,-2.4302,-2.4302,-2.4302,-2.4302,-2.4302,-2.4302,-2.4302,-2.4302,-2.4302,-2.4426,-2.463,-2.463,-2.555,-2.6988,-2.6988,-2.7873,-2.9121,-2.9121,-2.9305,-2.9515,-2.9515,-2.9665,-2.9918,-2.9918,-2.9918,-2.9918,-2.9918,-2.9918,-2.9918,-2.9918,-2.9918,-2.9918,-2.9918,-2.9918,-2.9918,-2.9918,-2.9918,-2.9918,-2.9918,-2.9918,-2.9902,-2.9902,-2.9902,-2.9902,-2.9902,-3.0113,-3.0182,-2.9946,-2.9275,-2.8822,-2.879,-2.7575,-2.5907,-2.3772,-2.2313,-2.06,-1.841,-1.7666,-1.7257,-1.7108,-1.7158,-1.7232,-1.7306,-1.7425,-1.7479,-1.7408,-1.7595,-1.771,-1.771,-1.7772,-1.7816,-1.7905,-1.7922,-1.8027,0.0,0.0,-1.5372,-1.3418,0.0,0.0,0.0,0.0,0.0,0.0,0.0,0.0,0.0,0.0,-1.0356,-1.0304,-1.0438,-1.0481,0.0,0.0,-1.0523,0.0,0.0,0.0,0.0,0.0,0.0,0.0,0.0,0.0,-1.9456,-1.9617,-1.9809,-2.0034,-2.1066,-2.1858,-2.2352,-2.3447,-2.4094,-2.4302,-2.4302,-2.4302,-2.4302,-2.4302,-2.4302,-2.4302,-2.4302,-2.4343,-2.4431,-2.4879,-2.5691,-2.6663,-2.7069,-2.7814,-2.8668,-2.8998,-2.9167,-2.9259,-2.9259,-2.9305,-2.9396,-2.9576,-2.9621,-2.9665,-2.9874,-2.9918,-2.9918,-2.9918,-2.9918,-2.9918,-2.9918,-2.9918,-2.9918,-2.9918,-2.9918,-2.9918,-2.9918,-2.9918,-2.9918,-2.9918,-2.9918,-2.9918,-2.9918,-2.9989,-3.0017,-2.9902,-2.9243,-2.8611,-2.8126,-2.7267,-2.6231,-2.5017,-2.3677,-2.2231,-2.0606,-1.8555,-1.7321,-1.7158,-1.7191,-1.7216,-1.7232,-1.7224,-1.7305,-1.7462,-1.7439,-1.7532,-1.7772,-1.7749,-1.7816,-1.7944,-1.7878,-1.7944,-1.6797,-1.7073,0.0,-1.5127,-1.5154,0.0,-1.2974,0.0,0.0,0.0,0.0,0.0,0.0,0.0,-1.0472,-1.0608,-1.0621,-1.0572,0.0,-1.0449,-1.0449,0.0,0.0,0.0,0.0,0.0,0.0,0.0,0.0,0.0,0.0,-1.909,-1.9413,-1.9413,-2.0637,-2.1421,-2.1689,-2.2951,-2.3739,-2.3925,-2.3925,-2.4009,-2.4135,-2.4135,-2.4177,-2.4302,-2.4302,-2.4302,-2.4364,-2.5041,-2.5733,-2.6426,-2.7134,-2.7811,-2.846,-2.8716,-2.8905,-2.8982,-2.9075,-2.9075,-2.9121,-2.9305,-2.935,-2.9396,-2.9547,-2.9637,-2.9637,-2.9637,-2.9681,-2.977,-2.977,-2.9814,-2.9918,-2.9918,-2.9918,-2.9918,-2.9918,-2.9918,-2.9918,-2.9918,-2.9918,-2.9918,-2.9918,-2.9918,-2.9918,-2.9918,-2.9243,-2.853,-2.7802,-2.7106,-2.6426,-2.5697,-2.4424,-2.2834,-2.098,-1.844,-1.7001,-1.7183,-1.6938,-1.6881,-1.7158,-1.7117,-1.7289,-1.7724,-1.7444,-1.7557,-1.8061,-1.7776,-1.7749,-1.79,-1.7856,-1.79]},{"header":{"parameterUnit":"m.s-1","parameterCategory":1,"la1":30.6,"la2":29.2853,"lo1":-89.7004,"lo2":-87.6739,"dy":0.0162,"dx":0.0183,"nx":112,"ny":82,"refTime":"2023-05-06T00:00:00:Z","depth":0,"parameterNumber":3,"parameterNumberName":"V-component_of_WINDS"},"data":[0.0,0.0,0.0,0.0,0.0,0.0,0.0,0.0,0.0,0.0,0.0,0.0,0.0,0.0,0.0,0.0,0.0,0.0,0.0,0.0,0.0,0.0,0.0,0.0,0.0,0.0,0.0,0.0,0.0,0.0,0.0,0.0,0.0,0.0,0.0,0.0,0.0,0.0,0.0,0.0,0.0,0.0,0.0,0.0,0.0,0.0,0.0,0.0,0.0,0.0,0.0,0.0,0.0,0.0,0.0,0.0,0.0,0.0,0.0,0.0,0.0,0.0,0.0,0.0,0.0,0.0,0.0,0.0,0.0,0.0,0.0,0.0,0.0,0.0,0.0,0.0,0.0,0.0,0.0,0.0,0.0,0.0,0.0,0.0,0.0,0.0,0.0,0.0,0.0,0.0,0.0,-0.9139,-0.8807,-0.8616,-0.8645,-0.8731,-0.9595,-1.1553,0.0,0.0,0.0,0.0,0.0,0.0,0.0,0.0,0.0,0.0,0.0,0.0,0.0,0.0,0.0,0.0,0.0,0.0,0.0,0.0,0.0,0.0,0.0,0.0,0.0,0.0,0.0,0.0,0.0,0.0,0.0,0.0,0.0,0.0,0.0,0.0,0.0,0.0,0.0,0.0,0.0,0.0,0.0,0.0,0.0,0.0,0.0,0.0,0.0,0.0,0.0,0.0,0.0,0.0,0.0,0.0,0.0,0.0,0.0,0.0,0.0,0.0,0.0,0.0,0.0,0.0,0.0,0.0,0.0,0.0,0.0,0.0,0.0,0.0,0.0,0.0,0.0,0.0,0.0,0.0,0.0,0.0,0.0,0.0,0.0,0.0,0.0,0.0,0.0,0.0,0.0,0.0,0.0,0.0,0.0,0.0,0.0,0.0,0.0,0.0,0.0,0.0,0.0,0.0,-0.9544,-0.8415,-0.8476,-0.8554,-0.8447,-0.8554,-0.9458,-1.1421,0.0,0.0,0.0,0.0,0.0,0.0,0.0,0.0,0.0,0.0,0.0,0.0,0.0,0.0,0.0,0.0,0.0,0.0,0.0,0.0,0.0,0.0,0.0,0.0,0.0,0.0,0.0,0.0,0.0,0.0,0.0,0.0,0.0,0.0,0.0,0.0,0.0,0.0,0.0,0.0,0.0,0.0,0.0,0.0,0.0,0.0,0.0,0.0,0.0,0.0,0.0,0.0,0.0,0.0,0.0,0.0,0.0,0.0,0.0,0.0,0.0,0.0,0.0,0.0,0.0,0.0,0.0,0.0,0.0,0.0,0.0,0.0,0.0,0.0,0.0,0.0,0.0,0.0,0.0,0.0,0.0,0.0,0.0,0.0,0.0,0.0,0.0,0.0,0.0,0.0,0.0,0.0,0.0,0.0,0.0,0.0,0.0,0.0,0.0,0.0,0.0,0.0,0.0,-0.9986,-0.9358,-0.8366,-0.8463,-0.8592,-0.8558,-0.8579,-0.9421,-1.1384,-1.1403,0.0,0.0,0.0,0.0,0.0,0.0,0.0,0.0,0.0,0.0,0.0,0.0,0.0,0.0,0.0,0.0,0.0,0.0,0.0,0.0,0.0,0.0,0.0,0.0,0.0,0.0,0.0,0.0,0.0,0.0,0.0,0.0,0.0,0.0,0.0,0.0,0.0,0.0,0.0,0.0,0.0,0.0,0.0,0.0,0.0,0.0,0.0,0.0,0.0,0.0,0.0,0.0,0.0,0.0,0.0,0.0,0.0,0.0,0.0,0.0,0.0,0.0,0.0,0.0,0.0,0.0,0.0,0.0,0.0,0.0,0.0,0.0,0.0,0.0,0.0,0.0,0.0,0.0,0.0,0.0,0.0,0.0,0.0,0.0,0.0,0.0,0.0,0.0,0.0,0.0,0.0,0.0,0.0,0.0,0.0,0.0,0.0,0.0,0.0,0.0,0.0,0.0,-0.9365,-0.8928,-0.8401,-0.8467,-0.8554,-0.8567,-0.8554,-0.9372,-1.1316,-1.1291,0.0,0.0,0.0,0.0,0.0,0.0,0.0,0.0,0.0,0.0,0.0,0.0,0.0,0.0,0.0,0.0,0.0,0.0,0.0,0.0,0.0,0.0,0.0,0.0,0.0,0.0,0.0,0.0,0.0,0.0,0.0,0.0,0.0,0.0,0.0,0.0,0.0,0.0,0.0,0.0,0.0,0.0,0.0,0.0,0.0,0.0,0.0,0.0,0.0,0.0,0.0,0.0,0.0,0.0,0.0,0.0,0.0,0.0,0.0,0.0,0.0,0.0,0.0,0.0,0.0,0.0,0.0,0.0,0.0,0.0,0.0,0.0,0.0,0.0,0.0,0.0,0.0,0.0,0.0,0.0,0.0,0.0,0.0,0.0,0.0,0.0,0.0,0.0,0.0,0.0,0.0,0.0,0.0,0.0,0.0,0.0,0.0,0.0,0.0,0.0,0.0,0.0,-0.8911,-0.8269,-0.8211,-0.8346,-0.8369,-0.8245,-0.834,-0.9209,-1.1109,-1.1208,0.0,0.0,0.0,0.0,0.0,0.0,0.0,0.0,0.0,0.0,0.0,0.0,0.0,0.0,0.0,0.0,0.0,0.0,0.0,0.0,0.0,0.0,0.0,0.0,0.0,0.0,0.0,0.0,0.0,0.0,0.0,0.0,0.0,0.0,0.0,0.0,0.0,0.0,0.0,0.0,0.0,0.0,0.0,0.0,0.0,0.0,0.0,0.0,0.0,0.0,0.0,0.0,0.0,0.0,0.0,0.0,0.0,0.0,0.0,0.0,0.0,0.0,0.0,0.0,0.0,0.0,0.0,0.0,0.0,0.0,0.0,0.0,0.0,0.0,0.0,0.0,0.0,0.0,0.0,0.0,0.0,0.0,0.0,0.0,0.0,0.0,0.0,0.0,0.0,0.0,0.0,0.0,0.0,0.0,0.0,0.0,0.0,0.0,0.0,0.0,0.0,0.0,-0.9601,-0.8715,0.0,-0.8419,-0.8492,-0.8571,-0.8655,-0.9501,-1.1326,0.0,0.0,0.0,0.0,0.0,0.0,0.0,0.0,0.0,0.0,0.0,0.0,0.0,0.0,0.0,0.0,0.0,0.0,0.0,0.0,0.0,0.0,0.0,0.0,0.0,0.0,0.0,0.0,0.0,0.0,0.0,0.0,0.0,0.0,0.0,0.0,0.0,0.0,0.0,0.0,0.0,0.0,0.0,0.0,0.0,0.0,0.0,0.0,0.0,0.0,0.0,0.0,0.0,0.0,0.0,0.0,0.0,0.0,0.0,0.0,0.0,0.0,0.0,0.0,0.0,0.0,0.0,0.0,0.0,0.0,0.0,0.0,0.0,0.0,0.0,0.0,0.0,0.0,0.0,0.0,0.0,0.0,0.0,0.0,0.0,0.0,0.0,0.0,0.0,0.0,0.0,0.0,0.0,0.0,0.0,0.0,0.0,0.0,0.0,0.0,0.0,0.0,-1.1145,-0.9911,-0.896,0.0,-0.8644,-0.8686,-0.8857,-0.8906,-0.9721,-1.1582,0.0,0.0,0.0,0.0,0.0,0.0,0.0,0.0,0.0,0.0,0.0,0.0,0.0,0.0,0.0,0.0,0.0,0.0,0.0,0.0,0.0,0.0,0.0,0.0,0.0,0.0,0.0,0.0,0.0,0.0,0.0,0.0,0.0,0.0,0.0,0.0,0.0,0.0,0.0,0.0,0.0,0.0,0.0,0.0,0.0,0.0,0.0,0.0,0.0,0.0,0.0,0.0,0.0,0.0,0.0,0.0,0.0,0.0,0.0,0.0,0.0,0.0,0.0,0.0,0.0,0.0,0.0,0.0,0.0,0.0,0.0,0.0,0.0,0.0,0.0,0.0,0.0,0.0,0.0,0.0,0.0,0.0,0.0,0.0,0.0,0.0,0.0,0.0,0.0,0.0,0.0,0.0,0.0,0.0,0.0,0.0,0.0,0.0,0.0,0.0,0.0,0.0,-1.0968,-0.9675,-0.884,-0.8988,-0.895,-0.8929,-0.9002,-0.9002,-0.9828,0.0,0.0,0.0,0.0,0.0,0.0,0.0,0.0,0.0,0.0,0.0,0.0,0.0,0.0,0.0,0.0,0.0,0.0,0.0,0.0,0.0,0.0,0.0,0.0,0.0,0.0,0.0,0.0,0.0,0.0,0.0,0.0,0.0,0.0,0.0,0.0,0.0,0.0,0.0,0.0,0.0,0.0,0.0,0.0,0.0,0.0,0.0,0.0,0.0,0.0,0.0,0.0,0.0,0.0,0.0,0.0,0.0,0.0,0.0,0.0,0.0,0.0,0.0,0.0,0.0,0.0,0.0,0.0,0.0,0.0,0.0,0.0,0.0,0.0,0.0,0.0,0.0,0.0,0.0,0.0,0.0,0.0,0.0,0.0,0.0,0.0,0.0,0.0,0.0,0.0,0.0,0.0,0.0,0.0,0.0,0.0,0.0,0.0,0.0,0.0,0.0,0.0,0.0,-1.1209,-0.9699,-0.8654,-0.8655,-0.8884,-0.9142,-0.9405,-0.9431,-1.0242,-1.2128,0.0,0.0,0.0,0.0,0.0,0.0,0.0,0.0,0.0,0.0,0.0,0.0,0.0,0.0,0.0,0.0,0.0,0.0,0.0,0.0,0.0,0.0,0.0,0.0,0.0,0.0,0.0,0.0,0.0,0.0,0.0,0.0,0.0,0.0,0.0,0.0,0.0,0.0,0.0,0.0,0.0,0.0,0.0,0.0,0.0,0.0,0.0,0.0,0.0,0.0,0.0,0.0,0.0,0.0,0.0,0.0,0.0,0.0,0.0,0.0,0.0,0.0,0.0,0.0,0.0,0.0,0.0,0.0,0.0,0.0,0.0,0.0,0.0,0.0,0.0,0.0,0.0,0.0,0.0,0.0,0.0,0.0,0.0,0.0,0.0,0.0,0.0,0.0,0.0,0.0,0.0,0.0,0.0,0.0,0.0,0.0,0.0,0.0,0.0,0.0,0.0,0.0,-1.1653,-1.0091,-0.8964,-0.8984,-0.9216,-0.9455,-0.9617,-0.9711,-1.0383,-1.1834,0.0,0.0,0.0,0.0,0.0,0.0,0.0,0.0,0.0,0.0,0.0,0.0,0.0,0.0,0.0,0.0,0.0,0.0,0.0,0.0,0.0,0.0,0.0,0.0,0.0,0.0,0.0,0.0,0.0,0.0,0.0,0.0,0.0,0.0,0.0,0.0,0.0,0.0,0.0,0.0,0.0,0.0,0.0,0.0,0.0,0.0,0.0,0.0,0.0,0.0,0.0,0.0,0.0,0.0,0.0,0.0,0.0,0.0,0.0,0.0,0.0,0.0,0.0,0.0,0.0,0.0,0.0,0.0,0.0,0.0,0.0,0.0,0.0,0.0,0.0,0.0,0.0,0.0,0.0,0.0,0.0,0.0,0.0,0.0,0.0,0.0,0.0,0.0,0.0,0.0,0.0,0.0,0.0,0.0,0.0,0.0,0.0,0.0,0.0,0.0,0.0,0.0,-1.2141,-1.0608,-0.9528,-0.9623,-0.9747,-0.9794,-0.9729,-0.9911,-1.0354,-1.1182,0.0,0.0,0.0,0.0,0.0,0.0,0.0,0.0,0.0,0.0,0.0,0.0,0.0,0.0,0.0,0.0,0.0,0.0,0.0,0.0,0.0,0.0,0.0,0.0,0.0,0.0,0.0,0.0,0.0,0.0,0.0,0.0,0.0,0.0,0.0,0.0,0.0,0.0,0.0,0.0,0.0,0.0,0.0,0.0,0.0,0.0,0.0,0.0,0.0,0.0,0.0,0.0,0.0,0.0,0.0,0.0,0.0,0.0,0.0,0.0,0.2944,0.0,0.0,0.0,0.0,0.0,0.0,0.0,0.0,0.0,0.0,0.0,0.0,0.0,0.0,0.0,0.0,0.0,0.0,0.0,0.0,0.0,0.0,0.0,0.0,0.0,0.0,0.0,0.0,0.0,0.0,0.0,0.0,0.0,0.0,0.0,0.0,0.0,0.0,0.0,0.0,0.0,-1.1817,-1.0413,-0.9376,-0.9251,-0.9618,-0.9891,-0.9942,-1.0022,-1.0474,-1.1377,-1.1638,0.0,0.0,0.0,0.0,0.0,0.0,0.0,0.0,0.0,0.0,0.0,0.0,0.0,0.0,0.0,0.0,0.0,0.0,0.0,0.0,0.0,0.0,0.0,0.0,0.0,0.0,0.0,0.0,0.0,0.0,0.0,0.0,0.0,0.0,0.0,0.0,0.0,0.0,0.0,0.0,0.0,0.0,0.0,0.0,0.0,0.0,0.0,0.0,0.0,0.0,0.0,0.0,0.0,0.0,0.0,0.0,0.0,0.0,0.0,0.0,0.4159,0.0,0.0,0.0,0.0,0.0,0.0,0.0,0.0,0.0,0.0,0.0,0.0,0.0,0.0,0.0,0.0,0.0,0.0,0.0,0.0,0.0,0.0,0.0,0.0,0.0,0.0,0.0,0.0,0.0,0.0,0.0,0.0,0.0,0.0,0.0,0.0,0.0,0.0,0.0,0.0,-1.202,-1.0639,-0.9636,-0.9501,-0.9757,-0.9964,-1.0005,-1.0082,-1.0288,-1.0604,-1.1061,0.0,0.0,0.0,0.0,0.0,0.0,0.0,0.0,0.0,0.0,0.0,0.0,0.0,0.0,0.0,0.0,0.0,0.0,0.0,0.0,0.0,0.0,0.0,0.0,0.0,0.0,0.0,0.0,0.0,0.0,0.0,0.0,0.0,0.0,0.0,0.0,0.0,0.0,0.0,0.0,0.0,0.0,0.0,0.0,0.0,0.0,0.0,0.0,0.0,0.0,0.0,0.0,0.0,0.7753,0.8268,0.766,0.8548,0.896,0.9052,0.9497,0.8098,0.5459,0.4911,0.0,0.0,0.0,0.0,0.0,0.0,0.0,0.0,0.0,0.0,0.0,0.0,0.0,0.0,0.0,0.0,0.0,0.0,0.0,0.0,0.0,0.0,0.0,0.0,0.3474,0.307,0.134,0.0,0.0,0.0,0.0,0.0,0.0,0.0,0.0,0.0,0.0,0.0,-1.2148,-1.0861,-0.9953,-0.9903,-0.9927,-0.9947,-0.9953,-1.0058,-0.9991,-0.9675,-1.0401,-1.0821,0.0,0.0,0.0,0.0,0.0,0.0,0.0,0.0,0.0,0.0,0.0,0.0,0.0,0.0,0.0,0.0,0.0,0.0,0.0,0.0,0.0,0.0,0.0,0.0,0.0,0.0,0.0,0.0,0.0,0.0,0.0,0.0,1.1844,1.0369,0.0,0.0,0.0,0.0,0.0,0.0,0.0,0.0,0.0,0.0,0.0,0.0,0.0,0.5193,0.6322,0.6479,0.657,0.6594,0.8526,0.9414,0.9428,1.1363,1.185,1.1097,1.1251,0.0,0.8136,0.6228,0.0,0.0,0.0,0.0,0.0,0.0,0.0,0.0,0.0,0.0,0.0,0.0,0.0,0.0,0.0,0.0,0.0,0.0,0.0,0.0,0.0,0.0,0.5374,0.5063,0.4966,0.4758,0.0,0.2031,0.0043,-0.061,-0.2971,0.0,0.0,0.0,0.0,0.0,0.0,0.0,-1.1441,-1.0512,-0.9903,-0.9909,-0.9803,-0.9743,-0.975,-0.9748,-0.9703,-0.9538,-0.9756,-1.017,-1.0766,-1.0915,0.0,0.0,0.0,0.0,0.0,0.0,0.0,0.0,0.0,0.0,0.0,0.0,0.0,0.0,0.0,0.0,0.0,0.0,0.0,0.0,0.0,0.0,0.0,0.0,0.0,0.0,0.0,0.0,0.0,1.0509,0.9727,0.8196,0.8545,0.8318,0.0,0.0,0.0,0.0,0.0,0.0,0.0,0.0,0.0,0.5652,0.6378,0.7092,0.7814,0.8187,0.8318,0.8216,0.9341,0.9818,0.9737,1.0902,1.1211,1.0824,1.0567,1.0015,0.9151,0.7746,0.6235,0.4716,0.0,0.0,0.0,0.0,0.5124,0.5055,0.7211,0.7632,0.7222,0.7191,0.0,0.0,0.0,0.0,0.0,0.0,0.0,0.0,0.0,0.0,0.637,0.5738,0.5508,0.5345,0.5057,0.3881,0.2434,0.0,-0.1506,-0.4373,-0.7933,0.0,0.0,0.0,0.0,-1.1064,-1.0635,-0.9977,-0.9565,-0.9571,-0.9578,-0.9601,-0.9637,-0.9612,-0.9496,-0.9292,-0.9257,-0.9287,-0.9394,-0.9865,-1.0528,0.0,0.0,0.0,0.0,0.0,0.0,0.0,0.0,0.0,0.0,0.0,0.0,0.0,0.0,0.0,0.0,0.0,0.0,0.0,0.0,0.0,0.0,0.0,0.0,0.0,0.0,0.0,0.0,0.9042,0.8542,0.6753,0.7459,0.749,0.0,0.0,0.0,0.0,0.0,0.0,0.4915,0.5303,0.5947,0.6886,0.7735,0.825,0.838,0.8979,0.9173,0.891,0.9211,0.9274,0.9181,0.9421,0.9595,0.9633,0.9316,0.915,0.8985,0.8366,0.6919,0.5091,0.4821,0.4187,0.3609,0.5125,0.5299,0.5022,0.6579,0.6784,0.6353,0.6328,0.6814,0.7518,0.8235,0.0,0.0,0.0,0.0,0.7823,0.7085,0.6898,0.6669,0.5801,0.551,0.537,0.5165,0.4684,0.3832,0.0,0.024,-0.2461,-0.6274,0.0,0.0,0.0,0.0,-0.9869,-0.9529,-0.9138,-0.8947,-0.9086,-0.9088,-0.9165,-0.9379,-0.9322,-0.9162,-0.8919,-0.8867,-0.8678,-0.8319,-0.8973,-0.9541,-0.9915,0.0,0.0,0.0,0.0,0.0,0.0,0.0,0.0,0.0,0.0,0.0,0.0,0.0,0.0,0.0,0.0,0.0,0.0,0.0,0.0,0.0,0.0,0.0,0.0,0.0,0.0,0.0,0.0,0.0,0.8248,0.79,0.0,0.0,0.0,0.0,0.5516,0.5385,0.5324,0.5383,0.5997,0.6385,0.6435,0.7327,0.7724,0.7446,0.7766,0.7781,0.7489,0.7384,0.7459,0.7692,0.7602,0.7674,0.7909,0.8031,0.7876,0.7495,0.7326,0.6951,0.6412,0.5365,0.4721,0.4405,0.4859,0.5058,0.5144,0.5627,0.6093,0.6496,0.6415,0.6563,0.6797,0.7112,0.6897,0.0,0.0,0.6881,0.6805,0.6424,0.6331,0.6116,0.5249,0.4979,0.4879,0.4671,0.358,0.303,0.0,0.2869,0.0636,-0.1503,0.0,-0.6508,-0.795,-0.8728,-0.8836,-0.7944,-0.7807,-0.7979,-0.8484,-0.8204,-0.8213,-0.8799,-0.8717,-0.8563,-0.8342,-0.8567,-0.8595,-0.8306,-0.8521,-0.9073,-0.9971,-1.0123,0.0,0.0,0.0,0.0,0.0,0.0,0.0,0.0,0.0,0.0,0.0,0.0,0.0,0.0,0.0,0.0,0.0,0.0,0.0,0.0,0.0,0.0,0.0,0.0,0.0,0.0,0.0,0.0,0.7589,0.7978,0.0,0.5955,0.5073,0.4761,0.5059,0.4855,0.4952,0.5485,0.5923,0.6406,0.7001,0.7154,0.7012,0.6653,0.6797,0.6446,0.561,0.6217,0.6293,0.5917,0.6216,0.6431,0.6519,0.6266,0.6116,0.5945,0.5682,0.6073,0.6805,0.628,0.5995,0.5902,0.6181,0.6098,0.5938,0.6398,0.6467,0.6422,0.6708,0.7232,0.7635,0.7065,0.7355,0.7655,0.6531,0.6889,0.7328,0.6244,0.6297,0.6429,0.5631,0.5195,0.4879,0.4595,0.404,0.3709,0.4051,0.2076,-0.0135,-0.1625,-0.3014,-0.4726,-0.7155,-0.6954,-0.6582,-0.6705,-0.6651,-0.674,-0.7113,-0.7099,-0.7257,-0.7732,-0.7687,-0.7577,-0.7475,-0.7475,-0.7416,-0.7275,-0.7262,-0.7425,-0.7795,-0.7856,-0.8605,0.0,0.0,0.0,0.0,0.0,0.0,0.0,0.0,0.0,0.0,0.0,0.0,0.0,0.0,0.0,0.0,0.0,0.0,0.0,0.0,0.0,0.0,0.0,0.0,0.0,0.0,0.8199,0.6984,0.7625,0.7592,0.6124,0.5438,0.5201,0.5491,0.5059,0.5059,0.5633,0.5644,0.5958,0.6605,0.6477,0.6223,0.5836,0.6046,0.5684,0.4808,0.5518,0.5661,0.5294,0.5637,0.5841,0.5904,0.5645,0.5493,0.5391,0.5183,0.559,0.6413,0.6351,0.6324,0.6394,0.6816,0.6792,0.6635,0.6985,0.6823,0.6501,0.7012,0.7419,0.7647,0.7088,0.7483,0.7828,0.6418,0.6822,0.7375,0.6042,0.594,0.5968,0.5299,0.4796,0.4404,0.424,0.4065,0.3868,0.3702,0.1771,-0.0046,-0.0767,-0.1826,-0.3326,-0.558,-0.5219,-0.4951,-0.5708,-0.561,-0.5667,-0.6093,-0.6172,-0.6415,-0.6953,-0.7146,-0.7128,-0.6881,-0.6989,-0.6951,-0.6705,-0.6812,-0.6884,-0.6932,-0.6932,-0.7744,-0.9396,0.0,0.0,0.0,0.0,0.0,0.0,0.0,0.0,0.0,0.0,0.0,0.0,0.0,0.0,0.0,0.0,0.0,0.0,0.0,0.0,0.0,0.0,0.0,0.6356,0.7638,0.806,0.6701,0.686,0.6899,0.6439,0.5896,0.5942,0.6813,0.6184,0.5755,0.5798,0.5285,0.5029,0.512,0.5314,0.5324,0.5077,0.5438,0.5447,0.5162,0.5321,0.5522,0.5756,0.5756,0.5914,0.6154,0.6159,0.6,0.5782,0.5782,0.5563,0.5307,0.5503,0.5594,0.5692,0.6519,0.6954,0.7056,0.7296,0.707,0.6763,0.7312,0.7125,0.6738,0.707,0.7105,0.6894,0.638,0.6592,0.6722,0.5748,0.5172,0.4722,0.4144,0.3693,0.3429,0.3549,0.3472,0.3408,0.3528,0.2224,0.118,0.1448,-0.0474,-0.2288,-0.3034,-0.3536,0.0,-0.4843,-0.4655,-0.4718,-0.5481,-0.5446,-0.5683,-0.6482,-0.7095,-0.7201,-0.66,-0.7185,-0.7276,-0.6689,-0.723,-0.7519,-0.7533,-0.7577,-0.7713,-0.7961,0.0,0.0,0.0,0.0,0.0,0.0,0.0,0.0,0.0,0.0,0.0,0.0,0.0,0.0,0.0,0.0,0.0,0.0,0.0,0.0,0.0,0.0,0.7122,0.8007,0.8085,0.7917,0.7425,0.7182,0.6747,0.5944,0.5651,0.5625,0.5862,0.5009,0.482,0.5601,0.4854,0.4784,0.5666,0.5725,0.5481,0.4948,0.5539,0.5387,0.4477,0.5011,0.5115,0.4834,0.4834,0.491,0.4963,0.5084,0.508,0.5026,0.5026,0.4969,0.488,0.5088,0.5153,0.5238,0.5637,0.5824,0.596,0.6527,0.6362,0.6065,0.7214,0.7063,0.655,0.6805,0.6706,0.6337,0.5577,0.5701,0.5925,0.5298,0.4639,0.4178,0.4137,0.3735,0.3317,0.326,0.2971,0.2687,0.2488,0.152,0.0883,0.1356,0.035,-0.09,-0.2087,-0.2254,0.0,-0.3495,-0.3376,-0.3543,-0.4483,-0.4552,-0.4855,-0.5657,-0.5939,-0.5993,-0.5815,-0.592,-0.5957,-0.5834,-0.5891,-0.5952,-0.5999,-0.6867,-0.7315,0.0,0.0,0.0,0.0,0.0,0.0,0.0,0.0,0.0,0.0,0.0,0.0,0.0,0.0,0.0,0.0,0.0,0.0,0.0,0.0,0.0,0.0,0.6779,0.7678,0.8776,0.8442,0.8022,0.7871,0.7446,0.6887,0.6349,0.5999,0.5773,0.5773,0.5003,0.4836,0.5457,0.4739,0.4652,0.5354,0.5305,0.5157,0.4763,0.514,0.5011,0.4395,0.4823,0.4876,0.4653,0.4653,0.4653,0.466,0.4748,0.4785,0.4785,0.4785,0.4785,0.0,0.0,0.0,0.0,0.0,0.6492,0.6688,0.7098,0.686,0.6597,0.7362,0.7132,0.6544,0.6574,0.6373,0.6006,0.4942,0.5049,0.538,0.4692,0.4204,0.3891,0.3886,0.3462,0.3062,0.2982,0.2783,0.2519,0.2124,0.157,0.0,0.115,0.0444,-0.0487,-0.1567,-0.1651,-0.1938,-0.2857,-0.2821,-0.296,-0.3667,-0.384,-0.4175,-0.4853,-0.5126,0.0,0.0,0.0,-0.5451,-0.5571,-0.5601,0.0,0.0,0.0,-0.6592,-0.6394,0.0,0.0,0.0,-1.0001,-1.064,0.0,0.0,0.0,0.0,0.0,0.0,0.0,0.0,0.0,0.0,0.0,0.0,0.0,0.0,0.0,0.0,0.7043,0.7779,0.8692,0.8404,0.8122,0.8113,0.7636,0.7236,0.702,0.6503,0.6159,0.6062,0.5585,0.526,0.5282,0.0,0.0,0.0,0.0,0.4623,0.4673,0.4636,0.4628,0.4716,0.466,0.475,0.4945,0.4897,0.4907,0.4969,0.4969,0.4969,0.4965,0.4952,0.4935,0.4948,0.5163,0.5254,0.5415,0.6956,0.7759,0.8059,0.8133,0.0,0.0,0.7749,0.7358,0.6801,0.645,0.6228,0.5823,0.4648,0.479,0.5116,0.4215,0.3966,0.3822,0.3434,0.3036,0.2751,0.2751,0.2702,0.2524,0.208,0.1902,0.1595,0.087,0.0179,-0.0534,-0.126,-0.1427,-0.1742,-0.2509,-0.2592,-0.2719,-0.3039,0.0,0.0,-0.4167,-0.4655,-0.4838,-0.4624,-0.5059,-0.5396,-0.5581,-0.576,-0.5862,-0.5862,-0.5862,-0.5694,-0.5369,-0.6124,-0.6637,-0.701,-0.9602,-1.0423,0.0,0.0,0.0,0.0,0.0,0.0,0.0,0.0,0.0,0.0,0.0,0.0,0.0,0.0,0.0,0.5397,0.6154,0.6849,0.7189,0.7054,0.7223,0.7989,0.7668,0.708,0.6363,0.6175,0.5883,0.53,0.5104,0.5077,0.5122,0.5027,0.5044,0.5135,0.5143,0.5085,0.5027,0.5146,0.5133,0.4991,0.0,0.0,0.529,0.4696,0.4748,0.5277,0.5277,0.5277,0.5267,0.5142,0.5023,0.4901,0.4834,0.4815,0.4973,0.6101,0.6253,0.6086,0.7458,0.7606,0.7323,0.8013,0.7743,0.7159,0.7309,0.6718,0.0,0.5731,0.5581,0.5394,0.4768,0.4248,0.3773,0.3203,0.2737,0.2398,0.2398,0.2106,0.173,0.1438,0.107,0.0717,0.0449,0.0447,0.0245,-0.0423,-0.0579,-0.0844,-0.1441,-0.173,-0.2137,-0.2789,-0.3102,-0.355,-0.4289,-0.4404,-0.4512,-0.4675,-0.4776,-0.4845,-0.4884,-0.4923,-0.4952,-0.4952,-0.4952,-0.502,-0.5156,-0.5953,-0.6461,-0.6717,-0.8163,-0.8876,0.0,0.0,0.0,0.0,0.0,0.0,0.0,0.0,0.0,0.0,0.0,0.4951,0.0,0.0,0.5829,0.572,0.6289,0.6789,0.6959,0.6938,0.7086,0.7536,0.7142,0.669,0.6355,0.6113,0.5808,0.5449,0.5397,0.5383,0.537,0.5374,0.5313,0.5297,0.5297,0.5242,0.5183,0.5214,0.5247,0.5274,0.4896,0.4986,0.5519,0.5142,0.5215,0.5627,0.5627,0.5627,0.562,0.5404,0.5328,0.5248,0.4969,0.4998,0.5197,0.5732,0.5857,0.5878,0.675,0.7079,0.7192,0.7616,0.7641,0.7535,0.7321,0.6862,0.6335,0.5921,0.5846,0.5753,0.5245,0.4895,0.4505,0.3643,0.3181,0.2812,0.2466,0.2224,0.1935,0.1576,0.1314,0.105,0.0717,0.0738,0.058,-0.009,-0.0291,-0.0514,-0.0942,-0.1274,-0.1667,-0.2198,-0.2466,-0.288,-0.3529,-0.3702,-0.3868,-0.4142,-0.4277,-0.4406,-0.4535,-0.4655,-0.4706,-0.4706,-0.4675,-0.4744,-0.4961,-0.5492,-0.5977,-0.6418,-0.7264,-0.7922,0.0,0.0,0.0,0.0,0.0,0.0,0.0,0.0,0.571,0.6471,0.6434,0.6151,0.5923,0.6302,0.6613,0.6469,0.682,0.7162,0.732,0.7258,0.7155,0.7115,0.6748,0.6555,0.6681,0.6332,0.6009,0.585,0.5845,0.5791,0.5622,0.5622,0.5567,0.5352,0.5352,0.5352,0.5297,0.5183,0.5198,0.54,0.5078,0.5184,0.559,0.5494,0.5599,0.5888,0.5888,0.5888,0.5888,0.5752,0.5683,0.5606,0.5352,0.5381,0.5647,0.5578,0.5797,0.6096,0.6168,0.6534,0.6918,0.6918,0.7192,0.7461,0.6912,0.6745,0.6548,0.5843,0.5849,0.601,0.5544,0.5485,0.5308,0.4149,0.3685,0.3261,0.2567,0.2403,0.225,0.1825,0.1736,0.156,0.1025,0.0936,0.0715,0.0134,-0.0067,-0.0292,-0.0628,-0.094,-0.1227,-0.156,-0.185,-0.2228,-0.2751,-0.3052,-0.3309,-0.3507,-0.3792,-0.4048,-0.426,-0.4475,-0.4595,-0.4587,-0.4564,-0.4593,-0.4704,-0.503,-0.5473,-0.6036,-0.6604,-0.7276,0.4234,0.454,0.0,0.5169,0.5829,0.6504,0.0,0.0,0.6918,0.6795,0.6746,0.6615,0.6221,0.6534,0.6862,0.6938,0.7277,0.7587,0.7793,0.741,0.7101,0.7095,0.7362,0.7422,0.7079,0.6977,0.6707,0.6005,0.6005,0.5896,0.5795,0.5795,0.5736,0.5567,0.5567,0.5458,0.5297,0.5297,0.5309,0.5333,0.4676,0.4828,0.5605,0.4998,0.5142,0.5888,0.5888,0.5888,0.5888,0.5888,0.5888,0.5888,0.5804,0.5747,0.5674,0.5612,0.5657,0.5726,0.6055,0.6263,0.6317,0.6317,0.6317,0.6372,0.6317,0.61,0.5878,0.5801,0.5959,0.607,0.5557,0.5635,0.5533,0.4219,0.3598,0.3096,0.2306,0.2044,0.1872,0.1598,0.1493,0.1296,0.0825,0.087,0.0892,0.058,0.0403,0.0179,-0.0223,-0.0557,-0.0892,-0.1227,-0.1696,-0.2228,-0.2751,-0.3105,-0.3281,-0.3245,-0.3563,-0.3744,-0.3772,-0.4084,-0.4219,-0.4171,-0.4277,-0.4338,-0.4354,-0.4855,-0.5222,-0.5411,-0.6077,-0.6835,0.6516,0.0,0.0,0.0,0.7056,0.7447,0.7518,0.7546,0.7701,0.8174,0.8064,0.787,0.7681,0.7702,0.7742,0.0,0.7772,0.7699,0.7492,0.7241,0.6977,0.6603,0.6712,0.6766,0.6603,0.6549,0.644,0.6119,0.6119,0.6064,0.5896,0.6012,0.6018,0.5897,0.611,0.6173,0.5938,0.6042,0.6031,0.5912,0.5567,0.5643,0.6062,0.5709,0.5788,0.6218,0.6218,0.6218,0.6152,0.6086,0.6083,0.6086,0.5954,0.6106,0.6326,0.5709,0.5374,0.5251,0.5296,0.5481,0.5664,0.5664,0.5932,0.6209,0.6209,0.61,0.6046,0.6046,0.61,0.6136,0.5944,0.5859,0.5571,0.4553,0.3899,0.329,0.2449,0.2205,0.2066,0.1825,0.1894,0.1828,0.1358,0.1358,0.1316,0.1048,0.0738,0.0335,-0.0201,-0.0313,-0.0535,-0.1027,-0.1629,-0.2096,-0.2315,-0.2637,-0.2896,-0.3019,-0.3169,-0.3296,-0.3465,-0.3779,-0.3862,-0.3647,-0.3848,-0.3842,-0.3613,-0.4103,-0.4446,-0.4683,-0.5352,-0.5994,0.7306,0.0,0.0,0.7675,0.821,0.8504,0.8681,0.8585,0.8672,0.936,0.922,0.8981,0.8974,0.8771,0.8609,0.845,0.8268,0.7925,0.7402,0.7192,0.6923,0.65,0.6287,0.6178,0.6178,0.6178,0.6178,0.6178,0.6178,0.6201,0.6138,0.634,0.642,0.6352,0.6679,0.6731,0.6549,0.6677,0.6679,0.6548,0.6411,0.6415,0.6478,0.6346,0.6294,0.642,0.642,0.642,0.6416,0.628,0.628,0.6214,0.6086,0.6346,0.665,0.5879,0.5651,0.5616,0.5351,0.5405,0.5618,0.5567,0.5714,0.5937,0.5937,0.5828,0.5719,0.5719,0.5823,0.5937,0.5937,0.594,0.5714,0.4867,0.4272,0.3638,0.2658,0.2393,0.226,0.2016,0.214,0.2158,0.1733,0.1667,0.1579,0.1341,0.0983,0.0558,0.0045,-0.0067,-0.0334,-0.0936,-0.1493,-0.1872,-0.1986,-0.2294,-0.2555,-0.2783,-0.2864,-0.2987,-0.3184,-0.35,-0.3542,-0.3317,-0.3528,-0.3502,-0.3218,-0.3657,-0.3988,-0.4193,-0.4801,-0.5308,0.0,0.0,0.6609,0.7949,0.8973,0.9769,1.0238,1.023,1.0106,0.9987,0.9858,0.9748,0.9578,0.9592,0.9392,0.8862,0.8771,0.856,0.7978,0.7456,0.7085,0.7085,0.6549,0.6178,0.0,0.6178,0.6178,0.6178,0.6178,0.6262,0.6454,0.667,0.6815,0.6889,0.709,0.7134,0.7007,0.7016,0.7016,0.6951,0.6806,0.6671,0.6675,0.6474,0.6412,0.642,0.642,0.642,0.642,0.642,0.642,0.642,0.6416,0.642,0.6416,0.6207,0.6724,0.7363,0.6769,0.6568,0.6525,0.627,0.5769,0.5332,0.5332,0.4952,0.4574,0.4574,0.4952,0.5332,0.5332,0.5764,0.5939,0.5024,0.464,0.4149,0.2856,0.2498,0.2295,0.1968,0.1964,0.1916,0.1645,0.1601,0.1535,0.1341,0.1185,0.0983,0.0713,0.0222,-0.0334,-0.0936,-0.1245,-0.1576,-0.1964,-0.225,-0.2425,-0.2517,-0.2762,-0.2901,-0.2901,-0.3163,-0.3317,-0.3296,-0.3437,-0.3494,-0.348,-0.3896,-0.4101,-0.4114,-0.4595,-0.4962,0.5747,0.0,0.7532,0.8728,0.9318,0.9667,0.9898,0.9979,1.0029,1.0004,0.9614,0.9187,0.8914,0.8985,0.8936,0.8546,0.8931,0.8981,0.8031,0.8084,0.7931,0.7192,0.7241,0.0,0.0,0.0,0.0,0.6178,0.63,0.6463,0.6674,0.7078,0.7362,0.7503,0.7836,0.7877,0.7739,0.7866,0.7856,0.7715,0.7503,0.7307,0.7063,0.6865,0.6731,0.6613,0.6482,0.642,0.642,0.642,0.642,0.642,0.642,0.6679,0.7134,0.6937,0.7344,0.7751,0.6471,0.6125,0.6307,0.6245,0.59,0.5563,0.5563,0.5314,0.5007,0.5007,0.5445,0.5828,0.5391,0.5445,0.5411,0.4658,0.4172,0.3759,0.3249,0.2984,0.2737,0.2323,0.2358,0.234,0.1934,0.1872,0.1828,0.1718,0.1272,0.0892,0.0714,0.0358,0.0,-0.0247,-0.0714,-0.107,-0.125,-0.1554,-0.1843,-0.2096,-0.2015,-0.2146,-0.2546,-0.2692,-0.2778,-0.2837,-0.3014,-0.2995,-0.2772,-0.3454,-0.3731,-0.3659,-0.4344,-0.4823,0.6552,0.7463,0.8279,0.9312,0.9762,0.9938,0.9972,1.0043,1.0072,0.9941,0.9376,0.8812,0.847,0.8312,0.815,0.7854,0.8196,0.829,0.7752,0.7795,0.7662,0.7219,0.7235,0.0,0.0,0.0,0.0,0.6398,0.6515,0.6744,0.7163,0.7508,0.7792,0.7995,0.8335,0.8435,0.8291,0.8415,0.8403,0.8174,0.7979,0.7717,0.7333,0.7198,0.6992,0.6745,0.6613,0.6482,0.6548,0.6741,0.6613,0.6416,0.6679,0.7068,0.7456,0.7068,0.7326,0.7812,0.6713,0.6506,0.6698,0.656,0.627,0.5927,0.5927,0.5629,0.5322,0.5429,0.5716,0.5941,0.5664,0.5605,0.5457,0.4785,0.4347,0.398,0.3565,0.3325,0.3078,0.269,0.262,0.2509,0.2134,0.1889,0.1696,0.1493,0.1159,0.0914,0.0892,0.0515,0.0225,0.0112,-0.0447,-0.0825,-0.0892,-0.1181,-0.1469,-0.1711,-0.1554,-0.1642,-0.2019,-0.2102,-0.2167,-0.2202,-0.2476,-0.2536,-0.2392,-0.3126,-0.3475,-0.3445,-0.4135,-0.4564,0.7272,0.8206,0.888,0.9731,1.0216,1.0522,1.0522,1.0403,1.0183,0.9758,0.9133,0.8534,0.0,0.0,0.7083,0.6906,0.6732,0.6842,0.7304,0.6741,0.6529,0.0,0.0,0.0,0.0,0.0,0.0,0.6899,0.0,0.7163,0.7763,0.7985,0.8193,0.8411,0.86,0.8703,0.8703,0.8703,0.8627,0.8403,0.8216,0.7947,0.7535,0.7407,0.7207,0.6894,0.6749,0.6741,0.6741,0.726,0.7068,0.6482,0.7199,0.7456,0.7391,0.6741,0.6937,0.7562,0.7618,0.7611,0.7514,0.7295,0.6791,0.6302,0.6302,0.5821,0.5335,0.5719,0.5767,0.574,0.6105,0.6154,0.6002,0.5362,0.5097,0.4717,0.3845,0.3545,0.3369,0.3083,0.2742,0.2453,0.2248,0.1716,0.1185,0.0803,0.0892,0.105,0.1163,0.074,0.0337,0.0135,-0.0403,-0.0781,-0.0871,-0.1118,-0.1294,-0.1353,-0.1353,-0.1375,-0.1397,-0.1441,-0.1488,-0.151,-0.1883,-0.2193,-0.2376,-0.2998,-0.3366,-0.3506,-0.398,-0.4219,0.8093,0.8956,0.9667,1.0216,1.0399,1.0522,1.0522,1.0256,0.9793,0.9089,0.7995,0.6867,0.0,0.0,0.0,0.6515,0.7752,0.0,0.8286,0.8448,0.0,0.0,0.0,0.8341,0.8143,0.81,0.0,0.0,0.7673,0.7678,0.7985,0.8203,0.8415,0.8618,0.8675,0.8703,0.8703,0.8703,0.8703,0.8627,0.8576,0.8445,0.817,0.7819,0.755,0.736,0.7008,0.6881,0.6881,0.6872,0.6806,0.6613,0.6675,0.7003,0.7461,0.7265,0.7652,0.8221,0.8297,0.7832,0.7311,0.7191,0.6944,0.6573,0.6573,0.6315,0.6011,0.5992,0.626,0.6468,0.6032,0.5832,0.5647,0.5115,0.482,0.4578,0.4223,0.4126,0.3998,0.3472,0.2972,0.2556,0.2248,0.1902,0.1582,0.1341,0.1208,0.1074,0.0854,0.0761,0.0604,0.0359,0.009,-0.0179,-0.0493,-0.0584,-0.0717,-0.0935,-0.0805,-0.0936,-0.1375,-0.1269,-0.1358,-0.1714,-0.1821,-0.1975,-0.2172,-0.2832,-0.3199,-0.329,-0.3862,-0.4158,0.8972,0.9652,1.0216,1.0415,1.0522,1.0383,0.9917,0.9533,0.905,0.7995,0.692,0.0,0.0,0.0,0.0,0.0,0.0,0.0,0.8712,0.8813,0.8906,0.0,0.8831,0.0,0.8962,0.8823,0.8723,0.0,0.8305,0.8037,0.8335,0.8467,0.8585,0.8699,0.8703,0.8703,0.8703,0.8703,0.8703,0.8703,0.8703,0.8595,0.8396,0.8107,0.7836,0.7637,0.0,0.7012,0.7073,0.7199,0.7068,0.6806,0.6933,0.7195,0.7517,0.7134,0.7456,0.8037,0.7712,0.7456,0.733,0.733,0.7187,0.6967,0.6651,0.645,0.6275,0.6353,0.6492,0.6554,0.6323,0.6174,0.5887,0.5391,0.5082,0.4797,0.4451,0.4281,0.4056,0.3615,0.3265,0.2882,0.235,0.1981,0.1648,0.1371,0.1121,0.0919,0.0766,0.0718,0.0694,0.0627,0.0426,0.0157,-0.0157,-0.018,-0.0314,-0.0605,-0.0516,-0.0606,-0.0936,-0.0871,-0.1005,-0.1358,-0.1516,-0.1714,-0.2019,-0.2536,-0.2901,-0.312,-0.3584,-0.3869,0.9819,1.0282,1.0522,1.0522,1.0522,1.0221,0.9127,0.8707,0.8116,0.6687,0.0,0.5279,0.4893,0.0,0.5253,0.5807,0.0,0.7663,0.8802,0.8636,0.8771,0.9814,0.8931,0.8574,0.9418,0.9224,0.9226,0.9741,0.8965,0.8612,0.8983,0.9003,0.9003,0.9074,0.9003,0.9003,0.9003,0.9003,0.9003,0.9003,0.9003,0.8835,0.8582,0.8475,0.819,0.7806,0.7631,0.7396,0.7269,0.7787,0.7596,0.7012,0.7451,0.7642,0.7577,0.6872,0.7003,0.7521,0.6872,0.7068,0.7587,0.7521,0.7587,0.7521,0.6872,0.6565,0.643,0.6786,0.6587,0.636,0.6654,0.6561,0.6301,0.5837,0.5429,0.5019,0.4587,0.4167,0.3869,0.3685,0.3595,0.3293,0.254,0.2064,0.166,0.1244,0.0942,0.0809,0.0856,0.0742,0.0696,0.0849,0.0625,0.0379,0.0157,0.0157,0.0022,-0.0269,-0.0292,-0.0314,-0.0337,-0.0382,-0.0539,-0.0803,-0.1094,-0.1452,-0.185,-0.2184,-0.2551,-0.2912,-0.3175,-0.3457,1.0606,1.0626,1.0522,1.0522,1.0522,1.0158,0.8936,0.8356,0.0,0.0,0.0,0.4076,0.3397,0.3617,0.0,0.5673,0.0,0.0,0.0,0.0,0.9649,0.0,0.0,0.0,0.0,0.0,0.0,0.0,0.0,1.0347,1.0432,1.0438,1.0576,1.0932,1.0801,1.0657,1.0657,1.0657,1.0657,1.0657,1.0657,1.034,0.9616,0.9817,0.9238,0.8074,0.881,0.0,0.7461,0.7977,0.7787,0.7138,0.7073,0.7326,0.7707,0.7512,0.7842,0.8296,0.8166,0.8231,0.8231,0.7652,0.7847,0.8296,0.8166,0.7752,0.7237,0.7187,0.6719,0.6166,0.5918,0.5706,0.5592,0.544,0.5135,0.4787,0.4543,0.4167,0.3914,0.4012,0.3822,0.3521,0.3031,0.2621,0.2195,0.1667,0.1361,0.121,0.121,0.1052,0.0851,0.0673,0.0738,0.069,0.0379,0.0402,0.0402,0.0357,0.029,0.0179,0.0022,0.0,-0.0247,-0.0781,-0.0914,-0.1161,-0.1566,-0.1898,-0.218,-0.2437,-0.2697,-0.3019,1.0872,1.0718,1.0522,1.0522,1.0327,0.9762,0.8195,0.0,0.0,0.0,0.3914,0.3522,0.3164,0.0,0.0,0.0,0.0,0.0,0.0,0.0,0.0,0.0,0.0,0.0,0.0,0.0,0.0,0.0,0.0,1.0887,1.0812,1.0812,1.0887,1.1099,1.1316,1.1174,1.0812,1.1099,1.1174,1.1111,1.1111,1.0816,1.0307,1.0272,0.9811,0.8985,0.9355,0.9134,0.8554,0.8812,0.8683,0.8361,0.8226,0.8285,0.8474,0.8027,0.8032,0.8161,0.7712,0.7777,0.8037,0.7652,0.7717,0.7977,0.7977,0.7782,0.7567,0.7777,0.7598,0.7092,0.6592,0.6276,0.5988,0.5563,0.5064,0.4565,0.4326,0.409,0.3923,0.3993,0.3944,0.3802,0.3418,0.2986,0.2557,0.2133,0.1718,0.1427,0.1321,0.1208,0.1074,0.0873,0.094,0.087,0.0535,0.0557,0.0535,0.0358,0.0379,0.0334,0.0201,0.0179,-0.0045,-0.049,-0.0581,-0.0895,-0.1388,-0.1566,-0.1872,-0.2307,-0.2507,-0.2762,1.0905,1.0718,1.0522,1.0565,1.0242,0.9439,0.7579,0.6745,0.0,0.0,0.337,0.3342,0.3357,0.0,0.0,0.0,0.0,0.0,0.0,0.0,0.0,0.0,0.0,0.0,0.0,0.0,0.0,0.0,0.0,0.0,1.1037,1.1111,1.1186,1.1186,1.1613,1.1545,1.0887,1.1391,1.1465,1.126,1.1409,1.1193,1.0629,1.0703,1.043,0.982,0.9885,0.9773,0.9518,0.9646,0.9646,0.9518,0.9378,0.9308,0.9244,0.8538,0.828,0.8091,0.7447,0.7447,0.7772,0.7582,0.7652,0.7717,0.7717,0.7587,0.7587,0.8166,0.8032,0.7689,0.7332,0.6865,0.6372,0.5642,0.4948,0.4397,0.4169,0.3951,0.3858,0.3886,0.3993,0.396,0.37,0.3313,0.2896,0.2532,0.2064,0.1657,0.1433,0.1385,0.1319,0.1185,0.1116,0.0953,0.0631,0.0706,0.0642,0.0328,0.0442,0.0468,0.0357,0.0269,0.009,-0.0245,-0.0381,-0.0696,-0.1208,-0.1274,-0.1585,-0.211,-0.2294,-0.2551,1.0881,1.0718,1.0573,1.082,1.0392,0.9477,0.7753,0.0,0.0,0.3884,0.3434,0.3429,0.3549,0.334,0.3502,0.0,0.0,0.5663,0.0,0.0,0.0,0.0,0.0,0.0,0.0,0.0,0.0,0.0,0.0,0.0,1.1929,1.2224,1.2452,1.2452,1.2298,1.2224,1.215,1.2224,1.2003,1.1632,1.2378,1.1999,1.0629,1.1764,1.1384,0.9886,1.0923,0.0,0.0,1.0161,1.0034,0.9518,0.9518,0.9384,0.9308,0.918,0.9052,0.8924,0.8796,0.8409,0.7962,0.7772,0.8032,0.8425,0.8425,0.7977,0.7521,0.7587,0.712,0.6677,0.7061,0.6612,0.581,0.5139,0.4666,0.435,0.413,0.3849,0.3695,0.3858,0.3923,0.3886,0.3785,0.358,0.3284,0.2829,0.2457,0.2124,0.1798,0.1645,0.1513,0.1388,0.1163,0.0888,0.0622,0.0835,0.0885,0.0675,0.0833,0.0805,0.0494,0.0427,0.0135,-0.0382,-0.0517,-0.0696,-0.0936,-0.1185,-0.1363,-0.1499,-0.1876,-0.2245,1.1075,1.0898,1.0556,1.0736,0.9773,0.8504,0.7316,0.0,0.5065,0.3765,0.352,0.3528,0.3591,0.3502,0.3605,0.4163,0.4745,0.0,0.0,0.0,0.0,0.0,0.0,0.0,0.0,0.0,0.0,0.0,0.0,0.0,1.2526,1.2673,1.2966,1.3324,1.3542,1.3477,1.3046,1.3404,1.3258,1.2599,1.3071,1.2523,1.1096,1.1553,1.1114,0.998,1.0651,0.0,0.0,1.0863,1.0989,1.073,1.073,1.0724,1.0661,1.0218,0.9964,0.9837,0.9378,0.8737,0.8096,0.7962,0.7712,0.7591,0.7847,0.7717,0.7587,0.7972,0.7907,0.7627,0.7416,0.6657,0.5787,0.5389,0.4873,0.4457,0.4349,0.3984,0.3667,0.3765,0.3858,0.379,0.3489,0.338,0.3137,0.2641,0.2527,0.2291,0.1753,0.1736,0.1651,0.1319,0.1185,0.1036,0.0853,0.0835,0.0735,0.0531,0.0702,0.0699,0.0458,0.0372,0.0225,-0.0045,-0.0292,-0.0539,-0.0781,-0.0936,-0.1094,-0.1296,-0.1648,-0.1935,1.0646,1.0795,1.0696,1.0844,0.9614,0.8097,0.0,0.0,0.4773,0.3923,0.3779,0.38,0.3723,0.3744,0.3786,0.389,0.4483,0.5121,0.0,0.0,0.0,0.0,0.0,0.0,0.0,0.0,0.0,0.0,0.0,0.0,1.3404,1.3258,1.3258,1.3542,1.3912,1.3848,1.3346,1.3775,1.3578,1.276,1.3189,1.2644,1.135,1.1598,1.1261,1.0528,1.0793,1.0863,0.0,1.1373,1.1622,1.1622,1.1622,1.1622,1.156,1.0989,1.08,1.0737,1.0212,0.9512,0.8877,0.8737,0.8221,0.7587,0.7652,0.7456,0.7391,0.7842,0.8102,0.8021,0.7316,0.671,0.6159,0.5793,0.5021,0.4384,0.4483,0.3897,0.3398,0.3514,0.3584,0.3528,0.3238,0.3178,0.304,0.2544,0.253,0.2379,0.1826,0.1932,0.1906,0.146,0.1385,0.126,0.099,0.0883,0.0692,0.0395,0.0576,0.0567,0.0287,0.0261,0.018,0.009,-0.018,-0.0427,-0.0604,-0.0758,-0.0914,-0.105,-0.1405,-0.1626,0.9409,1.0182,1.106,1.1343,1.0093,0.8676,0.0,0.0,0.5265,0.4461,0.4293,0.4232,0.4022,0.3939,0.389,0.3911,0.3744,0.4079,0.0,0.0,0.0,0.0,0.0,0.0,0.0,0.0,0.0,0.0,0.0,0.0,1.4569,1.4057,1.3542,1.29,1.2893,1.2893,1.29,1.29,1.2521,1.1793,1.265,1.2384,1.1297,1.2093,1.2243,1.1802,0.0,1.1677,0.0,1.1622,1.1622,1.1622,1.1622,1.1622,1.1622,1.156,1.156,1.156,1.156,1.1115,1.0421,1.0338,0.9818,0.9116,0.828,0.7381,0.6741,0.6741,0.7129,0.7279,0.6447,0.6701,0.6959,0.6107,0.496,0.4155,0.4461,0.3452,0.2639,0.3107,0.3093,0.303,0.3091,0.315,0.305,0.2669,0.2528,0.2398,0.2124,0.2321,0.2348,0.193,0.1828,0.1549,0.0943,0.1021,0.0863,0.0336,0.0557,0.0495,0.0022,0.0067,0.0,-0.0202,-0.0337,-0.0405,-0.0405,-0.0738,-0.0825,-0.0714,-0.105,-0.1383,0.8639,0.8858,0.895,0.9156,0.8038,0.6839,0.6702,0.5748,0.4838,0.4619,0.4567,0.4515,0.4309,0.4268,0.4139,0.3823,0.4011,0.4358,0.0,0.0,0.0,0.0,0.0,0.0,0.0,0.0,0.0,0.0,0.0,0.0,1.4569,1.4418,1.4274,1.4057,1.4057,1.4057,1.4057,1.4057,1.3603,1.2783,1.318,1.2699,1.1362,1.1596,1.1374,0.0,0.0,1.1156,1.1101,1.1553,1.1685,1.1622,1.1622,1.1622,1.1622,1.1622,1.1622,1.1622,1.1622,1.1122,1.0485,1.0478,0.9964,0.9384,0.9128,0.835,0.7512,0.7007,0.6942,0.6994,0.6737,0.6749,0.6818,0.6515,0.5923,0.5244,0.4642,0.4122,0.3616,0.291,0.2862,0.2855,0.2584,0.2637,0.2591,0.224,0.2406,0.2443,0.2079,0.2228,0.2326,0.2255,0.1926,0.1611,0.1335,0.1102,0.0885,0.0724,0.0832,0.0721,0.0288,0.026,0.0112,-0.0135,-0.0315,-0.0405,-0.0405,-0.0561,-0.0694,-0.0847,-0.0936,-0.1116,0.0,0.8171,0.8275,0.8409,0.742,0.0,0.0,0.5665,0.4922,0.4873,0.4814,0.4695,0.4443,0.437,0.4236,0.3931,0.4115,0.0,0.0,0.0,0.0,0.0,0.0,0.0,0.0,0.0,0.0,0.0,0.0,0.0,1.4569,1.4569,1.4569,1.4569,1.4569,1.4569,1.4569,1.4435,1.405,1.3363,1.3361,1.2887,1.1838,1.1821,1.1593,0.0,1.1406,1.1406,0.0,1.167,1.174,1.1685,1.1622,1.1622,1.1622,1.1622,1.1435,1.1178,1.1178,1.0863,1.0485,1.0485,1.0225,0.9837,0.9582,0.8807,0.8032,0.7777,0.733,0.6946,0.7265,0.7044,0.6762,0.6762,0.632,0.5646,0.4756,0.4235,0.3648,0.2691,0.2597,0.2527,0.2215,0.2367,0.2391,0.1976,0.2239,0.2388,0.207,0.2247,0.235,0.227,0.2059,0.1878,0.1739,0.1411,0.115,0.1029,0.1084,0.0939,0.0538,0.0542,0.0446,0.0201,0.0,-0.0112,-0.0179,-0.0359,-0.0584,-0.0784,-0.0761,-0.0871,0.0,0.7849,0.0,0.0,0.0,0.0,0.0,0.6254,0.0,0.5166,0.501,0.4814,0.4483,0.4309,0.4207,0.4207,0.0,0.0,0.0,0.0,0.0,0.0,0.0,0.0,0.0,0.0,0.0,0.0,0.0,0.0,1.4569,1.4569,1.4553,1.4609,1.453,1.453,1.453,1.4275,1.3918,1.3545,1.3243,1.2909,1.2621,1.2621,1.2498,0.0,1.2305,1.2243,1.2127,1.1934,1.1802,1.1809,1.1685,1.1622,1.1622,1.1622,1.1185,1.0548,1.0548,1.0548,1.0485,1.0421,1.0421,1.0295,0.9709,0.8941,0.8361,0.8865,0.8037,0.7204,0.7837,0.7521,0.6946,0.6946,0.6397,0.5658,0.4921,0.3971,0.3101,0.2571,0.2363,0.2189,0.1961,0.2291,0.2421,0.1913,0.2085,0.2236,0.2121,0.2328,0.238,0.2094,0.2193,0.2273,0.2165,0.1888,0.1563,0.1284,0.1301,0.1163,0.0758,0.0914,0.0936,0.0736,0.0512,0.0356,0.0222,-0.0179,-0.045,-0.0585,-0.054,-0.0651,0.5769,0.0,0.6354,0.604,0.6004,0.6015,0.0,0.5686,0.5377,0.5214,0.0,0.0,0.4675,0.4483,0.0,0.0,0.0,0.0,0.0,0.0,0.0,0.0,0.0,0.0,0.0,0.0,0.0,0.0,0.0,1.4569,1.4569,1.4569,1.4443,1.4244,1.4236,1.4236,1.4236,1.4148,1.3807,1.3211,1.3132,1.2909,1.2621,1.2621,1.256,1.256,1.256,1.2428,1.2243,1.2182,1.212,1.1996,1.1809,1.174,1.1747,1.1622,1.1498,1.1373,1.1373,1.0989,1.0421,0.9907,0.9709,0.9709,0.9518,0.939,0.9134,0.8742,0.8361,0.8166,0.8355,0.7842,0.733,0.733,0.7182,0.6833,0.5901,0.5216,0.4457,0.3427,0.2963,0.2641,0.2348,0.2419,0.2411,0.2079,0.2088,0.2121,0.2029,0.2138,0.2291,0.2574,0.2438,0.2468,0.282,0.2143,0.1738,0.1802,0.1731,0.1541,0.1252,0.123,0.1139,0.0936,0.069,0.049,0.0356,-0.0045,-0.0313,-0.045,-0.054,-0.0607,0.4812,0.4989,0.523,0.5197,0.5349,0.5553,0.5745,0.0,0.0,0.0,0.0,0.0,0.0,0.0,0.0,0.0,0.0,0.0,0.0,0.0,0.0,0.0,0.0,0.0,0.0,0.0,0.0,0.0,0.0,1.5125,1.5125,1.4977,1.4727,1.4385,1.4231,1.4006,1.387,1.3719,1.3537,1.3314,1.3163,1.3068,1.3036,1.3036,1.3036,1.3036,1.3036,1.3028,1.2893,1.2844,1.2788,1.266,1.2459,1.2296,1.216,1.197,1.1614,1.1233,1.1115,1.08,1.0421,1.0098,0.997,0.9843,0.9198,0.9262,0.9454,0.9069,0.8748,0.8554,0.8877,0.8683,0.8361,0.8037,0.7972,0.7608,0.6346,0.5766,0.5096,0.3769,0.3199,0.2785,0.2311,0.2354,0.2359,0.2061,0.2137,0.2198,0.2139,0.2179,0.2276,0.2537,0.264,0.2719,0.2719,0.2605,0.2406,0.2113,0.1959,0.1811,0.1634,0.1535,0.1392,0.1185,0.1005,0.0803,0.0579,0.0311,0.0022,-0.0268,-0.0335,-0.0448,0.4054,0.4388,0.4885,0.5128,0.5246,0.543,0.5895,0.0,0.0,0.0,0.0,0.0,0.0,0.0,0.0,0.0,0.0,0.0,0.0,0.0,0.0,0.0,0.0,0.0,0.0,0.0,0.0,0.0,0.0,1.5591,1.5591,1.53,1.4968,1.4622,1.4197,1.3884,1.3491,1.3268,1.3227,1.3505,1.3227,1.3267,1.3584,1.3584,1.3584,1.3584,0.0,0.0,1.3584,1.3475,1.3416,1.3416,1.3215,1.2933,1.2634,1.2432,1.176,1.0968,1.0667,1.0548,1.0485,1.0288,1.0161,0.997,0.8748,0.8748,0.9198,0.9198,0.8877,0.8619,0.9198,0.9326,0.9198,0.8619,0.8554,0.8269,0.6902,0.638,0.5726,0.4311,0.368,0.3161,0.2373,0.2383,0.2362,0.1995,0.2187,0.2322,0.225,0.222,0.2261,0.2341,0.2809,0.2918,0.2513,0.3038,0.3095,0.2456,0.2203,0.2012,0.1868,0.176,0.1609,0.1441,0.1371,0.1184,0.0881,0.0741,0.0439,0.0,-0.0069,-0.0278,0.3846,0.4599,0.5267,0.4826,0.5012,0.5414,0.5893,0.0,0.0,0.0,0.0,0.0,0.0,0.0,0.0,0.0,0.0,0.0,0.0,0.0,0.0,0.0,0.0,0.0,0.0,0.0,0.0,0.0,0.0,1.4771,1.4771,1.4712,1.4533,1.4128,1.3813,1.3512,1.3091,1.3092,1.3116,1.3171,1.3116,1.3267,1.3584,1.3584,1.3584,1.3584,0.0,1.3584,1.3584,1.3584,1.3592,1.3526,1.3416,1.3138,1.2755,1.2634,1.2292,1.1802,1.1031,1.0661,1.0295,0.9198,0.8812,0.8683,0.7907,0.7717,0.7782,0.7782,0.8166,0.8554,0.8619,0.8678,0.8619,0.8554,0.8941,0.9285,0.9056,0.8527,0.7816,0.6754,0.5837,0.4824,0.358,0.3113,0.2733,0.2237,0.2154,0.2086,0.1905,0.1886,0.2061,0.2506,0.2582,0.2791,0.329,0.3053,0.3026,0.3283,0.2751,0.2218,0.1756,0.1701,0.1694,0.1648,0.1602,0.144,0.1221,0.103,0.0785,0.0487,0.0081,-0.0271,0.3674,0.4159,0.4796,0.5628,0.6462,0.7187,0.0,0.0,0.0,0.0,0.0,0.0,0.0,0.0,0.0,0.0,0.0,0.0,0.0,0.0,0.0,0.0,0.0,0.0,0.0,0.0,0.0,0.0,0.0,0.0,1.518,1.4985,1.4718,1.4336,1.4003,1.3638,1.3277,1.3145,1.3091,1.3092,1.3267,1.3537,1.3878,1.4069,1.4156,1.4156,0.0,1.4156,1.4156,1.4156,1.4156,1.4156,1.4095,1.3703,1.3176,1.2615,1.232,1.2058,1.167,1.1358,1.1045,1.0078,0.964,0.9454,0.8807,0.8554,0.849,0.8166,0.8231,0.849,0.849,0.9069,0.9518,0.9134,0.9582,0.997,0.9582,0.9188,0.8476,0.7145,0.6397,0.5541,0.4119,0.3496,0.3129,0.2838,0.2512,0.2321,0.2292,0.2273,0.2442,0.2874,0.3168,0.3339,0.3375,0.3626,0.3593,0.3163,0.3043,0.2723,0.2143,0.2128,0.2004,0.1755,0.1675,0.1622,0.1508,0.1399,0.1176,0.0867,0.0615,0.0219,0.3607,0.4097,0.4882,0.6494,0.7382,0.0,0.0,0.0,0.0,0.0,0.0,0.0,0.0,0.0,0.0,0.0,0.0,0.0,0.0,0.0,0.0,0.0,0.0,0.0,0.0,0.0,0.0,0.0,0.0,0.0,1.5414,1.5129,1.4832,1.4568,1.4221,1.3881,1.3631,1.3277,1.3161,1.322,1.3411,1.3696,1.4117,1.4395,1.4561,1.4569,1.4569,1.4569,1.4569,1.4569,1.4522,1.4443,1.4443,1.4085,1.3394,1.2657,1.2305,1.2127,1.2127,1.2058,1.174,1.1087,1.0717,1.0478,0.9837,0.964,0.9518,0.9,0.8871,0.8742,0.8361,0.9262,1.0161,0.9646,1.0034,1.0421,1.0098,0.9827,0.926,0.7785,0.7062,0.6228,0.4871,0.4025,0.3519,0.3435,0.2974,0.2692,0.2878,0.2785,0.288,0.3305,0.3704,0.3827,0.3501,0.421,0.4242,0.3229,0.316,0.2931,0.2413,0.2394,0.2218,0.1841,0.1751,0.1693,0.1664,0.1611,0.1467,0.1202,0.1085,0.0712,0.3697,0.5104,0.6636,0.6854,0.6264,0.0,0.8807,0.8595,0.0,0.8744,0.0,0.0,0.0,0.0,0.0,0.0,0.0,0.0,0.0,0.0,0.0,0.0,0.0,0.0,0.0,0.0,0.0,0.0,0.0,0.0,1.4598,1.457,1.4552,1.4492,1.4148,1.401,1.3941,1.3631,1.3515,1.3578,1.33,1.3473,1.4109,1.414,1.4331,1.4569,1.4569,1.4569,1.4569,1.4569,1.445,1.4148,1.4148,1.3727,1.3084,1.2703,1.2436,1.2305,1.2305,1.2182,1.1934,1.1212,1.0954,1.0829,1.0142,0.9952,0.9958,0.9888,0.9894,0.9506,0.7972,0.8554,0.9582,0.9518,1.0034,1.0674,1.1303,1.1439,1.1097,1.0046,0.8727,0.745,0.6335,0.4987,0.3988,0.3779,0.3348,0.3152,0.3425,0.3063,0.3056,0.3761,0.3833,0.3862,0.4017,0.4505,0.4646,0.4318,0.3151,0.2362,0.2137,0.206,0.1988,0.189,0.1755,0.1654,0.1621,0.1588,0.1559,0.1464,0.1197,0.086,0.442,0.5688,0.6938,0.7261,0.7084,0.0,0.0,1.0232,1.035,1.0576,1.1099,0.0,0.0,0.0,0.0,0.0,0.0,0.0,0.0,0.0,0.0,0.0,0.0,0.0,0.0,0.0,0.0,0.0,0.0,0.0,1.4515,1.4515,1.4515,1.4515,1.4387,1.4327,1.4327,1.401,1.383,1.3856,1.3723,1.3727,1.3794,1.4022,1.4066,1.3982,1.3982,1.3982,1.3982,1.3982,1.3902,1.3767,1.3561,1.3314,1.3044,1.2695,1.256,1.2498,1.2498,1.2367,1.2182,1.1919,1.1725,1.167,1.1351,1.1296,1.1226,1.0773,1.0968,1.0975,0.9442,0.9761,1.0332,1.0085,1.0787,1.1428,1.131,1.1498,1.1389,1.0287,0.912,0.7941,0.6975,0.5527,0.4502,0.4441,0.4238,0.4144,0.4235,0.4089,0.4172,0.4698,0.4555,0.4465,0.4584,0.4468,0.4339,0.428,0.3914,0.3486,0.3006,0.2706,0.2374,0.2014,0.1878,0.1811,0.1778,0.1709,0.1642,0.1544,0.1444,0.1252,0.5078,0.5912,0.6788,0.7459,0.0,0.0,1.0552,1.1184,1.1497,1.2213,1.266,0.0,0.0,0.0,0.0,0.0,0.0,0.0,0.0,0.0,0.0,0.0,0.0,0.0,0.0,0.0,0.0,0.0,0.0,0.0,0.0,1.4515,1.4515,1.4515,1.4515,1.4515,1.4515,1.4258,1.4139,1.4139,1.4162,1.3964,1.3586,1.3834,1.3811,1.3584,1.3584,1.3584,1.3584,1.3584,1.3521,1.3394,1.306,1.2925,1.2893,1.2647,1.2621,1.2621,1.2621,1.2498,1.2367,1.2367,1.2313,1.2251,1.2251,1.2251,1.212,1.1655,1.1856,1.2058,1.1094,1.0899,1.0892,1.0584,1.1156,1.1677,1.1435,1.1685,1.1661,1.0862,0.9888,0.8846,0.8018,0.657,0.5451,0.526,0.503,0.4937,0.506,0.5073,0.5159,0.543,0.5145,0.4928,0.4985,0.4622,0.4403,0.4436,0.4494,0.4237,0.3695,0.3261,0.2838,0.2414,0.2178,0.2011,0.1947,0.1878,0.1778,0.1709,0.1709,0.1578,0.5583,0.5813,0.0,0.0,0.0,0.0,1.1295,1.1006,1.0943,1.3486,0.0,0.0,0.0,0.0,0.0,0.0,0.0,0.0,0.0,0.0,0.0,0.0,0.0,0.0,0.0,0.0,0.0,0.0,0.0,0.0,0.0,1.4515,1.4515,1.4515,1.4515,1.4515,1.4515,1.4515,1.4515,1.4515,1.4515,1.4162,1.3633,1.3633,1.3566,1.3576,1.3576,1.3576,1.3576,1.3576,1.3378,1.3052,1.2703,1.2621,1.2621,1.2621,1.2621,1.2621,1.2621,1.2621,1.2621,1.2621,1.2621,1.2621,1.2621,1.2621,1.2621,1.2621,1.2621,1.2621,1.2621,1.1787,1.1017,1.1017,1.1017,1.1212,1.1926,1.2127,1.2127,1.2127,1.1249,1.0295,0.9719,0.8208,0.6888,0.6282,0.57,0.5462,0.5848,0.5862,0.58,0.58,0.5458,0.5207,0.5207,0.5087,0.4992,0.4992,0.4692,0.4371,0.4026,0.3556,0.3229,0.3105,0.2639,0.2311,0.2117,0.2117,0.2081,0.2014,0.2014,0.1878,0.5926,0.0,0.0,0.0,0.0,0.0,0.0,1.2459,0.0,0.0,0.0,0.0,0.0,0.0,0.0,0.0,0.0,0.0,0.0,0.0,0.0,0.0,0.0,0.0,0.0,0.0,0.0,0.0,0.0,0.0,0.0,1.4515,1.4515,1.4515,1.4515,1.4515,1.4515,1.4515,1.4515,1.4515,1.4515,1.4261,1.3874,1.3874,1.3627,1.3176,1.3176,1.305,1.2924,1.2924,1.2869,1.2773,1.2661,1.2621,1.2621,1.2621,1.2621,1.2621,1.2621,1.2621,1.2621,1.2621,1.2621,1.2621,1.2621,1.2621,1.2621,1.2621,1.2621,1.2621,1.2621,1.2367,1.2042,1.167,1.1856,1.205,1.1809,1.1996,1.2182,1.212,1.1249,1.0219,0.9267,0.8333,0.7446,0.6525,0.6634,0.6753,0.6765,0.6748,0.6589,0.6305,0.5903,0.5651,0.5678,0.5358,0.5144,0.5144,0.5049,0.4788,0.4301,0.3914,0.3691,0.3593,0.3032,0.2772,0.2808,0.2314,0.2083,0.2081,0.2081,0.2014,0.6523,0.0,0.0,0.0,0.0,0.0,0.0,0.0,0.0,0.0,0.0,0.0,0.0,0.0,0.0,0.0,0.0,0.0,0.0,0.0,0.0,0.0,0.0,0.0,0.0,0.0,0.0,0.0,0.0,0.0,0.0,1.4515,1.4515,1.4515,1.4515,1.4515,1.4515,1.4515,1.4515,1.4515,1.4515,1.4387,1.4198,1.407,1.3709,1.3164,1.3042,1.2867,1.2621,1.2621,1.2621,1.2621,1.2621,1.2621,1.2621,1.2621,1.2621,1.2621,1.2621,1.2621,1.2621,1.2621,1.2621,1.2621,1.2621,1.2621,1.2621,1.2621,1.2621,1.2621,1.2621,1.2621,1.2498,1.2182,1.2375,1.2498,1.2065,1.2251,1.2375,1.2313,1.1755,1.105,1.0159,0.9152,0.8257,0.7586,0.7517,0.7531,0.7469,0.7334,0.7102,0.6763,0.6319,0.5985,0.5862,0.5544,0.5294,0.5119,0.5112,0.4985,0.4654,0.4301,0.4113,0.4048,0.3593,0.3298,0.327,0.2805,0.251,0.2383,0.2281,0.2214,0.7312,0.0,0.0,0.0,0.0,0.0,0.0,0.0,0.0,0.0,0.0,0.0,0.0,0.0,0.0,0.0,0.0,0.0,0.0,0.0,0.0,0.0,0.0,0.0,0.0,0.0,0.0,0.0,0.0,0.0,0.0,1.4515,1.4515,1.4515,1.4515,1.4515,1.4515,1.4515,1.4515,1.4515,1.4515,1.4515,1.4506,1.4198,1.3881,1.3511,1.3164,1.2867,1.2621,1.2621,1.2621,1.2621,1.2621,1.2621,1.2621,1.2621,1.2621,1.2621,1.2621,1.2621,1.2621,1.2621,1.2621,1.2621,1.2621,1.2621,1.2621,1.2621,1.2621,1.2621,1.2621,1.2621,1.2621,1.2621,1.2621,1.2621,1.2621,1.2621,1.2621,1.2621,1.2621,1.239,1.1769,1.0375,0.9258,0.8992,0.8334,0.7874,0.7982,0.7681,0.7422,0.7219,0.6784,0.6376,0.5964,0.5799,0.5517,0.5113,0.5062,0.5049,0.4992,0.4692,0.45,0.4447,0.4156,0.3891,0.3593,0.3425,0.3167,0.2882,0.2676,0.2513,0.0,0.9106,0.0,0.0,0.0,0.0,0.0,0.0,0.0,0.0,0.0,0.0,0.0,0.0,0.0,0.0,0.0,0.0,0.0,0.0,0.0,0.0,0.0,0.0,0.0,0.0,0.0,0.0,0.0,0.0,1.4515,1.4515,1.4515,1.4515,1.4515,1.4515,1.4515,1.4515,1.4515,1.4515,1.4515,1.4515,1.4515,1.4446,1.4198,1.3881,1.3519,1.3216,1.2928,1.2928,1.2805,1.2621,1.2621,1.2621,1.2621,1.2621,1.2621,1.2621,1.2621,1.2621,1.2621,1.2621,1.2621,1.2621,1.2621,1.2621,1.2621,1.2621,1.2621,1.2621,1.2621,1.2621,1.2621,1.2621,1.2621,1.2621,1.2621,1.2621,1.2621,1.2621,1.2621,1.2318,1.1336,1.0673,0.9875,0.8701,0.8398,0.8197,0.8013,0.8016,0.8018,0.7977,0.7702,0.7387,0.7092,0.6731,0.6279,0.5678,0.5625,0.5458,0.503,0.4922,0.4896,0.4864,0.4409,0.421,0.4269,0.3844,0.3556,0.3438,0.3335,0.3101,0.0,0.0,0.0,0.0,0.0,0.0,0.0,0.0,0.0,0.0,0.0,0.0,0.0,0.0,0.0,0.0,0.0,0.0,0.0,0.0,0.0,0.0,0.0,0.0,0.0,0.0,0.0,0.0,0.0,1.4515,1.4515,1.4515,1.4515,1.4515,1.4515,1.4515,1.4515,1.4515,1.4515,1.4515,1.4515,1.4515,1.4506,1.4327,1.4019,1.3528,1.3338,1.3155,1.2981,1.2867,1.2805,1.2805,1.2621,1.2621,1.2621,1.2621,1.2621,1.2621,1.2621,1.2621,1.2621,1.2621,1.2621,1.2621,1.2621,1.2621,1.2621,1.2621,1.2621,1.2621,1.2621,1.2621,1.2621,1.2621,1.2621,1.2621,1.2621,1.2621,1.2621,1.2621,1.2621,1.2445,1.1845,1.1134,1.0181,0.8939,0.8642,0.8447,0.8234,0.825,0.825,0.8216,0.8085,0.7866,0.7617,0.7289,0.6863,0.6328,0.6173,0.5902,0.5405,0.5392,0.5261,0.496,0.466,0.4532,0.4564,0.4237,0.4011,0.3891,0.3793,0.3532,0.0,0.0,0.0,0.0,0.0,0.0,0.0,0.0,0.0,0.0,0.0,0.0,0.0,0.0,0.0,0.0,0.0,0.0,0.0,0.0,0.0,0.0,0.0,0.0,0.0,0.0,0.0,0.0,0.0,1.4565,1.4515,1.4515,1.4515,1.4515,1.4515,1.4515,1.4515,1.4515,1.4515,1.4515,1.4515,1.4446,1.4387,1.4139,1.3709,1.3164,1.3164,1.3111,1.2989,1.2744,1.2744,1.2928,1.2744,1.2683,1.2683,1.2683,1.2683,1.2683,1.2621,1.2621,1.2621,1.2621,1.2621,1.2621,1.2621,1.2621,1.2621,1.2621,1.2621,1.2621,1.2621,1.2621,1.2621,1.2621,1.2621,1.2621,1.2621,1.2621,1.2621,1.2621,1.2621,1.2581,1.2461,1.1519,1.0406,0.9331,0.8978,0.87,0.843,0.8414,0.8373,0.825,0.825,0.8173,0.7913,0.7694,0.7394,0.6973,0.6745,0.6434,0.5979,0.5855,0.5571,0.5061,0.494,0.482,0.4698,0.4628,0.45,0.4307,0.4183,0.3956,0.0,0.0,0.0,0.0,0.0,0.0,0.0,0.0,0.0,0.0,0.0,0.0,0.0,0.0,0.0,0.0,0.0,0.0,0.0,0.0,0.0,0.0,0.0,0.0,0.0,0.0,0.0,0.0,1.5118,1.4951,1.4506,1.4515,1.4515,1.4515,1.4515,1.4515,1.4515,1.4515,1.4515,1.4515,1.4515,1.4327,1.407,1.401,1.395,1.389,1.389,1.3528,1.2989,1.2989,1.2805,1.2683,1.2867,1.2928,1.2928,1.2928,1.2928,1.2928,1.2683,1.2621,1.2621,1.2621,1.2621,1.2621,1.2621,1.2621,1.2621,1.2621,1.2621,1.2621,1.2621,1.2621,1.2621,1.2621,1.2621,1.2621,1.2621,1.2621,1.2621,1.2621,1.2621,1.2429,1.1741,1.1471,1.0945,0.958,0.9332,0.9085,0.8494,0.8447,0.848,0.848,0.8561,0.8545,0.8342,0.8334,0.8095,0.7517,0.7348,0.7085,0.6673,0.6097,0.5773,0.5665,0.5177,0.4985,0.5112,0.4992,0.489,0.4788,0.4742,0.4549,0.0,0.0,0.0,0.0,0.0,0.0,0.0,0.0,0.0,0.0,0.0,0.0,0.0,0.0,0.0,0.0,0.0,0.0,0.0,0.0,0.0,0.0,0.0,0.0,0.0,0.0,0.0,0.0,1.5584,1.5526,1.5313,1.5313,1.5186,1.4902,1.4902,1.4793,1.4515,1.4515,1.4515,1.4515,1.4515,1.4446,1.4267,1.4267,1.3959,1.3467,1.3467,1.3285,1.2989,1.2867,1.2928,1.3094,1.3042,1.3103,1.3277,1.3277,1.3277,1.3277,1.3155,1.3094,1.3094,1.3094,1.2981,1.2805,1.2805,1.2744,1.2621,1.2621,1.2621,1.2621,1.2621,1.2621,1.2621,1.2621,1.2621,1.2621,1.2621,1.2621,1.2621,1.2621,1.2621,1.2525,1.2146,1.1757,1.1153,1.0145,0.9652,0.9144,0.8502,0.8406,0.8447,0.848,0.8553,0.8602,0.857,0.8488,0.8334,0.8135,0.7935,0.7701,0.7386,0.6944,0.66,0.6385,0.5438,0.5049,0.5207,0.5144,0.5112,0.5112,0.5087,0.4902,0.0,0.0,0.0,0.0,0.0,0.0,0.0,0.0,0.0,0.0,0.0,0.0,0.0,0.0,0.0,0.0,0.0,0.0,0.0,0.0,0.0,0.0,0.0,0.0,0.0,0.0,0.0,0.0,1.6151,1.6104,1.5931,1.5874,1.569,1.5225,1.5167,1.4951,1.4515,1.4515,1.4515,1.4515,1.4515,1.4515,1.4515,1.4515,1.4019,1.3224,1.3224,1.3224,1.3103,1.292,1.3042,1.3338,1.3164,1.3216,1.339,1.345,1.3511,1.3511,1.3511,1.3511,1.3511,1.3511,1.3338,1.3103,1.3103,1.2981,1.2858,1.2858,1.2858,1.2858,1.2858,1.2744,1.2707,1.2857,1.2819,1.2671,1.2645,1.2621,1.2621,1.2621,1.2621,1.2621,1.2621,1.2115,1.1463,1.0597,0.996,0.9312,0.8401,0.8212,0.8229,0.8341,0.8318,0.8383,0.8594,0.8488,0.8447,0.848,0.8332,0.8173,0.7976,0.7648,0.7326,0.707,0.6061,0.549,0.5377,0.5272,0.5239,0.5309,0.5309,0.5157,0.0,0.0,0.0,0.0,0.0,0.0,0.0,0.0,0.0,0.0,0.0,0.0,0.0,0.0,0.0,0.0,0.0,0.0,0.0,0.0,0.0,0.0,0.0,0.0,0.0,0.0,0.0,0.0,1.6955,1.6662,1.5931,1.5874,1.569,1.5225,1.5167,1.4951,1.4515,1.4515,1.4515,1.4515,1.4515,1.4515,1.4515,1.4515,1.4327,1.395,1.395,1.3761,1.345,1.345,1.3277,1.3042,1.3338,1.3277,1.3042,1.339,1.3511,1.3511,1.3511,1.3511,1.3511,1.3511,1.3511,1.345,1.345,1.345,1.345,1.345,1.345,1.345,1.345,1.3216,1.3071,1.3471,1.3307,1.2973,1.2693,1.2621,1.2621,1.2621,1.2621,1.2621,1.2621,1.2597,1.2043,1.052,1.0285,0.9678,0.8127,0.7754,0.7756,0.799,0.7865,0.7929,0.839,0.8447,0.848,0.8521,0.8455,0.8406,0.8456,0.789,0.7633,0.7763,0.7253,0.6632,0.5848,0.5404,0.5239,0.5309,0.5309,0.5277,0.0,0.0,0.0,0.0,0.0,0.0,0.0,0.0,0.0,0.0,0.0,0.0,0.0,0.0,0.0,0.0,0.0,0.0,0.0,0.0,0.0,0.0,0.0,0.0,0.0,0.0,0.0,0.0,0.0,1.7301,1.7078,1.692,1.657,1.6104,1.5816,1.5303,1.4515,1.4515,1.4675,1.4951,1.4625,1.4684,1.4951,1.4625,1.4446,1.4327,1.4327,1.401,1.3511,1.3511,1.358,1.3649,1.3761,1.389,1.3959,1.4079,1.413,1.413,1.413,1.43,1.4505,1.4505,1.4551,1.4565,1.4565,1.4438,1.4238,1.4238,1.4238,1.4238,1.4238,1.4175,1.4153,1.4281,1.4185,1.4095,1.3953,1.3606,1.3219,1.3219,1.3044,1.2901,1.2901,1.271,1.2234,1.1209,1.0582,0.9864,0.8942,0.8448,0.8182,0.8267,0.8322,0.8489,0.8869,0.8548,0.8506,0.8918,0.8643,0.857,0.8741,0.8407,0.8246,0.8366,0.7817,0.721,0.6478,0.6065,0.5783,0.5677,0.5428,0.5309,0.0,0.0,0.0,0.0,0.0,0.0,0.0,0.0,0.0,0.0,0.0,0.0,0.0,0.0,0.0,0.0,0.0,0.0,0.0,0.0,0.0,0.0,0.0,0.0,0.0,0.0,0.0,0.0,0.0,0.0,1.7711,1.7545,1.7211,1.6637,1.6161,1.5584,1.4961,1.497,1.5137,1.541,1.5128,1.5128,1.54,1.5137,1.497,1.497,1.497,1.4547,1.3821,1.3821,1.3881,1.401,1.401,1.413,1.4446,1.4703,1.493,1.5068,1.5149,1.5373,1.5536,1.5357,1.5351,1.5375,1.5375,1.5236,1.5033,1.5033,1.5033,1.5098,1.5283,1.5316,1.5292,1.516,1.5123,1.5085,1.5085,1.4422,1.3792,1.3792,1.3541,1.3259,1.3259,1.306,1.2623,1.1797,1.1107,1.0389,0.9455,0.8941,0.8658,0.8618,0.8673,0.8835,0.9222,0.8815,0.8772,0.9279,0.9007,0.8886,0.8992,0.8814,0.8724,0.8773,0.8373,0.7935,0.7425,0.6729,0.6248,0.6011,0.5643,0.5435,0.0,0.0,0.0,0.0,0.0,0.0,0.0,0.0,0.0,0.0,0.0,0.0,0.0,0.0,0.0,0.0,0.0,0.0,0.0,0.0,0.0,0.0,0.0,0.0,0.0,0.0,0.0,0.0,1.859,1.8333,1.7767,1.7711,1.7368,1.6627,1.6161,1.5931,1.5874,1.5874,1.5931,1.5931,1.5931,1.5931,1.5931,1.5931,1.5874,1.5874,1.5874,1.5362,1.4565,1.4565,1.4318,1.407,1.4028,1.413,1.4336,1.5153,1.5731,1.6164,1.6408,1.65,1.6446,1.5955,1.5781,1.579,1.579,1.579,1.579,1.579,1.579,1.5845,1.6402,1.6523,1.6427,1.616,1.598,1.5833,1.5833,1.4993,1.4305,1.4239,1.3949,1.3667,1.3667,1.3659,1.3243,1.2114,1.1941,1.1296,0.9668,0.927,0.9062,0.8984,0.8819,0.8864,0.9284,0.931,0.935,0.9518,0.9518,0.9408,0.9217,0.9217,0.9105,0.892,0.892,0.8822,0.8716,0.7462,0.6613,0.6217,0.6018,0.5684,1.1024,0.0,0.0,0.0,0.0,0.0,0.0,0.0,0.0,0.0,0.0,0.0,0.0,0.0,0.0,0.0,0.0,0.0,0.0,0.0,0.0,0.0,0.0,0.0,0.0,0.0,0.0,0.0,1.81,1.8119,1.8333,1.792,1.7423,1.6899,1.657,1.6218,1.5874,1.5874,1.6046,1.64,1.6046,1.6104,1.64,1.6046,1.5874,1.5874,1.5874,1.5758,1.5536,1.5536,1.5245,1.4911,1.5162,1.5102,1.4964,1.5851,1.6307,1.6461,1.6901,1.7286,1.7481,1.7352,1.7494,1.775,1.775,1.775,1.7617,1.7293,1.7159,1.7091,1.6831,1.6779,1.6803,1.6734,1.6945,1.7148,1.7148,1.6697,1.6133,1.5454,1.5044,1.4799,1.4799,1.4371,1.3901,1.3606,1.2528,1.1506,1.0878,0.9931,0.9201,0.8823,0.8849,0.9046,0.9403,0.9312,0.9391,0.9843,0.9646,0.9518,0.9509,0.9288,0.9217,0.9208,0.8992,0.8871,0.8822,0.8106,0.7492,0.7056,0.6258,0.5684,0.0,0.0,0.0,0.0,0.0,0.0,1.2994,1.3843,0.0,0.0,0.0,0.0,0.0,0.0,0.0,0.0,0.0,0.0,0.0,0.0,0.0,0.0,0.0,0.0,0.0,1.7412,1.7544,1.7845,1.7718,1.7804,1.826,1.7806,1.7476,1.7301,1.7145,1.6853,1.6513,1.6457,1.6637,1.6874,1.6627,1.6627,1.6864,1.6627,1.6457,1.6457,1.6457,1.6457,1.6457,1.6457,1.6104,1.5508,1.5958,1.6064,1.6143,1.7044,1.7526,1.7747,1.8068,1.8304,1.8455,1.8193,1.8298,1.8509,1.8509,1.8509,1.8432,1.8104,1.8037,1.7978,1.7638,1.7373,1.7235,1.7235,1.7442,1.7638,1.7442,1.7364,1.7148,1.6455,1.587,1.5523,1.5523,1.5138,1.4807,1.4656,1.3688,1.2676,1.1896,1.0947,1.0043,0.9299,0.9358,0.9505,0.9707,0.9676,0.9725,0.982,0.9828,0.9681,0.9389,0.9485,0.9496,0.943,0.9328,0.9217,0.9136,0.8596,0.8101,0.7556,0.6687,0.6074,0.0,0.0,0.0,0.0,0.0,0.0,1.3895,1.4296,1.4869,0.0,0.0,0.0,0.0,0.0,0.0,0.0,0.0,0.0,0.0,0.0,0.0,0.0,0.0,0.0,1.7243,1.7243,1.7267,1.7327,1.7388,1.7518,1.7729,1.7479,1.7459,1.772,1.7678,1.7601,1.7334,1.7334,1.7278,1.7278,1.7278,1.7278,1.7278,1.7278,1.7278,1.7278,1.7278,1.7278,1.7278,1.7278,1.6807,1.6039,1.6546,1.6979,1.7392,1.8428,1.903,1.936,1.9369,1.9375,1.9309,1.8844,1.871,1.871,1.871,1.871,1.8643,1.8643,1.8576,1.8509,1.8509,1.8172,1.7774,1.7774,1.7774,1.7638,1.7166,1.7442,1.7569,1.7217,1.6524,1.6044,1.6044,1.6044,1.5931,1.5608,1.5232,1.4418,1.3041,1.2219,1.132,1.0224,1.0048,0.9961,0.9914,1.0137,1.0117,0.969,1.0068,0.9954,0.9245,0.9695,0.9843,0.9628,0.9737,0.9667,0.9478,0.8958,0.8374,0.7825,0.7212,0.6678,0.0,0.0,0.0,0.0,0.0,0.0,1.1961,1.1865,1.216,0.0,0.0,0.0,0.0,0.0,0.0,0.0,0.0,0.0,0.0,0.0,0.0,0.0,0.0,0.0,1.6104,1.6104,1.6272,1.6691,1.7183,1.7411,1.7458,1.7612,1.7728,1.7781,1.7716,1.7656,1.7601,1.739,1.7278,1.7278,1.7278,1.7278,1.7278,1.7278,1.7278,1.7278,1.7278,1.7278,1.7278,1.7278,1.6987,1.654,1.7363,1.7503,1.7358,1.8708,1.9238,1.9391,1.9835,1.9933,1.9944,1.9802,1.9813,1.9813,1.9813,1.9813,1.9671,1.9243,1.8834,1.8509,1.8509,1.8442,1.8375,1.8375,1.8375,1.8307,1.824,1.791,1.7706,1.7569,1.7432,1.7364,1.7364,1.7491,1.7531,1.7445,1.6872,1.6111,1.5148,1.3664,1.222,1.0925,1.0251,0.9762,0.9366,0.9925,1.0244,1.0156,1.0157,1.0128,1.0079,0.9826,0.9716,0.9774,0.9667,0.9549,0.9319,0.8797,0.8374,0.8032,0.7723,0.7279,0.0,0.0,0.0,1.133,0.0,0.0,0.0,1.2102,1.2378,1.3599,0.0,0.0,0.0,0.0,0.0,0.0,0.0,0.0,0.0,0.0,0.0,0.0,0.0,0.0,1.5792,1.5792,1.59,1.6164,1.6428,1.6691,1.7003,1.7122,1.7416,1.7772,1.778,1.7778,1.7931,1.7767,1.7711,1.7711,1.7711,1.7656,1.749,1.749,1.7445,1.7278,1.7278,1.7278,1.7278,1.7278,1.7307,1.7348,1.8044,1.8277,1.8438,1.9328,1.9726,1.9726,2.0009,2.0085,2.0085,2.0085,2.0085,2.0085,2.0085,2.0085,2.0009,1.9791,1.9309,1.89,1.89,1.87,1.8509,1.8509,1.87,1.8844,1.8566,1.8509,1.8375,1.7774,1.791,1.8037,1.7774,1.7765,1.7969,1.824,1.7773,1.7168,1.6356,1.4998,1.3568,1.2003,1.1311,1.0665,0.9962,1.0185,1.0253,1.0036,1.0041,0.9992,0.9848,0.9838,0.9913,1.0079,0.9922,0.9804,0.9804,0.927,0.8865,0.8506,0.8332,0.7982,0.0,0.0,0.0,0.0,0.0,1.1603,0.0,0.0,0.0,1.3852,0.0,0.0,0.0,0.0,0.0,0.0,0.0,0.0,0.0,0.0,0.0,0.0,0.0,0.0,1.556,1.5492,1.5533,1.578,1.56,1.5756,1.6392,1.6524,1.6967,1.7721,1.7788,1.7938,1.8182,1.8139,1.8084,1.8084,1.8084,1.7986,1.7767,1.7767,1.7656,1.7434,1.7434,1.7445,1.739,1.739,1.7674,1.8174,1.8545,1.8993,1.9473,1.99,2.0085,2.0085,2.0085,2.0085,2.0085,2.0085,2.0085,2.0085,2.0085,2.0085,2.0085,2.0085,1.9802,1.9441,1.9441,1.911,1.8777,1.8777,1.9044,1.9166,1.8777,1.89,1.89,1.8037,1.8172,1.8375,1.791,1.7969,1.8172,1.871,1.8576,1.8162,1.749,1.6422,1.4954,1.3073,1.2426,1.1634,1.0487,1.0444,1.0308,0.9903,1.005,0.9973,0.9618,0.9897,1.0196,1.038,1.0166,1.0137,1.0244,0.9873,0.9478,0.9033,0.8886,0.8646,0.0,0.0,0.0,0.0,1.1262,0.0,0.0,0.0,1.1471,1.1661,0.0,0.0,0.0,0.0,0.0,0.0,0.0,0.0,0.0,0.0,0.0,0.0,0.0,0.0,0.0,1.4349,1.4648,1.572,1.4833,1.4696,1.5828,1.6332,1.6847,1.7435,1.765,1.8043,1.856,1.8247,1.8084,1.8084,1.8084,1.8084,1.803,1.803,1.8041,1.803,1.803,1.7865,1.7656,1.7656,1.8032,1.8611,1.8665,1.8993,1.9473,1.99,2.0085,2.0085,2.0085,2.0085,2.0085,2.0085,2.0085,2.0085,2.0085,2.0085,2.0085,2.0085,2.0074,2.0009,2.0009,1.9944,1.9944,1.9944,1.9584,1.9299,1.9233,1.89,1.8576,1.8432,1.8442,1.8499,1.8442,1.8767,1.9309,1.9868,1.9878,1.9663,1.9206,1.791,1.6191,1.3857,1.2903,1.1682,0.9856,1.0303,1.0657,1.0606,1.0542,1.0447,1.0311,1.0099,1.0127,1.038,1.0312,1.0205,1.0019,1.0049,0.9834,0.9448,0.9399,0.9133,0.0,0.0,0.0,0.0,0.0,0.0,1.1418,0.0,1.1307,0.0,0.0,0.0,0.0,0.0,0.0,0.0,1.1945,0.0,0.0,0.0,0.0,0.0,0.0,0.0,0.0,0.0,1.4793,1.599,1.4785,1.4541,1.5732,1.6008,1.6368,1.6943,1.7374,1.785,1.8374,1.8525,1.8614,1.8614,1.8614,1.856,1.841,1.841,1.829,1.8084,1.8084,1.8041,1.7931,1.7931,1.8442,1.9205,1.9205,1.9454,1.9802,2.0009,2.0085,2.0085,2.0085,2.0085,2.0085,2.0085,2.0085,2.0085,2.0085,2.0085,2.0085,2.0085,2.0085,2.0085,2.0085,2.0085,2.0085,2.0085,1.9944,1.9726,1.9726,1.9594,1.932,1.9034,1.8967,1.8967,1.8967,1.9166,1.9507,2.0009,2.0085,1.99,1.9473,1.8643,1.7387,1.5531,1.4208,1.2958,1.158,1.1047,1.084,1.084,1.0725,1.0572,1.0418,1.0467,1.039,1.0166,1.0273,1.0312,1.0166,1.0205,1.0088,0.9843,0.9695,0.9377,1.2516,0.0,0.0,0.0,0.0,0.0,0.0,0.0,0.0,0.0,0.0,0.0,0.0,0.0,0.0,1.0988,0.0,1.2083,0.0,0.0,0.0,0.0,0.0,0.0,0.0,0.0,1.4298,1.5932,0.0,1.4284,1.584,1.5836,1.6032,1.656,1.7135,1.7664,1.8193,1.8722,1.8987,1.8987,1.8987,1.8881,1.8721,1.8721,1.856,1.8356,1.8356,1.8302,1.8247,1.8247,1.878,1.9608,1.9608,1.9946,2.0399,2.0399,2.0335,2.027,2.027,2.0205,2.0085,2.0085,2.0085,2.0085,2.0085,2.0085,2.0085,2.0085,2.0085,2.0085,2.0085,2.0085,2.0085,2.0085,2.0085,2.0085,2.0085,2.0085,2.0009,1.9584,1.9518,1.9518,1.9518,1.9375,1.9507,2.0009,1.9966,1.9759,1.9462,1.8884,1.7944,1.6492,1.5012,1.3744,1.2719,1.163,1.1012,1.104,1.0916,1.0764,1.0621,1.0764,1.0659,1.0244,1.0351,1.038,1.0312,1.0322,1.0235,1.0079,0.9902,0.9625,0.0,0.0,0.0,1.1694,0.0,0.0,0.0,0.0,1.1132,0.0,0.0,0.0,0.0,0.0,1.1085,1.0428,1.0891,0.0,0.0,0.0,0.0,0.0,0.0,0.0,0.0,0.0,0.0,0.0,1.3607,1.3636,1.6157,1.6001,1.6032,1.656,1.7135,1.7664,1.8193,1.8722,1.8987,1.8987,1.8987,1.8987,1.8987,1.8987,1.8987,1.8987,1.8987,1.8827,1.856,1.856,1.8992,1.9608,1.9608,2.0251,2.1158,2.1158,2.0903,2.0571,2.0571,2.0388,2.0085,2.0085,2.0085,2.0085,2.0085,2.0085,2.0085,2.0085,2.0085,2.0085,2.0085,2.0085,2.0085,2.0085,2.0085,2.0085,2.0085,2.0085,2.0074,2.0074,2.0074,2.0074,2.0074,1.9649,1.9507,2.0009,1.9746,1.9441,1.9419,1.86,1.7475,1.5959,1.4769,1.357,1.2243,1.1527,1.126,1.1485,1.1303,1.1191,1.1185,1.0888,1.0764,1.0878,1.0572,1.038,1.038,1.0312,1.0235,1.0079,1.0088,0.9941,0.0,0.0,1.6776,1.4326,0.0,0.0,0.0,0.0,0.0,0.0,0.0,0.0,0.0,0.0,1.1253,1.0954,1.1096,1.119,0.0,0.0,1.1285,0.0,0.0,0.0,0.0,0.0,0.0,0.0,0.0,0.0,1.6617,1.6607,1.6622,1.681,1.7677,1.8099,1.802,1.8902,1.9251,1.8987,1.8987,1.8987,1.8987,1.8987,1.8987,1.8987,1.8987,1.8934,1.8917,1.9263,1.9713,2.0275,2.0677,2.1246,2.18,2.136,2.1094,2.0967,2.0967,2.0903,2.0775,2.0518,2.0453,2.0388,2.0151,2.0085,2.0085,2.0085,2.0085,2.0085,2.0085,2.0085,2.0085,2.0085,2.0085,2.0085,2.0085,2.0085,2.0085,2.0085,2.0085,2.0085,2.0085,1.9944,1.9868,2.0074,1.9725,1.9299,1.8971,1.8392,1.7693,1.6874,1.5821,1.4645,1.3382,1.1878,1.1088,1.1303,1.1325,1.1287,1.1191,1.1239,1.1078,1.0753,1.0791,1.0639,1.0312,1.0351,1.0235,1.0049,1.0166,1.0049,1.8331,1.8714,0.0,1.6364,1.6393,0.0,1.3672,0.0,0.0,0.0,0.0,0.0,0.0,0.0,1.1279,1.1178,1.1192,1.1239,0.0,1.1353,1.1353,0.0,0.0,0.0,0.0,0.0,0.0,0.0,0.0,0.0,0.0,1.6741,1.6876,1.6876,1.7939,1.8376,1.8119,1.9258,1.9656,1.946,1.946,1.9356,1.9198,1.9198,1.9146,1.8987,1.8987,1.8987,1.9035,1.9564,2.0105,2.0646,2.1199,2.1728,2.2135,2.1737,2.1486,2.1348,2.1221,2.1221,2.1158,2.0903,2.0839,2.0775,2.0593,2.0464,2.0464,2.0464,2.0399,2.027,2.027,2.0205,2.0085,2.0085,2.0085,2.0085,2.0085,2.0085,2.0085,2.0085,2.0085,2.0085,2.0085,2.0085,2.0085,2.0085,1.9725,1.9244,1.8753,1.8283,1.7824,1.7333,1.632,1.5114,1.356,1.1804,1.0936,1.1266,1.1211,1.1226,1.1303,1.1437,1.1389,1.1183,1.1113,1.0971,1.0745,1.0575,1.0351,1.0127,1.0205,1.0127]}]]